[[{"header":{"parameterUnit":"m.s-1","parameterCategory":1,"la1":30.6,"la2":29.2853,"lo1":-89.7004,"lo2":-87.6739,"dy":0.0162,"dx":0.0183,"nx":112,"ny":82,"refTime":"2024-06-15T00:00:00:Z","depth":0,"parameterNumber":2,"parameterNumberName":"U-component_of_WINDS"},"data":[0.0,0.0,0.0,0.0,0.0,0.0,0.0,0.0,0.0,0.0,0.0,0.0,0.0,0.0,0.0,0.0,0.0,0.0,0.0,0.0,0.0,0.0,0.0,0.0,0.0,0.0,0.0,0.0,0.0,0.0,0.0,0.0,0.0,0.0,0.0,0.0,0.0,0.0,0.0,0.0,0.0,0.0,0.0,0.0,0.0,0.0,0.0,0.0,0.0,0.0,0.0,0.0,0.0,0.0,0.0,0.0,0.0,0.0,0.0,0.0,0.0,0.0,0.0,0.0,0.0,0.0,0.0,0.0,0.0,0.0,0.0,0.0,0.0,0.0,0.0,0.0,0.0,0.0,0.0,0.0,0.0,0.0,0.0,0.0,0.0,0.0,0.0,0.0,0.0,0.0,0.0,-0.2055,-0.1691,-0.1044,-0.0034,0.1392,0.2967,0.4634,0.0,0.0,0.0,0.0,0.0,0.0,0.0,0.0,0.0,0.0,0.0,0.0,0.0,0.0,0.0,0.0,0.0,0.0,0.0,0.0,0.0,0.0,0.0,0.0,0.0,0.0,0.0,0.0,0.0,0.0,0.0,0.0,0.0,0.0,0.0,0.0,0.0,0.0,0.0,0.0,0.0,0.0,0.0,0.0,0.0,0.0,0.0,0.0,0.0,0.0,0.0,0.0,0.0,0.0,0.0,0.0,0.0,0.0,0.0,0.0,0.0,0.0,0.0,0.0,0.0,0.0,0.0,0.0,0.0,0.0,0.0,0.0,0.0,0.0,0.0,0.0,0.0,0.0,0.0,0.0,0.0,0.0,0.0,0.0,0.0,0.0,0.0,0.0,0.0,0.0,0.0,0.0,0.0,0.0,0.0,0.0,0.0,0.0,0.0,0.0,0.0,0.0,0.0,0.0,-0.2046,-0.1865,-0.1485,-0.0948,-0.0222,0.1145,0.2559,0.3966,0.0,0.0,0.0,0.0,0.0,0.0,0.0,0.0,0.0,0.0,0.0,0.0,0.0,0.0,0.0,0.0,0.0,0.0,0.0,0.0,0.0,0.0,0.0,0.0,0.0,0.0,0.0,0.0,0.0,0.0,0.0,0.0,0.0,0.0,0.0,0.0,0.0,0.0,0.0,0.0,0.0,0.0,0.0,0.0,0.0,0.0,0.0,0.0,0.0,0.0,0.0,0.0,0.0,0.0,0.0,0.0,0.0,0.0,0.0,0.0,0.0,0.0,0.0,0.0,0.0,0.0,0.0,0.0,0.0,0.0,0.0,0.0,0.0,0.0,0.0,0.0,0.0,0.0,0.0,0.0,0.0,0.0,0.0,0.0,0.0,0.0,0.0,0.0,0.0,0.0,0.0,0.0,0.0,0.0,0.0,0.0,0.0,0.0,0.0,0.0,0.0,0.0,0.0,-0.1191,-0.1957,-0.1721,-0.1394,-0.0882,-0.0108,0.1161,0.2674,0.45,0.5283,0.0,0.0,0.0,0.0,0.0,0.0,0.0,0.0,0.0,0.0,0.0,0.0,0.0,0.0,0.0,0.0,0.0,0.0,0.0,0.0,0.0,0.0,0.0,0.0,0.0,0.0,0.0,0.0,0.0,0.0,0.0,0.0,0.0,0.0,0.0,0.0,0.0,0.0,0.0,0.0,0.0,0.0,0.0,0.0,0.0,0.0,0.0,0.0,0.0,0.0,0.0,0.0,0.0,0.0,0.0,0.0,0.0,0.0,0.0,0.0,0.0,0.0,0.0,0.0,0.0,0.0,0.0,0.0,0.0,0.0,0.0,0.0,0.0,0.0,0.0,0.0,0.0,0.0,0.0,0.0,0.0,0.0,0.0,0.0,0.0,0.0,0.0,0.0,0.0,0.0,0.0,0.0,0.0,0.0,0.0,0.0,0.0,0.0,0.0,0.0,0.0,0.0,-0.1238,-0.1784,-0.153,-0.1252,-0.0731,0.0163,0.141,0.296,0.4899,0.5632,0.0,0.0,0.0,0.0,0.0,0.0,0.0,0.0,0.0,0.0,0.0,0.0,0.0,0.0,0.0,0.0,0.0,0.0,0.0,0.0,0.0,0.0,0.0,0.0,0.0,0.0,0.0,0.0,0.0,0.0,0.0,0.0,0.0,0.0,0.0,0.0,0.0,0.0,0.0,0.0,0.0,0.0,0.0,0.0,0.0,0.0,0.0,0.0,0.0,0.0,0.0,0.0,0.0,0.0,0.0,0.0,0.0,0.0,0.0,0.0,0.0,0.0,0.0,0.0,0.0,0.0,0.0,0.0,0.0,0.0,0.0,0.0,0.0,0.0,0.0,0.0,0.0,0.0,0.0,0.0,0.0,0.0,0.0,0.0,0.0,0.0,0.0,0.0,0.0,0.0,0.0,0.0,0.0,0.0,0.0,0.0,0.0,0.0,0.0,0.0,0.0,0.0,-0.144,-0.1449,-0.1252,-0.093,-0.0364,0.0575,0.1997,0.3297,0.4393,0.5762,0.0,0.0,0.0,0.0,0.0,0.0,0.0,0.0,0.0,0.0,0.0,0.0,0.0,0.0,0.0,0.0,0.0,0.0,0.0,0.0,0.0,0.0,0.0,0.0,0.0,0.0,0.0,0.0,0.0,0.0,0.0,0.0,0.0,0.0,0.0,0.0,0.0,0.0,0.0,0.0,0.0,0.0,0.0,0.0,0.0,0.0,0.0,0.0,0.0,0.0,0.0,0.0,0.0,0.0,0.0,0.0,0.0,0.0,0.0,0.0,0.0,0.0,0.0,0.0,0.0,0.0,0.0,0.0,0.0,0.0,0.0,0.0,0.0,0.0,0.0,0.0,0.0,0.0,0.0,0.0,0.0,0.0,0.0,0.0,0.0,0.0,0.0,0.0,0.0,0.0,0.0,0.0,0.0,0.0,0.0,0.0,0.0,0.0,0.0,0.0,0.0,0.0,-0.0816,-0.0796,0.0,-0.0275,0.023,0.1293,0.2558,0.3686,0.4648,0.0,0.0,0.0,0.0,0.0,0.0,0.0,0.0,0.0,0.0,0.0,0.0,0.0,0.0,0.0,0.0,0.0,0.0,0.0,0.0,0.0,0.0,0.0,0.0,0.0,0.0,0.0,0.0,0.0,0.0,0.0,0.0,0.0,0.0,0.0,0.0,0.0,0.0,0.0,0.0,0.0,0.0,0.0,0.0,0.0,0.0,0.0,0.0,0.0,0.0,0.0,0.0,0.0,0.0,0.0,0.0,0.0,0.0,0.0,0.0,0.0,0.0,0.0,0.0,0.0,0.0,0.0,0.0,0.0,0.0,0.0,0.0,0.0,0.0,0.0,0.0,0.0,0.0,0.0,0.0,0.0,0.0,0.0,0.0,0.0,0.0,0.0,0.0,0.0,0.0,0.0,0.0,0.0,0.0,0.0,0.0,0.0,0.0,0.0,0.0,0.0,0.0,0.0011,-0.0059,-0.0039,0.0,0.0413,0.0955,0.1967,0.3128,0.4039,0.4668,0.0,0.0,0.0,0.0,0.0,0.0,0.0,0.0,0.0,0.0,0.0,0.0,0.0,0.0,0.0,0.0,0.0,0.0,0.0,0.0,0.0,0.0,0.0,0.0,0.0,0.0,0.0,0.0,0.0,0.0,0.0,0.0,0.0,0.0,0.0,0.0,0.0,0.0,0.0,0.0,0.0,0.0,0.0,0.0,0.0,0.0,0.0,0.0,0.0,0.0,0.0,0.0,0.0,0.0,0.0,0.0,0.0,0.0,0.0,0.0,0.0,0.0,0.0,0.0,0.0,0.0,0.0,0.0,0.0,0.0,0.0,0.0,0.0,0.0,0.0,0.0,0.0,0.0,0.0,0.0,0.0,0.0,0.0,0.0,0.0,0.0,0.0,0.0,0.0,0.0,0.0,0.0,0.0,0.0,0.0,0.0,0.0,0.0,0.0,0.0,0.0,0.0,0.0515,0.0746,0.0817,0.0556,0.1122,0.183,0.2567,0.3731,0.4398,0.0,0.0,0.0,0.0,0.0,0.0,0.0,0.0,0.0,0.0,0.0,0.0,0.0,0.0,0.0,0.0,0.0,0.0,0.0,0.0,0.0,0.0,0.0,0.0,0.0,0.0,0.0,0.0,0.0,0.0,0.0,0.0,0.0,0.0,0.0,0.0,0.0,0.0,0.0,0.0,0.0,0.0,0.0,0.0,0.0,0.0,0.0,0.0,0.0,0.0,0.0,0.0,0.0,0.0,0.0,0.0,0.0,0.0,0.0,0.0,0.0,0.0,0.0,0.0,0.0,0.0,0.0,0.0,0.0,0.0,0.0,0.0,0.0,0.0,0.0,0.0,0.0,0.0,0.0,0.0,0.0,0.0,0.0,0.0,0.0,0.0,0.0,0.0,0.0,0.0,0.0,0.0,0.0,0.0,0.0,0.0,0.0,0.0,0.0,0.0,0.0,0.0,0.0,0.1749,0.1591,0.1684,0.2269,0.2678,0.3302,0.4285,0.4998,0.5541,0.5896,0.0,0.0,0.0,0.0,0.0,0.0,0.0,0.0,0.0,0.0,0.0,0.0,0.0,0.0,0.0,0.0,0.0,0.0,0.0,0.0,0.0,0.0,0.0,0.0,0.0,0.0,0.0,0.0,0.0,0.0,0.0,0.0,0.0,0.0,0.0,0.0,0.0,0.0,0.0,0.0,0.0,0.0,0.0,0.0,0.0,0.0,0.0,0.0,0.0,0.0,0.0,0.0,0.0,0.0,0.0,0.0,0.0,0.0,0.0,0.0,0.0,0.0,0.0,0.0,0.0,0.0,0.0,0.0,0.0,0.0,0.0,0.0,0.0,0.0,0.0,0.0,0.0,0.0,0.0,0.0,0.0,0.0,0.0,0.0,0.0,0.0,0.0,0.0,0.0,0.0,0.0,0.0,0.0,0.0,0.0,0.0,0.0,0.0,0.0,0.0,0.0,0.0,0.2628,0.2779,0.3098,0.361,0.4111,0.4726,0.5506,0.594,0.6345,0.6729,0.0,0.0,0.0,0.0,0.0,0.0,0.0,0.0,0.0,0.0,0.0,0.0,0.0,0.0,0.0,0.0,0.0,0.0,0.0,0.0,0.0,0.0,0.0,0.0,0.0,0.0,0.0,0.0,0.0,0.0,0.0,0.0,0.0,0.0,0.0,0.0,0.0,0.0,0.0,0.0,0.0,0.0,0.0,0.0,0.0,0.0,0.0,0.0,0.0,0.0,0.0,0.0,0.0,0.0,0.0,0.0,0.0,0.0,0.0,0.0,0.0,0.0,0.0,0.0,0.0,0.0,0.0,0.0,0.0,0.0,0.0,0.0,0.0,0.0,0.0,0.0,0.0,0.0,0.0,0.0,0.0,0.0,0.0,0.0,0.0,0.0,0.0,0.0,0.0,0.0,0.0,0.0,0.0,0.0,0.0,0.0,0.0,0.0,0.0,0.0,0.0,0.0,0.3425,0.4221,0.4806,0.4773,0.5473,0.6095,0.6455,0.6727,0.6968,0.7185,0.0,0.0,0.0,0.0,0.0,0.0,0.0,0.0,0.0,0.0,0.0,0.0,0.0,0.0,0.0,0.0,0.0,0.0,0.0,0.0,0.0,0.0,0.0,0.0,0.0,0.0,0.0,0.0,0.0,0.0,0.0,0.0,0.0,0.0,0.0,0.0,0.0,0.0,0.0,0.0,0.0,0.0,0.0,0.0,0.0,0.0,0.0,0.0,0.0,0.0,0.0,0.0,0.0,0.0,0.0,0.0,0.0,0.0,0.0,0.0,0.3114,0.0,0.0,0.0,0.0,0.0,0.0,0.0,0.0,0.0,0.0,0.0,0.0,0.0,0.0,0.0,0.0,0.0,0.0,0.0,0.0,0.0,0.0,0.0,0.0,0.0,0.0,0.0,0.0,0.0,0.0,0.0,0.0,0.0,0.0,0.0,0.0,0.0,0.0,0.0,0.0,0.0,0.5524,0.5589,0.5877,0.6695,0.695,0.7289,0.7845,0.8121,0.8401,0.8713,0.8497,0.0,0.0,0.0,0.0,0.0,0.0,0.0,0.0,0.0,0.0,0.0,0.0,0.0,0.0,0.0,0.0,0.0,0.0,0.0,0.0,0.0,0.0,0.0,0.0,0.0,0.0,0.0,0.0,0.0,0.0,0.0,0.0,0.0,0.0,0.0,0.0,0.0,0.0,0.0,0.0,0.0,0.0,0.0,0.0,0.0,0.0,0.0,0.0,0.0,0.0,0.0,0.0,0.0,0.0,0.0,0.0,0.0,0.0,0.0,0.0,0.2662,0.0,0.0,0.0,0.0,0.0,0.0,0.0,0.0,0.0,0.0,0.0,0.0,0.0,0.0,0.0,0.0,0.0,0.0,0.0,0.0,0.0,0.0,0.0,0.0,0.0,0.0,0.0,0.0,0.0,0.0,0.0,0.0,0.0,0.0,0.0,0.0,0.0,0.0,0.0,0.0,0.6649,0.7061,0.746,0.7798,0.7977,0.8236,0.8662,0.8845,0.9174,0.9792,0.9454,0.0,0.0,0.0,0.0,0.0,0.0,0.0,0.0,0.0,0.0,0.0,0.0,0.0,0.0,0.0,0.0,0.0,0.0,0.0,0.0,0.0,0.0,0.0,0.0,0.0,0.0,0.0,0.0,0.0,0.0,0.0,0.0,0.0,0.0,0.0,0.0,0.0,0.0,0.0,0.0,0.0,0.0,0.0,0.0,0.0,0.0,0.0,0.0,0.0,0.0,0.0,0.0,0.0,0.4088,0.4203,0.4158,0.4368,0.4484,0.4608,0.4869,0.3105,0.0,0.0,0.0,0.0,0.0,0.0,0.0,0.0,0.0,0.0,0.0,0.0,0.0,0.0,0.0,0.0,0.0,0.0,0.0,0.0,0.0,0.0,0.0,0.0,0.0,0.0,0.9072,0.9344,0.0,0.0,0.0,0.0,0.0,0.0,0.0,0.0,0.0,0.0,0.0,0.0,0.7469,0.8345,0.8875,0.8529,0.8688,0.891,0.9097,0.9268,0.9662,1.0426,1.0325,0.9989,0.0,0.0,0.0,0.0,0.0,0.0,0.0,0.0,0.0,0.0,0.0,0.0,0.0,0.0,0.0,0.0,0.0,0.0,0.0,0.0,0.0,0.0,0.0,0.0,0.0,0.0,0.0,0.0,0.0,0.0,0.0,0.0,0.7189,0.7544,0.0,0.0,0.0,0.0,0.0,0.0,0.0,0.0,0.0,0.0,0.0,0.0,0.0,0.4395,0.435,0.461,0.4183,0.3139,0.3981,0.4211,0.3968,0.4691,0.5016,0.5034,0.4936,0.0,0.0,0.0,0.0,0.0,0.0,0.0,0.0,0.0,0.0,0.0,0.0,0.0,0.0,0.0,0.0,0.0,0.0,0.0,0.0,0.0,0.0,0.0,0.0,0.0,0.8582,0.9167,0.8788,0.7535,0.0,0.4091,0.4057,0.4077,0.7172,0.0,0.0,0.0,0.0,0.0,0.0,0.0,0.8692,0.897,0.9144,0.9253,0.9101,0.9065,0.9259,0.9638,1.0026,1.0294,1.1027,1.1076,1.0187,0.9413,0.0,0.0,0.0,0.0,0.0,0.0,0.0,0.0,0.0,0.0,0.0,0.0,0.0,0.0,0.0,0.0,0.0,0.0,0.0,0.0,0.0,0.0,0.0,0.0,0.0,0.0,0.0,0.0,0.0,0.7072,0.7169,0.7284,0.5391,0.4192,0.0,0.0,0.0,0.0,0.0,0.0,0.0,0.0,0.0,0.0,0.3151,0.476,0.4616,0.4331,0.3737,0.2832,0.3357,0.3712,0.3912,0.4135,0.4555,0.4997,0.2993,0.0445,-0.2185,-0.0646,0.0,0.0,0.0,0.0,0.0,0.0,0.3621,0.3872,0.3994,0.5304,0.0,0.7062,0.0,0.0,0.0,0.0,0.0,0.0,0.0,0.0,0.0,0.0,0.7939,0.7698,0.7989,0.7676,0.5286,0.2321,0.0318,0.0,0.3453,0.5634,0.6411,0.0,0.0,0.0,0.0,0.8726,0.8712,0.9103,0.9339,0.9235,0.9092,0.9038,0.9178,0.9607,1.0092,1.061,1.0745,1.0801,1.0767,0.9634,0.8495,0.0,0.0,0.0,0.0,0.0,0.0,0.0,0.0,0.0,0.0,0.0,0.0,0.0,0.0,0.0,0.0,0.0,0.0,0.0,0.0,0.0,0.0,0.0,0.0,0.0,0.0,0.0,0.0,0.7088,0.7039,0.699,0.506,0.3876,0.0,0.0,0.0,0.0,0.0,0.0,0.0,0.0,0.0,0.0,0.2668,0.3993,0.3752,0.3289,0.2711,0.207,0.1978,0.2432,0.3287,0.2298,0.2216,0.2696,0.0122,-0.2155,-0.3889,-0.1981,-0.0698,0.0,0.0,-0.0128,-0.0143,0.1235,0.2024,0.2462,0.2827,0.4925,0.7548,0.7962,0.0,0.8427,0.8332,0.0,0.0,0.0,0.0,0.7893,0.6844,0.6561,0.6424,0.582,0.6105,0.5915,0.371,-0.0211,-0.2861,0.0,0.0201,0.2066,0.4857,0.0,0.0,0.0,0.0,0.8594,0.8245,0.8778,0.9098,0.8937,0.8872,0.8872,0.896,0.9343,0.9843,1.044,1.0269,1.0308,1.0665,0.9754,0.893,0.8311,0.0,0.0,0.0,0.0,0.0,0.0,0.0,0.0,0.0,0.0,0.0,0.0,0.0,0.0,0.0,0.0,0.0,0.0,0.0,0.0,0.0,0.0,0.0,0.0,0.0,0.0,0.0,0.0,0.0,0.6638,0.4681,0.0,0.0,0.0,0.0,0.4236,0.1624,0.0,0.0,0.0,0.0,0.0,0.1808,0.2607,0.2213,0.1622,0.0991,0.0321,-0.0505,0.0021,0.1611,-0.1457,-0.3006,-0.3288,-0.3564,-0.3786,-0.3918,-0.4246,-0.2657,0.0,0.0,-0.0465,-0.1046,-0.0338,0.031,0.09,0.1485,0.3262,0.5384,0.6153,0.6781,0.7189,0.7173,0.7205,0.0,0.0,0.5977,0.7391,0.5149,0.3887,0.3369,0.3816,0.2516,0.0187,-0.346,-0.5242,-0.5383,0.0,-0.1703,-0.0287,0.2093,0.0,0.5447,0.5608,0.6528,0.7237,0.7349,0.7775,0.816,0.8424,0.8375,0.8404,0.86,0.8887,0.9108,0.9277,0.9898,1.0079,0.961,0.992,0.9979,0.9706,0.8315,0.0,0.0,0.0,0.0,0.0,0.0,0.0,0.0,0.0,0.0,0.0,0.0,0.0,0.0,0.0,0.0,0.0,0.0,0.0,0.0,0.0,0.0,0.0,0.0,0.0,0.0,0.0,0.0,0.5352,0.3715,0.0,0.2385,0.2453,0.2518,0.2526,0.0962,0.0,0.0,0.0,0.0,0.0,0.0709,0.0936,0.062,0.011,-0.0417,-0.0969,-0.158,-0.1683,-0.1407,-0.2823,-0.3574,-0.3851,-0.5545,-0.5771,-0.4885,-0.4326,-0.3471,-0.249,-0.2373,-0.225,-0.2086,-0.1463,-0.0929,-0.0493,-0.023,0.0924,0.2535,0.4199,0.4963,0.5192,0.5078,0.4905,0.4288,0.1968,0.1744,0.221,0.2059,0.139,0.0841,0.126,-0.0684,-0.3165,-0.5136,-0.6224,-0.6109,-0.3706,-0.2672,-0.1492,0.0652,0.2136,0.3305,0.4106,0.509,0.5794,0.5921,0.6661,0.7203,0.7301,0.7576,0.7749,0.7633,0.7888,0.806,0.8107,0.8226,0.8458,0.8841,0.9,0.9414,1.0057,0.9478,0.9078,0.0,0.0,0.0,0.0,0.0,0.0,0.0,0.0,0.0,0.0,0.0,0.0,0.0,0.0,0.0,0.0,0.0,0.0,0.0,0.0,0.0,0.0,0.0,0.0,0.0,0.0,0.2817,0.35,0.239,0.1463,0.1219,0.1112,0.0975,0.0777,0.0287,0.0,0.0,0.0,0.0,0.0,-0.0179,-0.0376,-0.0608,-0.1031,-0.1443,-0.1875,-0.2965,-0.3744,-0.4221,-0.4556,-0.4797,-0.4974,-0.6275,-0.6533,-0.5981,-0.5221,-0.4938,-0.4884,-0.3915,-0.3212,-0.2704,-0.2163,-0.1968,-0.1921,-0.1479,-0.0603,0.0582,0.2103,0.2746,0.2873,0.2661,0.1794,0.0639,-0.068,-0.1422,-0.1616,-0.0579,-0.0967,-0.1509,-0.1097,-0.2517,-0.4353,-0.5966,-0.613,-0.5515,-0.3915,-0.3177,-0.2333,-0.0838,0.0329,0.1378,0.2335,0.3373,0.4163,0.4501,0.5307,0.5909,0.6145,0.6529,0.6748,0.6673,0.6868,0.6944,0.688,0.6707,0.6898,0.7529,0.7904,0.8606,0.9726,1.0904,1.1119,1.0346,0.0,0.0,0.0,0.0,0.0,0.0,0.0,0.0,0.0,0.0,0.0,0.0,0.0,0.0,0.0,0.0,0.0,0.0,0.0,0.0,0.0,0.0,0.0,0.2529,0.2148,0.1689,0.1205,0.0745,0.0324,-0.0,-0.029,-0.0579,-0.0906,-0.0408,-0.0059,-0.0,-0.0059,-0.0076,-0.007,-0.0822,-0.1281,-0.1421,-0.174,-0.2113,-0.2515,-0.4739,-0.6075,-0.6611,-0.6807,-0.6947,-0.6996,-0.5902,-0.6065,-0.7077,-0.7077,-0.7104,-0.6845,-0.4354,-0.3234,-0.2944,-0.2525,-0.284,-0.3315,-0.2193,-0.1208,-0.0382,-0.0135,0.0135,0.0292,0.0022,-0.1972,-0.3953,-0.3037,-0.3225,-0.3494,-0.261,-0.3096,-0.3695,-0.3172,-0.296,-0.3612,-0.6333,-0.5284,-0.378,-0.3662,-0.3314,-0.2885,-0.2395,-0.1282,-0.0249,0.037,0.1432,0.0,0.3162,0.3724,0.4324,0.4981,0.5246,0.5474,0.5732,0.5898,0.5837,0.5565,0.5492,0.5504,0.5657,0.6714,0.7829,0.8984,1.2572,1.3659,1.2041,0.0,0.0,0.0,0.0,0.0,0.0,0.0,0.0,0.0,0.0,0.0,0.0,0.0,0.0,0.0,0.0,0.0,0.0,0.0,0.0,0.0,0.0,0.1239,0.1549,0.1142,0.0652,0.0233,-0.0233,-0.0613,-0.0845,-0.1196,-0.1506,-0.175,-0.1841,-0.1328,-0.0059,-0.1191,-0.1818,-0.1663,-0.1694,-0.1732,-0.1764,-0.2056,-0.2915,-0.4383,-0.5447,-0.6183,-0.6611,-0.6655,-0.6474,-0.6108,-0.6375,-0.6398,-0.6258,-0.6852,-0.699,-0.6574,-0.4193,-0.3961,-0.491,-0.4162,-0.3508,-0.2896,-0.2245,-0.1629,-0.1118,-0.1029,-0.1092,-0.1247,-0.1446,-0.2262,-0.3304,-0.4195,-0.4203,-0.3918,-0.3963,-0.4216,-0.4432,-0.4329,-0.4279,-0.4837,-0.6953,-0.5632,-0.4125,-0.4474,-0.4052,-0.3437,-0.2782,-0.2163,-0.1476,-0.0575,0.0327,0.0,0.2027,0.2815,0.3501,0.4024,0.4527,0.4839,0.4846,0.4972,0.486,0.4395,0.4438,0.4617,0.4896,0.6195,0.8303,1.1248,1.2463,1.3138,0.0,0.0,0.0,0.0,0.0,0.0,0.0,0.0,0.0,0.0,0.0,0.0,0.0,0.0,0.0,0.0,0.0,0.0,0.0,0.0,0.0,0.0,0.0805,0.0044,0.0108,-0.0033,-0.0266,-0.0575,-0.0954,-0.1269,-0.1475,-0.1834,-0.2163,-0.2421,-0.2636,-0.2348,-0.1403,-0.2226,-0.2637,-0.2431,-0.2199,-0.2066,-0.2066,-0.2915,-0.3983,-0.5272,-0.576,-0.6106,-0.636,-0.6465,-0.6328,0.0,-0.6528,-0.6478,-0.6104,-0.6486,-0.6493,0.0,0.0,0.0,0.0,0.0,-0.3311,-0.2647,-0.2364,-0.196,-0.1585,-0.1658,-0.1872,-0.2302,-0.3406,-0.3819,-0.4121,-0.515,-0.5093,-0.4788,-0.51,-0.5096,-0.5019,-0.5156,-0.5473,-0.6097,-0.7336,-0.6587,-0.5643,-0.5513,-0.4871,0.0,-0.3366,-0.2805,-0.2209,-0.1456,-0.0594,0.0309,0.1216,0.1936,0.2576,0.3095,0.3561,0.3883,0.3962,0.406,0.0,0.0,0.0,0.4064,0.514,0.6473,0.0,0.0,0.0,0.0,0.0,0.0,0.0,0.0,1.1887,1.2527,0.0,0.0,0.0,0.0,0.0,0.0,0.0,0.0,0.0,0.0,0.0,0.0,0.0,0.0,0.0,0.0,0.0116,-0.1149,-0.1453,-0.1249,-0.1116,-0.1269,-0.1508,-0.1742,-0.1942,-0.244,-0.2805,-0.2915,-0.3241,-0.3446,-0.3549,0.0,0.0,0.0,0.0,-0.26,-0.2578,-0.4057,-0.5039,-0.5501,-0.5837,-0.5979,-0.5998,-0.623,-0.6354,-0.6378,-0.6468,-0.6439,-0.6289,-0.6112,-0.5826,-0.5537,-0.5595,-0.5309,-0.4726,-0.3332,-0.2681,-0.2495,-0.2473,0.0,0.0,-0.2056,-0.2376,-0.3172,-0.5436,-0.588,-0.5646,-0.5938,-0.5895,-0.5807,-0.6023,-0.5817,-0.5574,-0.576,-0.6468,-0.7205,-0.7529,-0.7724,-0.7515,-0.6441,-0.5534,-0.4697,-0.3974,-0.3231,-0.2608,-0.216,-0.1265,-0.0334,0.0603,0.1132,0.1645,0.2267,0.0,0.0,0.3089,0.3172,0.3147,0.3083,0.3017,0.3888,0.5928,0.7228,0.9314,1.2345,1.3239,1.4213,1.5298,1.5391,1.5409,1.5345,1.4139,1.4114,0.0,0.0,0.0,0.0,0.0,0.0,0.0,0.0,0.0,0.0,0.0,0.0,0.0,0.0,0.0,0.0346,-0.09,-0.1927,-0.2102,-0.2071,-0.1958,-0.1785,-0.1911,-0.2071,-0.2283,-0.3866,-0.4395,-0.3225,-0.4854,-0.5851,-0.5724,-0.5507,-0.5244,-0.4944,-0.4701,-0.4471,-0.4311,-0.4638,-0.5039,-0.5501,0.0,0.0,-0.5929,-0.6016,-0.6111,-0.617,-0.6455,-0.6475,-0.6291,-0.6192,-0.5506,-0.4504,-0.4504,-0.4138,-0.3514,-0.3111,-0.2757,-0.2476,-0.2245,-0.2202,-0.2185,-0.2114,-0.3045,-0.4534,-0.634,-0.62,0.0,-0.6531,-0.6405,-0.6119,-0.6587,-0.6537,-0.6378,-0.6413,-0.6881,-0.7374,-0.7437,-0.7483,-0.7173,-0.6029,-0.5155,-0.4472,-0.4098,-0.352,-0.2857,-0.2128,-0.1446,-0.0714,0.0133,0.0645,0.1159,0.1777,0.2084,0.2324,0.2531,0.2507,0.2426,0.2247,0.3058,0.4273,0.5923,0.7922,1.0094,1.2448,1.3476,1.4444,1.539,1.6078,1.6386,1.6295,1.5295,1.5353,0.0,0.0,0.0,0.0,0.0,0.0,0.0,0.0,0.0,0.0,0.0,0.0829,0.0,0.0,0.0,0.0,-0.144,-0.2568,-0.2636,-0.2568,-0.2421,-0.2173,-0.3002,-0.3701,-0.3935,-0.5042,-0.5523,-0.4952,-0.6063,-0.6655,-0.6465,-0.6111,-0.5782,-0.5501,-0.5137,-0.4902,-0.4803,-0.5462,-0.5584,-0.5156,-0.5634,-0.5879,-0.5961,-0.6017,-0.6165,-0.6361,-0.6487,-0.646,-0.6325,-0.6036,-0.5462,-0.4766,-0.447,-0.3903,-0.3217,-0.2961,-0.2735,-0.2584,-0.242,-0.2411,-0.2574,-0.2981,-0.4039,-0.5399,-0.6477,-0.6624,-0.6522,-0.7102,-0.7079,-0.6955,-0.7237,-0.7162,-0.7006,-0.7006,-0.7189,-0.739,-0.7253,-0.7137,-0.6748,-0.5907,-0.4923,-0.4187,-0.4029,-0.3432,-0.2735,-0.2106,-0.1541,-0.0959,-0.0289,0.0267,0.0758,0.1203,0.1652,0.1895,0.1859,0.1764,0.1751,0.1849,0.2891,0.4229,0.5888,0.8088,1.0256,1.2469,1.3503,1.4491,1.5412,1.6254,1.6652,1.659,1.654,1.6534,0.0,0.0,0.0,0.0,0.0,0.0,0.0,0.0,-0.013,-0.0023,0.0,0.0,0.0,0.0,-0.0179,-0.0686,-0.2095,-0.313,-0.3094,-0.2939,-0.2926,-0.3188,-0.4406,-0.5349,-0.5633,-0.5948,-0.6272,-0.6621,-0.7222,-0.7462,-0.7181,-0.6655,-0.621,-0.594,-0.5495,-0.5213,-0.5103,-0.6165,-0.6141,-0.5047,-0.5648,-0.5951,-0.5967,-0.6049,-0.6211,-0.6474,-0.6435,-0.6413,-0.6381,-0.5874,-0.5508,-0.5234,-0.4692,-0.4017,-0.332,-0.2929,-0.2777,-0.2745,-0.2649,-0.2692,-0.2938,-0.3825,-0.4847,-0.5839,-0.6486,-0.7153,-0.769,-0.781,-0.7931,-0.8064,-0.8049,-0.7783,-0.7529,-0.7513,-0.7483,-0.739,-0.7169,-0.6807,-0.636,-0.5782,-0.4747,-0.3978,-0.3902,-0.3256,-0.2584,-0.2098,-0.1623,-0.1141,-0.0625,-0.0067,0.0377,0.0654,0.1147,0.1349,0.112,0.1031,0.1146,0.1539,0.264,0.4032,0.5796,0.811,1.0335,1.2451,1.3496,1.4455,1.5385,1.6278,1.6655,1.6627,1.7433,1.7555,0.5105,0.2529,0.0621,0.0267,0.0199,0.0193,0.0,0.0,-0.0018,-0.0003,0.0,0.0,0.0,0.0,-0.0745,-0.3071,-0.3556,-0.3574,-0.3391,-0.3289,-0.3954,-0.5907,-0.5883,-0.5856,-0.6183,-0.6413,-0.6621,-0.6858,-0.8761,-0.9689,-0.9188,-0.862,-0.803,-0.7469,-0.7111,-0.6681,-0.6142,-0.6287,-0.6195,-0.5865,-0.6004,-0.602,-0.5905,-0.5985,-0.5985,-0.6002,-0.6163,-0.6319,-0.6449,-0.6058,-0.5472,-0.4838,-0.4524,-0.4073,-0.3528,-0.3244,-0.3061,-0.2929,-0.2745,-0.2896,-0.3252,-0.3973,-0.477,-0.5686,-0.6996,-0.794,-0.8649,-0.8986,-0.9179,-0.9297,-0.9208,-0.8584,-0.7929,-0.7841,-0.7709,-0.7498,-0.7157,-0.6681,-0.6088,-0.5328,-0.4544,-0.3952,-0.3834,-0.3353,-0.2757,-0.2172,-0.1689,-0.123,-0.0825,-0.0448,-0.0087,0.0241,0.0435,0.051,0.0415,0.0512,0.0712,0.1058,0.2362,0.3888,0.564,0.8356,1.064,1.2368,1.3465,1.4466,1.5401,1.6263,1.6684,1.6623,1.7438,1.8076,0.1271,0.0184,-0.0071,0.0,0.0,-0.0445,-0.2067,-0.2524,-0.2648,-0.2779,-0.2796,-0.2786,-0.2753,-0.2663,-0.295,0.0,-0.3941,-0.4291,-0.5655,-0.5642,-0.5846,-0.6776,-0.6681,-0.6579,-0.6655,-0.6723,-0.7351,-0.8782,-0.9633,-0.9892,-0.9523,-0.8933,-0.8319,-0.7734,-0.7214,-0.6673,-0.6029,-0.6091,-0.5978,-0.5713,-0.5861,-0.5909,-0.5889,-0.5969,-0.6106,-0.6245,-0.6311,-0.6223,-0.606,-0.5718,-0.5197,-0.4661,-0.4371,-0.413,-0.3838,-0.3329,-0.3157,-0.3163,-0.3071,-0.334,-0.3851,-0.4597,-0.541,-0.6376,-0.7818,-0.8742,-0.9439,-1.0152,-1.0383,-1.0311,-0.9804,-0.9,-0.8249,-0.8054,-0.7812,-0.7498,-0.7088,-0.6527,-0.5961,-0.5444,-0.4823,-0.4338,-0.4122,-0.3688,-0.3156,-0.2587,-0.2021,-0.1496,-0.1092,-0.0736,-0.0382,-0.0018,0.0068,0.0061,-0.0038,0.011,0.0358,0.069,0.2369,0.3995,0.5476,0.8215,1.0307,1.1579,1.3141,1.417,1.4656,1.6029,1.6687,1.6627,1.7438,1.7921,-0.181,0.0,0.0,-0.1249,-0.1302,-0.1897,-0.3919,-0.4499,-0.4912,-0.5993,-0.6181,-0.6137,-0.6046,-0.5888,-0.5733,-0.556,-0.5301,-0.5707,-0.7445,-0.7437,-0.7221,-0.7221,-0.7169,-0.7263,-0.7687,-0.772,-0.8396,-0.9944,-0.984,-0.9552,-0.9259,-0.8767,-0.8205,-0.7569,-0.6975,-0.6384,-0.5811,-0.5905,-0.5831,-0.5641,-0.5776,-0.5894,-0.5936,-0.5981,-0.6126,-0.6337,-0.6229,-0.5983,-0.5592,-0.5246,-0.482,-0.4403,-0.421,-0.4156,-0.4114,-0.3585,-0.347,-0.356,-0.3555,-0.3948,-0.4556,-0.5373,-0.635,-0.7407,-0.8652,-0.9669,-1.0602,-1.1329,-1.1541,-1.1322,-1.0487,-0.9454,-0.8524,-0.8272,-0.7956,-0.7574,-0.7137,-0.6647,-0.6029,-0.5078,-0.4773,-0.4548,-0.4074,-0.3686,-0.3299,-0.2863,-0.2317,-0.1783,-0.137,-0.099,-0.0616,-0.0268,-0.0222,-0.0224,-0.0266,-0.0072,0.0209,0.0581,0.2596,0.4255,0.5352,0.7848,0.975,1.0951,1.2418,1.3483,1.4114,1.5368,1.6065,1.6242,1.6808,1.7023,0.0,0.0,-0.4297,-0.444,-0.4592,-0.4789,-0.4853,-0.4884,-0.5816,-0.9093,-0.9706,-0.9603,-0.9389,-0.918,-0.8939,-0.8615,-0.835,-0.8093,-0.7913,-0.7709,-0.7589,-0.7589,-0.7284,-0.7811,0.0,-0.9792,-0.974,-0.9526,-0.9282,-0.896,-0.8656,-0.8347,-0.7918,-0.7225,-0.6643,-0.6153,-0.5811,-0.5811,-0.5859,-0.5967,-0.5983,-0.6014,-0.6014,-0.6014,-0.5967,-0.592,-0.578,-0.5484,-0.5093,-0.4756,-0.4371,-0.4026,-0.3993,-0.4156,-0.439,-0.4236,-0.4159,-0.4173,-0.424,-0.4712,-0.5391,-0.6208,-0.743,-0.8743,-0.9378,-1.0865,-1.2362,-1.2585,-1.2599,-1.2335,-1.1477,-1.0029,-0.8736,-0.853,-0.8178,-0.7797,-0.7467,-0.7205,-0.6329,-0.384,-0.4085,-0.438,-0.3401,-0.3178,-0.3034,-0.283,-0.2496,-0.2119,-0.1639,-0.1192,-0.0822,-0.0607,-0.0519,-0.0414,-0.0225,0.0042,0.0391,0.0856,0.3133,0.4762,0.5375,0.7167,0.9005,1.087,1.1225,1.2281,1.4081,1.4153,1.4575,1.5345,1.5289,1.5222,-0.7467,0.0,-0.5238,-0.7605,-0.8233,-0.8268,-0.8268,-0.8277,-0.8575,-0.9668,-0.9862,-0.9751,-0.9542,-0.9322,-0.9109,-0.8886,-0.8522,-0.8227,-0.8068,-0.7899,-0.7709,-0.7498,-0.7072,0.0,0.0,0.0,0.0,-0.9255,-0.8767,-0.8347,-0.8004,-0.7715,-0.7344,-0.6945,-0.6307,-0.5842,-0.5592,-0.5749,-0.5811,-0.5795,-0.5842,-0.5874,-0.5951,-0.5951,-0.592,-0.5811,-0.5655,-0.5309,-0.4864,-0.4576,-0.4253,-0.3961,-0.4026,-0.435,-0.4783,-0.5083,-0.5578,-0.601,-0.5285,-0.5807,-0.6948,-0.7706,-0.8927,-1.029,-1.1245,-1.2099,-1.286,-1.3418,-1.3545,-1.32,-1.1816,-1.0946,-1.0156,-0.8983,-0.8472,-0.8232,-0.7998,-0.7783,-0.7142,-0.543,-0.524,-0.5066,-0.4161,-0.3857,-0.3626,-0.3193,-0.2504,-0.1894,-0.1518,-0.1213,-0.0937,-0.0694,-0.0653,-0.048,-0.0099,0.0182,0.0564,0.1136,0.2849,0.427,0.5238,0.7054,0.8636,0.9883,1.0836,1.165,1.239,1.3556,1.4204,1.4448,1.4951,1.5088,-1.0515,-0.865,-0.7236,-0.9463,-1.0048,-1.0048,-1.0043,-1.0038,-1.0022,-0.9967,-0.9875,-0.9751,-0.9542,-0.9322,-0.9129,-0.8953,-0.8559,-0.8227,-0.8054,-0.7855,-0.7605,-0.7253,-0.6714,-0.6622,0.0,0.0,0.0,-0.841,-0.7976,-0.7598,-0.7411,-0.7065,-0.6764,-0.6445,-0.5905,-0.5561,-0.5435,-0.5592,-0.5718,-0.5732,-0.5763,-0.5795,-0.5826,-0.5795,-0.5718,-0.5592,-0.5404,-0.5087,-0.4672,-0.4479,-0.4221,-0.3993,-0.4285,-0.4724,-0.5304,-0.5844,-0.6715,-0.7453,-0.6718,-0.725,-0.843,-0.917,-1.0311,-1.1574,-1.2418,-1.3019,-1.3469,-1.398,-1.4074,-1.369,-1.2025,-1.1491,-1.0996,-0.9349,-0.884,-0.8677,-0.8567,-0.8332,-0.7823,-0.6697,-0.6102,-0.5537,-0.4731,-0.4168,-0.3709,-0.3306,-0.2645,-0.2064,-0.1705,-0.1428,-0.1171,-0.0871,-0.0741,-0.0531,-0.017,0.0196,0.0616,0.1124,0.2619,0.4015,0.517,0.7035,0.8491,0.9432,1.0378,1.1084,1.1555,1.2642,1.3442,1.4027,1.4512,1.4596,-1.2642,-1.1495,-1.0254,-1.0114,-1.0123,-1.0119,-1.011,-1.0101,-1.0082,-1.0028,-0.9919,-0.9698,0.0,0.0,-0.8955,-0.8918,-0.8559,-0.8187,-0.7899,-0.7574,-0.7205,0.0,0.0,0.0,0.0,0.0,0.0,-0.694,0.0,-0.672,-0.672,-0.6429,-0.6091,-0.5749,-0.5435,-0.5277,-0.5309,-0.5435,-0.5624,-0.5811,-0.5732,-0.5701,-0.5701,-0.5561,-0.5435,-0.5277,-0.5087,-0.482,-0.45,-0.4415,-0.4285,-0.4188,-0.4724,-0.53,-0.5922,-0.6546,-0.7493,-0.849,-0.8469,-0.9016,-0.9831,-1.0558,-1.1603,-1.2662,-1.2941,-1.3579,-1.4229,-1.4291,-1.4242,-1.3843,-1.2287,-1.1742,-1.1223,-0.9645,-0.9199,-0.9113,-0.9102,-0.8874,-0.836,-0.7515,-0.6649,-0.5816,-0.5048,-0.4131,-0.3406,-0.3164,-0.2919,-0.2578,-0.2158,-0.1824,-0.1495,-0.1159,-0.0834,-0.0576,-0.0438,0.0056,0.0511,0.0856,0.2511,0.398,0.5126,0.7062,0.8536,0.9481,0.9901,1.0571,1.1523,1.1521,1.2324,1.3884,1.3851,1.3736,-1.4167,-1.3602,-1.2237,-1.0587,-1.0182,-1.0157,-1.0161,-1.0133,-1.0097,-1.0085,-1.0039,-0.9205,0.0,0.0,0.0,-0.8681,-0.8547,0.0,-0.7605,-0.698,0.0,-0.6129,0.0,-0.4958,-0.5152,-0.4968,0.0,0.0,-0.5124,-0.5686,-0.5686,-0.5592,-0.5404,-0.5055,-0.4972,-0.5087,-0.5435,-0.5575,-0.5701,-0.5811,-0.578,-0.5763,-0.5701,-0.5669,-0.5512,-0.5277,-0.5087,-0.482,-0.4488,-0.436,-0.4403,-0.4543,-0.5156,-0.5891,-0.6648,-0.7537,-0.8646,-0.9763,-1.0509,-1.0881,-1.1201,-1.1783,-1.2731,-1.363,-1.3828,-1.4062,-1.4281,-1.4293,-1.4281,-1.4028,-1.3027,-1.2306,-1.1553,-1.0571,-0.9825,-0.9314,-0.9259,-0.9157,-0.8829,-0.8065,-0.7207,-0.6342,-0.5498,-0.5044,-0.4556,-0.3736,-0.3383,-0.299,-0.2328,-0.2048,-0.1775,-0.1437,-0.1193,-0.0948,-0.0716,-0.0347,0.0066,0.0498,0.2165,0.3694,0.4936,0.6906,0.845,0.9487,0.9944,1.0347,1.0623,1.1211,1.1706,1.2085,1.2627,1.2711,-1.5031,-1.4491,-1.3325,-1.1702,-1.1031,-1.0665,-1.0297,-0.978,-0.9533,-1.0086,-0.8969,0.0,-0.5334,0.0,0.0,0.0,0.0,0.0,-0.6836,-0.6242,-0.5611,0.0,-0.4289,0.0,-0.39,-0.3567,-0.3101,0.0,-0.3821,-0.4672,-0.4864,-0.4864,-0.4832,-0.4812,-0.494,-0.5246,-0.5703,-0.5763,-0.5826,-0.5874,-0.5811,-0.5763,-0.5715,-0.5716,-0.5576,-0.5346,0.0,-0.508,-0.4804,-0.4814,-0.4938,-0.5156,-0.5813,-0.6592,-0.7434,-0.8353,-0.9605,-1.0963,-1.194,-1.2695,-1.3236,-1.3032,-1.3468,-1.4082,-1.4216,-1.4268,-1.4306,-1.4355,-1.4344,-1.4162,-1.3395,-1.2879,-1.236,-1.1608,-1.1018,-1.0653,-1.0624,-1.0318,-0.9675,-0.8497,-0.7845,-0.7236,-0.6356,-0.5786,-0.5264,-0.465,-0.4053,-0.3477,-0.2977,-0.251,-0.2105,-0.1786,-0.1558,-0.1321,-0.1086,-0.073,-0.0329,0.011,0.1667,0.3256,0.4791,0.6625,0.8238,0.9544,0.9995,1.0234,1.0271,1.0662,1.1026,1.133,1.1637,1.1641,-1.5433,-1.4603,-1.3805,-1.2935,-1.2106,-1.1237,-1.0256,-0.921,-0.8706,-0.9607,0.0,-0.5108,-0.5109,-0.5056,-0.4913,-0.4652,0.0,-0.4069,-0.5533,-0.5203,-0.4587,-0.3994,-0.312,-0.2398,-0.1916,-0.1894,-0.178,-0.1475,-0.2706,-0.37,-0.4188,-0.4318,-0.4576,-0.4992,-0.534,-0.5718,-0.606,-0.5998,-0.5998,-0.6044,-0.5936,-0.5811,-0.5747,-0.5752,-0.565,-0.5456,-0.5553,0.0,-0.527,-0.5482,-0.5674,-0.5891,-0.6669,-0.7443,-0.822,-0.9004,-1.0379,-1.2014,-1.2826,-1.4111,-1.5227,-1.4313,-1.4194,-1.4445,-1.4567,-1.4547,-1.4487,-1.4513,-1.4466,-1.4293,-1.3635,-1.3447,-1.3281,-1.2655,-1.2407,-1.2349,-1.2332,-1.1813,-1.081,-0.9194,-0.8829,-0.8471,-0.7475,-0.6634,-0.5966,-0.5604,-0.4809,-0.4127,-0.3832,-0.3088,-0.251,-0.2248,-0.1979,-0.1758,-0.1538,-0.1166,-0.0771,-0.036,0.1066,0.2754,0.4684,0.6308,0.7963,0.969,1.0019,1.0195,1.0156,1.0098,1.0337,1.0923,1.0691,1.0412,-1.5327,-1.4639,-1.3803,-1.2975,-1.215,-1.1081,-0.9491,-0.8664,0.0,0.0,-0.5966,-0.5083,-0.5103,-0.5054,-0.4819,-0.4279,0.0,0.0,0.0,0.0,-0.3014,0.0,0.0,0.0,0.0,0.0,0.0,0.0,0.0,-0.2812,-0.3765,-0.4382,-0.5119,-0.5998,-0.6474,-0.6595,-0.6429,-0.6337,-0.6321,-0.6321,-0.6199,-0.606,-0.5951,-0.6017,-0.5889,-0.565,-0.562,0.0,-0.5623,-0.5762,-0.6075,-0.6562,-0.7803,-0.8467,-0.8833,-0.9583,-1.084,-1.2308,-1.3015,-1.4165,-1.5335,-1.5537,-1.583,-1.6105,-1.6166,-1.5793,-1.5271,-1.5297,-1.4915,-1.4485,-1.4478,-1.4018,-1.3534,-1.3478,-1.2992,-1.2566,-1.2565,-1.2464,-1.2108,-1.1034,-1.0749,-1.0245,-0.8698,-0.8202,-0.7551,-0.611,-0.5665,-0.5192,-0.4289,-0.3591,-0.307,-0.2868,-0.2659,-0.2434,-0.2165,-0.1878,-0.1512,-0.1063,0.0465,0.2305,0.446,0.6086,0.7836,0.9739,1.0008,1.0069,0.9967,0.9775,0.9617,0.947,0.918,0.887,-1.54,-1.4648,-1.3824,-1.3007,-1.1783,-1.0469,-0.9001,0.0,0.0,0.0,-0.507,-0.4662,-0.4367,0.0,0.0,0.0,0.0,0.0,0.0,0.0,0.0,0.0,0.0,0.0,0.0,0.0,0.0,0.0,0.0,-0.2266,-0.3036,-0.4159,-0.5078,-0.5657,-0.6776,-0.7244,-0.7035,-0.6794,-0.6673,-0.6673,-0.646,-0.6276,-0.6168,-0.6326,-0.6336,-0.6159,-0.6202,0.0,-0.6398,-0.6511,-0.6853,-0.7346,-0.8283,-0.8928,-0.9396,-0.997,-1.1358,-1.3006,-1.3659,-1.4992,-1.6541,-1.6944,-1.6817,-1.6451,-1.6566,-1.6066,-1.5488,-1.5515,-1.5026,-1.46,-1.4726,-1.453,-1.4358,-1.445,-1.4255,-1.3903,-1.3454,-1.3415,-1.314,-1.2273,-1.1652,-1.1066,-1.0238,-0.9305,-0.8372,-0.7537,-0.6566,-0.5768,-0.5255,-0.4471,-0.3841,-0.3442,-0.3269,-0.3089,-0.2896,-0.262,-0.2274,-0.179,-0.0229,0.1775,0.4244,0.589,0.7711,0.9708,0.9504,0.925,0.9026,0.8586,0.8249,0.7939,0.7858,0.7586,-1.541,-1.4519,-1.3516,-1.2711,-1.1171,-0.948,-0.8129,-0.6471,0.0,0.0,-0.3706,-0.3334,-0.3022,0.0,-0.2259,0.0,0.0,0.0,0.0,0.0,0.0,0.0,0.0,0.0,0.0,0.0,0.0,0.0,0.0,0.0,-0.3035,-0.4289,-0.5078,-0.5253,-0.6945,-0.7685,-0.7367,-0.7159,-0.7035,-0.7005,-0.6734,-0.6521,-0.6353,-0.6605,-0.6665,-0.6608,-0.6743,0.0,0.0,-0.7262,-0.7647,-0.8114,-0.864,-0.9262,-0.9866,-1.0322,-1.1805,-1.3659,-1.4225,-1.578,-1.7579,-1.7945,-1.7549,-1.6936,-1.7035,-1.6571,-1.6008,-1.6022,-1.5563,-1.5136,-1.5299,-1.5447,-1.5565,-1.5509,-1.5423,-1.5137,-1.4523,-1.4367,-1.4131,-1.3233,-1.2315,-1.1661,-1.1443,-1.0147,-0.9005,-0.8781,-0.7579,-0.6598,-0.6364,-0.5506,-0.4821,-0.4442,-0.4026,-0.3697,-0.3585,-0.3345,-0.3023,-0.2579,-0.1045,0.1019,0.3632,0.5206,0.7006,0.9099,0.8568,0.8073,0.7721,0.7166,0.6744,0.6413,0.6405,0.6154,-1.5133,-1.3971,-1.2614,-1.1733,-1.0115,-0.8196,-0.606,0.0,0.0,-0.2135,-0.0956,-0.0352,-0.0793,0.1774,0.0,0.0,0.0,0.3679,0.0,0.0,0.0,0.0,0.0,0.0,0.0,0.0,0.0,0.0,0.0,0.0,-0.4883,-0.5406,-0.5708,-0.5726,-0.7429,-0.7887,-0.6966,-0.7272,-0.7411,-0.7351,-0.7005,-0.6764,-0.6582,-0.6657,-0.6664,-0.663,-0.6796,0.0,0.0,-0.77,-0.8119,-0.8612,-0.9185,-0.9738,-1.0223,-1.0667,-1.2105,-1.3865,-1.4312,-1.5794,-1.7579,-1.7945,-1.8268,-1.8502,-1.8574,-1.8194,-1.7674,-1.7695,-1.7233,-1.6817,-1.7037,-1.7226,-1.7202,-1.6623,-1.5928,-1.5385,-1.5282,-1.5286,-1.5015,-1.4155,-1.3286,-1.2418,-1.1637,-1.0697,-0.9798,-0.8986,-0.8752,-0.8363,-0.7543,-0.6635,-0.6137,-0.6304,-0.5093,-0.42,-0.4146,-0.3939,-0.3694,-0.3412,-0.2098,-0.0251,0.2198,0.3479,0.5109,0.7197,0.6995,0.6628,0.6103,0.5767,0.5339,0.4892,0.4603,0.4246,-1.3588,-1.3043,-1.2258,-1.0955,-0.9092,-0.7075,-0.5142,0.0,-0.2056,-0.0541,0.0613,0.1408,0.1644,0.3415,0.4841,0.4909,0.4803,0.4625,0.4294,0.0,0.0,0.0,0.0,0.0,0.0,0.0,0.0,0.0,0.0,0.0,-0.6905,-0.6502,-0.6272,-0.6272,-0.6696,-0.7005,-0.7249,-0.7303,-0.7376,-0.751,-0.7184,-0.6945,-0.6764,-0.6868,-0.69,-0.6966,-0.7132,0.0,0.0,-0.8146,-0.8584,-0.9131,-0.9687,-1.0173,-1.0623,-1.1517,-1.2795,-1.4166,-1.5042,-1.6338,-1.767,-1.8086,-1.8432,-1.8715,-1.8788,-1.8393,-1.7907,-1.7907,-1.7481,-1.7113,-1.7305,-1.7551,-1.7542,-1.6783,-1.6376,-1.6059,-1.549,-1.5418,-1.5303,-1.4952,-1.3777,-1.2681,-1.2332,-1.1123,-1.007,-0.9722,-0.9217,-0.871,-0.8196,-0.7218,-0.6354,-0.5752,-0.5075,-0.4657,-0.461,-0.4475,-0.4267,-0.3985,-0.2845,-0.1137,0.1167,0.2485,0.4051,0.5878,0.5446,0.4937,0.447,0.4001,0.3603,0.3263,0.3204,0.2959,-1.2253,-1.1919,-1.1312,-0.9956,-0.796,-0.5869,0.0,-0.2269,-0.0574,0.0796,0.1858,0.2734,0.3372,0.4174,0.4779,0.5051,0.5073,0.5062,0.4989,0.4787,0.0,0.0,0.0,0.0,0.0,0.0,0.0,0.0,0.0,0.0,-0.8554,-0.7897,-0.7326,-0.6891,-0.6729,-0.6967,-0.7573,-0.7624,-0.7693,-0.7764,-0.7421,-0.7154,-0.6945,-0.6975,-0.7062,-0.719,-0.7399,0.0,0.0,-0.8581,-0.9015,-0.9581,-1.0122,-1.0675,-1.1336,-1.2269,-1.3479,-1.479,-1.5716,-1.6808,-1.7849,-1.8211,-1.8545,-1.877,-1.8843,-1.8588,-1.8265,-1.8297,-1.8121,-1.7975,-1.8165,-1.8198,-1.8042,-1.7517,-1.7015,-1.6536,-1.5927,-1.558,-1.5386,-1.5388,-1.4215,-1.3081,-1.285,-1.1562,-1.0504,-1.0228,-0.9675,-0.9206,-0.9019,-0.8276,-0.7496,-0.6718,-0.6054,-0.5583,-0.5423,-0.5009,-0.4819,-0.4833,-0.3683,-0.2112,-0.0177,0.1114,0.251,0.4025,0.3719,0.3303,0.2816,0.2388,0.2026,0.1738,0.1763,0.148,-1.1476,-1.0673,-0.9456,-0.8712,-0.6757,-0.4514,0.0,-0.1026,0.0487,0.1897,0.2918,0.3716,0.4128,0.4358,0.4612,0.493,0.5061,0.511,0.5107,0.5051,0.0,0.0,0.0,0.0,0.0,0.0,0.0,0.0,0.0,0.0,-0.9683,-0.9683,-0.9004,-0.753,-0.8142,-0.825,-0.7806,-0.839,-0.851,-0.8193,-0.7793,-0.7421,-0.7095,-0.7017,-0.7035,0.0,0.0,0.0,0.0,-0.89,-0.9431,-0.9841,-1.0394,-1.1332,-1.241,-1.2787,-1.4078,-1.5727,-1.6164,-1.7031,-1.8065,-1.8388,-1.8678,-1.8931,-1.9002,-1.9104,-1.9182,-1.9193,-1.9511,-1.9934,-2.0109,-1.9613,-1.9081,-1.9173,-1.7925,-1.6701,-1.6707,-1.6009,-1.5388,-1.5388,-1.4683,-1.3826,-1.2967,-1.2083,-1.1186,-1.0244,-1.0166,-1.0163,-1.0075,-1.0114,-1.0171,-1.0247,-0.8585,-0.7235,-0.665,-0.5597,-0.5307,-0.6043,-0.4702,-0.3302,-0.2025,-0.0941,0.0174,0.1321,0.1795,0.1761,0.1221,0.101,0.075,0.0417,0.0154,-0.0397,-0.85,-0.8452,-0.8089,-0.6985,-0.5351,-0.3586,-0.2071,-0.0245,0.1455,0.2587,0.3372,0.3981,0.4277,0.4481,0.4661,0.4884,0.4978,0.0,0.0,0.0,0.0,0.0,0.0,0.0,0.0,0.0,0.0,0.0,0.0,0.0,-1.0024,-0.9987,-0.996,-0.9892,-0.9281,-0.9003,-0.9111,-0.8874,-0.8702,-0.8523,-0.8042,-0.7686,-0.744,-0.7244,-0.7225,0.0,0.0,0.0,0.0,-0.912,-0.9684,-1.0274,-1.144,-1.2276,-1.297,-1.4451,-1.5535,-1.6365,-1.7222,-1.7898,-1.8413,-1.8678,-1.8896,-1.9048,-1.9182,-1.9246,-1.9338,-1.9572,-1.9797,-2.0078,-2.0233,-2.0141,-1.9925,-1.9351,-1.839,-1.7447,-1.6827,-1.6012,-1.5389,-1.5385,-1.4687,-1.4019,-1.3682,-1.2843,-1.2042,-1.1378,-1.1233,-1.0968,-1.0254,-1.0183,-1.0133,-0.9919,-0.9146,-0.853,-0.8208,-0.7494,-0.6709,-0.5947,-0.5534,-0.4576,-0.2874,-0.2048,-0.1117,-0.002,0.0556,0.0669,0.0314,0.0249,-0.0054,-0.0562,-0.0973,-0.1497,0.0,-0.6515,-0.6169,-0.5153,-0.3584,-0.1955,-0.0873,0.0778,0.2318,0.3147,0.3685,0.4062,0.4322,0.447,0.4619,0.4785,0.4887,0.0,0.0,0.0,0.0,0.0,0.0,0.0,0.0,0.0,0.0,0.0,0.0,0.0,-1.0117,-1.0178,-1.0622,-1.1642,-1.0557,-1.0013,-1.01,-0.9697,-0.9318,-0.9004,-0.8424,-0.8042,-0.7793,-0.751,-0.7462,0.0,0.0,0.0,0.0,-0.9381,-1.0199,-1.1066,-1.2223,-1.3283,-1.4316,-1.569,-1.6597,-1.7237,-1.801,-1.8423,-1.868,-1.8914,-1.914,-1.9335,-1.9462,-1.9518,-1.9572,-1.9839,-2.0031,-2.0186,-2.0308,-2.041,-2.0352,-1.9818,-1.8837,-1.7842,-1.7298,-1.6247,-1.5389,-1.5388,-1.4959,-1.4426,-1.4027,-1.3451,-1.2724,-1.1856,-1.1298,-1.0755,-1.0157,-0.9934,-0.9782,-0.9591,-0.9339,-0.9036,-0.8671,-0.8396,-0.7647,-0.6296,-0.603,-0.5145,-0.3473,-0.2804,-0.1961,-0.089,-0.0324,-0.0143,-0.036,-0.0621,-0.0984,-0.146,-0.1931,-0.2422,0.0,-0.4787,0.0,-0.334,-0.1684,-0.0017,0.0649,0.1882,0.0,0.355,0.3839,0.4035,0.4236,0.4398,0.4544,0.467,0.0,0.0,0.0,0.0,0.0,0.0,0.0,0.0,0.0,0.0,0.0,0.0,0.0,0.0,-0.9978,-1.023,-1.1085,-1.2664,-1.1746,-1.1162,-1.0967,-1.0777,-1.0312,-0.9586,-0.8946,-0.8473,-0.8127,-0.786,-0.7831,0.0,0.0,0.0,0.0,-0.9742,-1.0848,-1.2109,-1.2848,-1.4355,-1.6085,-1.6541,-1.7377,-1.8252,-1.8491,-1.8735,-1.8966,-1.9196,-1.9397,-1.9656,-1.9858,-1.9888,-1.9861,-2.0075,-2.021,-2.0299,-2.0379,-2.0455,-2.0519,-2.0495,-1.9211,-1.8002,-1.8003,-1.6637,-1.5389,-1.539,-1.5337,-1.5024,-1.414,-1.3883,-1.3335,-1.2026,-1.0869,-1.0082,-0.9875,-0.9472,-0.9208,-0.9348,-0.9184,-0.8852,-0.8298,-0.8357,-0.7958,-0.6909,-0.6154,-0.5103,-0.3732,-0.3142,-0.2374,-0.1357,-0.0918,-0.0762,-0.0907,-0.1552,-0.2022,-0.2283,-0.2752,-0.3186,-0.2662,0.0,-0.2905,-0.2356,-0.1168,0.0069,0.0,0.1765,0.2686,0.328,0.0,0.3699,0.3963,0.4179,0.4385,0.0,0.0,0.0,0.0,0.0,0.0,0.0,0.0,0.0,0.0,0.0,0.0,0.0,0.0,-1.1848,-0.9725,-1.0521,-1.1252,-1.1718,-1.1775,-1.2062,-1.2538,-1.1831,-1.1079,-1.0327,-0.9581,-0.9023,-0.8634,-0.8298,-0.8262,0.0,0.0,0.0,-0.9583,-1.0218,-1.1272,-1.2671,-1.3937,-1.5331,-1.6657,-1.761,-1.8257,-1.8698,-1.8948,-1.915,-1.9316,-1.9572,-1.9776,-1.9912,-2.0087,-2.0071,-2.0079,-2.0205,-2.0308,-2.0373,-2.047,-2.0501,-2.0508,-2.0546,-1.9257,-1.8007,-1.8006,-1.664,-1.539,-1.5383,-1.5407,-1.5254,-1.4936,-1.4813,-1.4654,-1.4259,-1.3838,-1.2529,-0.9652,-0.9099,-0.9039,-0.9143,-0.8942,-0.8748,-0.8677,-0.7401,-0.6577,-0.6453,-0.5639,-0.4655,-0.3505,-0.2765,-0.2144,-0.169,-0.1669,-0.1771,-0.1943,-0.2404,-0.2764,-0.3056,-0.3471,-0.3818,-0.2213,-0.2126,-0.2171,-0.2107,-0.1455,-0.0674,-0.0058,0.0401,0.0,0.0,0.0,0.0,0.0,0.0,0.0,0.0,0.0,0.0,0.0,0.0,0.0,0.0,0.0,0.0,0.0,0.0,0.0,0.0,0.0,-1.2673,-1.093,-1.1031,-1.1379,-1.1792,-1.204,-1.2397,-1.2751,-1.2334,-1.1563,-1.0501,-0.9736,-0.8971,-0.8282,-0.8271,-0.8381,0.0,0.0,0.0,-1.0171,-1.0749,-1.2051,-1.3753,-1.485,-1.6217,-1.7646,-1.8372,-1.8789,-1.9014,-1.9214,-1.9456,-1.9663,-1.9828,-1.9983,-2.0173,-2.0276,-2.0254,-2.0269,-2.0358,-2.0412,-2.0463,-2.0507,-2.0507,-2.05,-2.0542,-1.9256,-1.8007,-1.8008,-1.664,-1.5387,-1.5419,-1.5394,-1.5299,-1.5196,-1.5068,-1.4987,-1.4921,-1.4736,-1.376,-1.1451,-0.9791,-0.8863,-0.8996,-0.8771,-0.8413,-0.7936,-0.7043,-0.6412,-0.6171,-0.5313,-0.4283,-0.3129,-0.246,-0.2085,-0.2038,-0.2274,-0.254,-0.2807,-0.3184,-0.3492,-0.3717,-0.4052,-0.4548,-0.2756,-0.2307,-0.2192,-0.3023,-0.2825,-0.227,-0.169,0.0,0.0,0.0,0.0,0.0,0.0,0.0,0.0,0.0,0.0,0.0,0.0,0.0,0.0,0.0,0.0,0.0,0.0,0.0,0.0,0.0,0.0,-1.2953,-1.2375,-1.1538,-1.1378,-1.2054,-1.2146,-1.2267,-1.2395,-1.2666,-1.2063,-1.0584,-0.9861,-0.8959,-0.789,-0.8228,-0.8511,-0.873,0.0,0.0,-1.0843,-1.1432,-1.2958,-1.4978,-1.5575,-1.6973,-1.8681,-1.8895,-1.9097,-1.9301,-1.9448,-1.9676,-1.9962,-2.0002,-2.016,-2.0341,-2.037,-2.039,-2.0422,-2.0445,-2.0495,-2.0498,-2.0482,-2.0482,-2.0447,-2.0328,-1.9126,-1.7961,-1.7845,-1.6555,-1.538,-1.5377,-1.5343,-1.5268,-1.5145,-1.4965,-1.4823,-1.4755,-1.4578,-1.4232,-1.3682,-1.0737,-0.8771,-0.8897,-0.8665,-0.8072,-0.6942,-0.6809,-0.6534,-0.5924,-0.4991,-0.3909,-0.2738,-0.2351,-0.2256,-0.2466,-0.2845,-0.3224,-0.3547,-0.3837,-0.4091,-0.4311,-0.4672,-0.5303,-0.3676,-0.3661,-0.4347,-0.6914,-0.6617,-0.5398,-0.4377,0.0,0.0,0.0,0.0,0.0,0.0,0.0,0.0,0.0,0.0,0.0,0.0,0.0,0.0,0.0,0.0,0.0,0.0,0.0,0.0,0.0,0.0,-1.2807,-1.2098,-1.1644,-1.131,-1.1055,-1.1219,-1.163,-1.2314,-1.3187,-1.2909,-1.1482,-1.0878,-0.9927,-0.8719,-0.9052,-0.9361,-0.9658,0.0,-1.109,-1.1725,-1.2235,-1.3691,-1.5582,-1.6028,-1.7374,-1.9061,-1.9256,-1.9448,-1.9638,-1.9839,-2.0003,-2.0172,-2.0225,-2.0292,-2.0394,-2.0408,-2.0416,-2.0377,-2.0332,-2.0371,-2.0409,-2.0405,-2.0405,-2.0258,-1.9552,-1.8632,-1.7743,-1.7049,-1.6116,-1.5369,-1.5332,-1.5335,-1.5352,-1.5218,-1.4849,-1.4522,-1.4405,-1.4255,-1.404,-1.3652,-1.083,-0.8886,-0.8908,-0.8665,-0.8138,-0.7207,-0.601,-0.5341,-0.541,-0.4379,-0.3442,-0.2725,-0.2795,-0.2965,-0.3224,-0.3576,-0.3882,-0.4178,-0.4385,-0.4555,-0.4728,-0.556,-0.6043,-0.4465,-0.4555,-0.5399,-0.8478,-0.8527,-0.7677,-0.7225,-0.6997,0.0,0.0,0.0,0.0,0.0,0.0,0.0,0.0,0.0,0.0,0.0,0.0,0.0,0.0,0.0,0.0,0.0,0.0,0.0,0.0,0.0,0.0,-1.2604,-1.1738,-1.1247,-1.1288,-1.1119,-1.1475,-1.2342,-1.3221,-1.2984,-1.1584,-1.1068,-1.0033,-0.8542,-0.9318,-0.9793,-1.0053,0.0,-1.2013,-1.2597,-1.3446,-1.4759,-1.6276,-1.7044,-1.8192,-1.9439,-1.965,-1.9797,-1.9941,-2.0058,-2.0149,-2.0261,-2.0309,-2.0369,-2.039,-2.0351,-2.0285,-2.0234,-2.0164,-2.0219,-2.0283,-2.0283,-2.0283,-2.0225,-1.9879,-1.9119,-1.8362,-1.7893,-1.6953,-1.6055,-1.5468,-1.5332,-1.5236,-1.4871,-1.4585,-1.4319,-1.4109,-1.3941,-1.3165,-1.1294,-0.9743,-0.8794,-0.8794,-0.8677,-0.8254,-0.7376,-0.5928,-0.4877,-0.4517,-0.3878,-0.34,-0.3039,-0.3344,-0.3637,-0.389,-0.4171,-0.4425,-0.4563,-0.4705,-0.5047,-0.5576,-0.6015,-0.6692,-0.4139,-0.4755,-0.5606,-0.8131,0.0,-0.9241,-0.9572,-0.983,0.0,0.0,0.0,0.0,0.0,0.0,0.0,0.0,0.0,0.0,0.0,0.0,0.0,0.0,0.0,0.0,0.0,0.0,0.0,0.0,0.0,0.0,-1.2983,-1.169,-1.1138,-1.1599,-1.0949,-1.106,-1.2022,-1.2863,-1.2822,-1.1999,-1.1623,-1.0632,-0.9099,-1.009,-1.0599,-1.0809,-1.2141,-1.2991,-1.3478,-1.4559,-1.5719,-1.6838,-1.7881,-1.8902,-1.9821,-2.001,-2.0096,-2.015,-2.0237,-2.0298,-2.0338,-2.038,-2.0389,-2.0358,-2.0292,-2.0172,-2.0028,-1.9941,-1.9982,-2.0031,-2.0096,-2.0114,-2.0063,-1.9735,-1.9134,-1.8506,-1.8009,-1.7131,-1.6285,-1.5509,-1.5229,-1.4966,-1.4474,-1.4293,-1.4109,-1.3843,-1.3655,-1.2397,-0.9257,-0.8736,-0.8652,-0.8677,-0.8748,-0.8268,-0.6943,-0.5749,-0.4796,-0.4113,-0.3866,-0.3785,-0.3855,-0.4223,-0.4624,-0.4989,-0.5201,-0.5345,-0.539,-0.5468,-0.5817,-0.6473,-0.6663,-0.7517,-0.1627,-0.369,-0.4772,-0.5302,-0.7547,0.0,-1.0748,-1.0938,0.0,-1.0796,0.0,0.0,0.0,0.0,0.0,0.0,0.0,0.0,0.0,0.0,0.0,0.0,0.0,0.0,0.0,0.0,0.0,0.0,0.0,0.0,-1.2703,-1.1466,-1.092,-1.1308,-1.0105,-0.9934,-1.0986,-1.1801,-1.2645,-1.3448,-1.3213,-1.2594,-1.1659,-1.216,-1.2493,-1.2669,-1.346,-1.3931,-1.4309,-1.5328,-1.6282,-1.7267,-1.8266,-1.9221,-2.0075,-2.025,-2.0296,-2.0298,-2.0367,-2.0371,-2.039,-2.0416,-2.037,-2.0293,-2.0157,-2.0011,-1.9899,-1.9772,-1.9643,-1.9587,-1.9797,-1.9866,-1.953,-1.805,-1.7636,-1.7218,-1.5766,-1.5393,-1.5334,-1.5327,-1.4912,-1.4488,-1.4177,-1.4034,-1.3828,-1.3496,-1.3396,-1.2298,-0.9122,-0.8579,-0.8554,-0.8677,-0.8919,-0.803,-0.5411,-0.5089,-0.4966,-0.4924,-0.4669,-0.4795,-0.5419,-0.5661,-0.6163,-0.6994,-0.706,-0.7123,-0.7121,-0.7201,-0.7213,-0.7232,-0.797,-0.8718,0.0745,-0.1789,-0.3761,-0.4725,-0.7538,0.0,0.0,-1.1297,-1.1829,-1.1299,-1.1275,0.0,0.0,0.0,0.0,0.0,0.0,0.0,0.0,0.0,0.0,0.0,0.0,0.0,0.0,0.0,0.0,0.0,0.0,0.0,-1.222,-1.1503,-1.1043,-1.1011,-1.0088,-0.989,-1.054,-1.0785,-1.1409,-1.2416,-1.3063,-1.2927,-1.2121,-1.2695,-1.3036,-1.3206,-1.4021,-1.4494,-1.4737,-1.5705,-1.6643,-1.7584,-1.9112,-1.9911,-2.0257,-2.0337,-2.0359,-2.0365,-2.0389,-2.0385,-2.035,-2.0274,-2.0212,-2.0088,-1.9898,-1.9768,-1.9625,-1.9531,-1.9418,-1.9368,-1.9545,-1.9625,-1.9376,-1.8309,-1.8068,-1.782,-1.6823,-1.6523,-1.6074,-1.48,-1.432,-1.4026,-1.3717,-1.3511,-1.3278,-1.2885,-1.294,-1.1926,-0.8847,-0.8415,-0.8428,-0.8554,-0.9068,-0.8589,-0.6552,-0.6353,-0.632,-0.6246,-0.5767,-0.5563,-0.5781,-0.624,-0.6645,-0.7004,-0.6996,-0.7002,-0.7002,-0.7008,-0.7493,-0.8442,-0.8723,-0.9456,0.1613,-0.1154,-0.3582,-0.4647,0.0,0.0,-1.0156,-1.1237,-1.2051,-1.1406,-1.1246,0.0,0.0,0.0,0.0,0.0,0.0,0.0,0.0,0.0,0.0,0.0,0.0,0.0,0.0,0.0,0.0,0.0,0.0,0.0,0.0,-1.1442,-1.1098,-1.093,-1.0051,-0.966,-0.9847,-0.9825,-1.021,-1.0923,-1.1962,-1.2451,-1.2455,-1.2946,-1.3396,-1.3789,-1.4403,-1.4773,-1.4982,-1.5924,-1.6865,-1.7805,-1.9347,-1.9925,-1.9967,-2.0285,-2.0388,-2.0386,-2.0355,-2.0297,-2.0198,-2.0119,-1.9983,-1.9871,-1.9675,-1.9497,-1.9376,-1.9292,-1.9193,-1.9048,-1.8916,-1.9133,-1.9109,-1.8128,-1.7868,-1.7609,-1.6768,-1.6442,-1.5894,-1.426,-1.3778,-1.3544,-1.326,-1.3031,-1.2843,-1.2554,-1.1853,-1.064,-0.856,-0.8253,-0.8319,-0.8604,-0.9169,-0.9083,-0.7961,-0.7563,-0.7211,-0.6923,-0.6627,-0.6478,-0.6483,-0.6826,-0.7166,-0.747,-0.7423,-0.7407,-0.7389,-0.7671,-0.8308,-0.9312,-0.9576,-1.0305,0.0647,-0.2173,-0.4351,0.0,0.0,0.0,-1.0044,-1.0722,-1.135,-1.1205,0.0,-0.8594,-0.7995,0.0,0.0,0.0,0.0,0.0,0.0,0.0,0.0,0.0,0.0,0.0,0.0,0.0,0.0,0.0,0.0,0.0,0.0,-1.1171,-1.0989,-1.12,-0.9758,-0.8973,-0.8881,-0.8942,-0.9045,-0.9197,-1.0047,-1.1339,-1.2986,-1.3055,-1.3601,-1.4494,-1.4635,-1.479,-1.5057,-1.6,-1.6952,-1.7864,-1.8763,-1.9088,-1.9218,-2.0076,-2.0358,-2.0279,-2.0237,-2.0127,-1.9983,-1.9834,-1.976,-1.9638,-1.9448,-1.9301,-1.9162,-1.9017,-1.8896,-1.861,-1.7825,-1.8336,-1.8697,-1.714,-1.6747,-1.6287,-1.4887,-1.4533,-1.4307,-1.3728,-1.3346,-1.3013,-1.2829,-1.262,-1.2463,-1.2463,-1.0081,-0.8293,-0.8293,-0.8174,-0.8293,-0.883,-0.9204,-0.9358,-0.9294,-0.832,-0.7435,-0.6747,-0.7208,-0.7607,-0.7793,-0.762,-0.7883,-0.8684,-0.8694,-0.8705,-0.8705,-0.95,-0.9883,-0.9831,-1.0553,-1.126,-0.1153,-0.3231,0.0,-0.7992,0.0,0.0,0.0,-1.0592,0.0,0.0,0.0,-0.8192,0.0,0.0,0.0,0.0,0.0,0.0,0.0,0.0,0.0,0.0,0.0,0.0,0.0,0.0,0.0,0.0,0.0,0.0,0.0,-1.1285,-1.1156,-1.0783,-0.9843,-0.904,-0.8325,-0.7767,-0.7451,-0.7443,-0.7707,-0.9133,-1.1541,-1.1628,-1.1961,-1.2483,-1.3201,-1.3667,-1.4085,-1.5715,-1.6586,-1.7029,-1.8512,-1.9088,-1.9141,-1.9943,-2.0198,-2.0065,-1.9917,-1.9763,-1.9601,-1.9457,-1.9287,-1.9172,-1.9031,-1.8895,-1.8753,-1.868,-1.8178,-1.7627,-1.7362,-1.7099,-1.6641,-1.5793,-1.5594,-1.5324,-1.4392,-1.4101,-1.3856,-1.3329,-1.3049,-1.2829,-1.262,-1.2282,-1.1394,-0.9538,-0.856,-0.8012,-0.8012,-0.8068,-0.8245,-0.8579,-0.8897,-0.9092,-0.9154,-0.8937,-0.8625,-0.8147,-0.8031,-0.7815,-0.7384,-0.7691,-0.7963,-0.819,-0.8214,-0.8464,-0.8992,-0.9286,-0.9906,-1.0844,-1.1118,-1.1848,-0.2901,-0.4157,0.0,-0.9325,-1.014,-0.9987,-0.9696,0.0,0.0,0.0,0.0,0.0,0.0,0.0,0.0,0.0,0.0,0.0,0.0,0.0,0.0,0.0,0.0,0.0,0.0,0.0,0.0,0.0,0.0,0.0,0.0,-1.1164,-1.1174,-1.0778,-0.9946,-0.904,-0.8114,-0.7299,-0.6744,-0.6468,-0.6625,-0.764,-0.9417,-0.9853,-1.0373,-1.104,-1.224,-1.2951,-1.3409,-1.4993,-1.5724,-1.6013,-1.7723,-1.8357,-1.8461,-1.955,-2.0088,-2.016,-1.9688,-1.9573,-1.9638,-1.9134,-1.8911,-1.8789,-1.8643,-1.851,-1.8393,-1.8313,-1.7636,-1.688,-1.6624,-1.5894,-1.519,-1.4966,-1.4911,-1.4701,-1.3968,-1.3682,-1.3443,-1.3067,-1.2811,-1.2581,-1.2282,-1.1927,-1.0801,-0.8167,-0.7783,-0.7783,-0.7783,-0.7927,-0.8109,-0.8325,-0.8472,-0.8632,-0.8761,-0.8908,-0.8908,-0.8703,-0.8371,-0.7934,-0.7429,-0.77,-0.7854,-0.7826,-0.8109,-0.8334,-0.8561,-0.9355,-1.0127,-1.081,-1.1745,-1.2634,-0.4381,0.0,0.0,-0.9431,-1.0071,0.0,-0.945,0.0,-0.8984,0.0,0.0,0.0,0.0,0.0,0.0,0.0,0.0,0.0,0.0,0.0,0.0,0.0,0.0,0.0,0.0,0.0,0.0,0.0,0.0,0.0,0.0,-1.091,-1.1052,-1.0982,-0.9999,-0.9033,-0.811,-0.7304,-0.663,-0.6062,-0.6401,-0.6722,-0.7005,-0.7872,-0.8861,-0.9983,-1.154,-1.2484,-1.3008,-1.4035,-1.4625,-1.5005,-1.661,-1.7283,-1.7548,-1.9061,-2.0019,-2.0394,-1.9595,-1.9578,-1.9789,-1.8998,-1.86,-1.8378,-1.8273,-1.8149,-1.7988,-1.7881,-1.7185,-1.6282,-1.5563,-1.4766,-1.4212,-1.4415,-1.4468,-1.428,-1.3615,-1.3312,-1.3105,-1.2848,-1.26,-1.2302,-1.1833,-1.1417,-1.0314,-0.792,-0.7559,-0.7574,-0.7589,-0.7739,-0.7899,-0.804,-0.8054,-0.8092,-0.8227,-0.8377,-0.8517,-0.8632,-0.828,-0.8,-0.7826,-0.7782,-0.7708,-0.7589,-0.8257,-0.8348,-0.7855,-0.9648,-1.0387,-1.0212,-1.2286,-1.3382,-0.4454,-0.677,0.0,0.0,-0.9804,-0.9478,-0.9296,-0.8915,0.0,0.0,0.0,0.0,0.0,0.0,0.0,0.0,0.0,0.0,0.0,0.0,0.0,0.0,0.0,0.0,0.0,0.0,0.0,0.0,0.0,0.0,-1.0396,-1.0667,-1.0791,-1.0767,-0.977,-0.8847,-0.8011,-0.691,-0.6131,0.0,-0.5665,-0.5774,-0.6021,-0.6849,-0.787,-0.9046,-1.0348,-1.1497,-1.2521,-1.36,-1.4514,-1.5355,-1.6423,-1.7224,-1.7932,-1.936,-1.992,-2.0008,-2.0235,-1.9886,-1.9308,-1.9039,-1.8459,-1.7871,-1.7827,-1.7693,-1.7455,-1.6887,-1.6055,-1.5199,-1.4483,-1.3733,-1.3151,-1.3244,-1.3389,-1.3446,-1.3227,-1.3159,-1.3013,-1.262,-1.2415,-1.2127,-1.1645,-0.9744,-0.803,-0.7304,-0.7189,-0.7253,-0.7437,-0.7498,-0.7529,-0.753,-0.7665,-0.7739,-0.7739,-0.8009,-0.8205,-0.8214,-0.8012,-0.8109,-0.8693,-0.8397,-0.7983,-0.7452,-0.8262,-0.8799,-0.9043,-0.9559,-1.0357,-1.1422,-1.1923,-1.2727,-0.4465,0.0,0.0,-1.0039,0.0,-0.9464,-0.9202,-0.8762,0.0,0.0,0.0,0.0,0.0,0.0,0.0,0.0,0.0,0.0,0.0,0.0,0.0,0.0,0.0,0.0,0.0,0.0,0.0,0.0,0.0,-0.9944,-1.0273,-1.0572,-1.067,-1.0621,-0.9864,-0.8948,-0.7896,-0.7019,-0.6251,-0.5599,-0.5624,-0.5789,-0.6109,-0.6741,-0.7571,-0.8526,-0.9772,-1.0851,-1.1794,-1.2869,-1.3976,-1.5011,-1.5936,-1.6753,-1.7647,-1.9082,-1.9787,-2.0022,-2.0164,-1.9894,-1.9375,-1.8857,-1.8133,-1.7415,-1.7368,-1.7248,-1.7036,-1.6645,-1.5683,-1.47,-1.4379,-1.3489,-1.2678,-1.2786,-1.2904,-1.2998,-1.2968,-1.298,-1.2829,-1.2423,-1.2159,-1.1463,-0.9821,-0.8216,-0.7137,-0.7023,-0.7072,-0.7153,-0.7237,-0.7237,-0.7237,-0.7237,-0.73,-0.7406,-0.7513,-0.765,-0.7753,-0.7753,-0.8375,-0.8891,-0.9298,-0.9271,-0.8874,-0.8092,-0.8706,-0.8849,-0.845,-0.9831,-1.0912,-1.1667,-1.1776,-1.2867,-0.4301,0.0,-0.9863,-0.9961,-0.9849,0.0,-0.9134,-0.8716,0.0,0.0,0.0,0.0,0.0,0.0,0.0,0.0,0.0,0.0,0.0,0.0,0.0,0.0,0.0,0.0,0.0,0.0,0.0,0.0,0.0,-1.0122,-1.0374,-1.0597,-1.067,-1.0548,-0.9945,-0.9082,-0.7874,-0.7225,-0.6504,-0.5716,-0.5816,-0.6071,-0.6501,-0.7032,-0.7576,-0.8193,-0.947,-1.0392,-1.1081,-1.2263,-1.3437,-1.454,-1.5488,-1.6336,-1.7239,-1.8733,-1.9621,-2.0068,-2.0063,-1.983,-1.9479,-1.8673,-1.7792,-1.6977,-1.6901,-1.6805,-1.6644,-1.6459,-1.5443,-1.4421,-1.4365,-1.3388,-1.2495,-1.2664,-1.2729,-1.2754,-1.2799,-1.2748,-1.2581,-1.22,-1.1493,-1.0201,-0.7695,-0.6996,-0.6807,-0.6807,-0.6881,-0.6963,-0.7023,-0.7055,-0.7088,-0.7104,-0.7472,-0.7803,-0.8008,-0.8075,-0.8109,-0.8159,-0.9398,-1.0099,-1.0061,-1.0171,-0.9928,-0.9302,-0.9561,-0.918,-0.8121,-1.0421,-1.1556,-1.1556,-1.2178,-1.37,0.0,0.0,-0.9751,0.0,-0.9765,-0.9542,0.0,0.0,0.0,0.0,0.0,0.0,0.0,0.0,0.0,0.0,0.0,0.0,0.0,0.0,0.0,0.0,0.0,0.0,0.0,0.0,0.0,0.0,-0.9558,-1.0616,-1.1146,-1.0934,-1.0767,-1.0694,-0.9868,-0.8981,-0.8088,-0.7082,-0.6289,-0.5707,-0.5643,-0.5937,-0.6525,-0.7224,-0.7666,-0.7936,-0.9122,-0.9974,-1.0631,-1.2351,-1.3662,-1.4756,-1.5615,-1.6528,-1.7519,-1.8941,-1.9538,-1.975,-2.0747,-2.0267,-1.9139,-1.8757,-1.7697,-1.649,-1.6409,-1.6301,-1.6068,-1.5426,-1.4719,-1.4012,-1.3444,-1.2756,-1.2313,-1.2542,-1.2593,-1.2598,-1.2779,-1.253,-1.2179,-1.1927,-0.9619,-0.7506,-0.6825,-0.6535,-0.6395,-0.6395,-0.6413,-0.6483,-0.6638,-0.6824,-0.6974,-0.7104,-0.8961,-1.0322,-1.0571,-1.0814,-1.103,-1.1219,-1.1493,-1.1635,-1.1499,-1.0842,-1.0703,-1.1219,-1.097,-1.0897,-1.0944,-1.1511,-1.1747,-1.1806,-1.4154,-1.5469,-0.381,-0.6683,-0.9595,0.0,-0.9713,-0.9465,-0.8951,0.0,0.0,0.0,0.0,0.0,0.0,0.0,0.0,0.0,0.0,0.0,0.0,0.0,0.0,0.0,0.0,0.0,0.0,0.0,0.0,0.0,-0.9504,-1.0567,-1.1527,-1.1256,-1.0977,-1.0767,-0.9868,-0.8977,-0.8037,-0.6862,-0.5906,-0.5214,-0.5372,-0.5765,-0.6397,-0.7077,-0.7733,-0.8406,-0.9293,-1.0136,-1.1017,-1.2086,-1.3321,-1.4582,-1.5249,-1.6041,-1.6965,-1.8427,-1.9029,-1.9222,-2.0416,-1.9941,-1.8738,-1.8529,-1.7417,-1.6136,-1.6024,-1.5911,-1.5737,-1.5381,-1.4573,-1.3755,-1.3503,-1.275,-1.2086,-1.2323,-1.2427,-1.2416,-1.213,-1.1931,-1.1266,-0.9523,-0.7895,-0.6706,-0.6343,-0.6129,-0.6057,-0.6106,-0.6236,-0.6378,-0.6569,-0.6672,-0.7281,-0.8741,-0.9864,-1.0645,-1.1076,-1.1466,-1.1711,-1.179,-1.1906,-1.1927,-1.1863,-1.1606,-1.1576,-1.1811,-1.1593,-1.1549,-1.1667,-1.1747,-1.1884,-1.2073,-1.4622,-1.5799,0.0,0.0,-0.8378,-0.9448,-0.9559,-0.9313,0.0,0.0,0.0,0.0,0.0,0.0,0.0,0.0,0.0,0.0,0.0,0.0,0.0,0.0,0.0,0.0,0.0,0.0,0.0,0.0,0.0,0.0,-0.9738,-1.0664,-1.1747,-1.1571,-1.1279,-1.091,-0.9919,-0.8981,-0.8009,-0.6605,-0.5547,-0.4832,-0.5151,-0.5641,-0.6275,-0.688,-0.7705,-0.869,-0.9485,-1.0372,-1.1322,-1.2099,-1.3146,-1.4283,-1.4902,-1.5509,-1.6258,-1.7664,-1.8312,-1.8685,-1.9743,-1.9462,-1.8563,-1.8284,-1.7212,-1.6038,-1.5683,-1.5507,-1.5389,-1.5299,-1.4484,-1.366,-1.3656,-1.2743,-1.1876,-1.2054,-1.2207,-1.2147,-1.145,-1.1239,-1.034,-0.745,-0.6638,-0.6272,-0.5834,-0.5652,-0.5614,-0.5834,-0.6057,-0.6426,-0.7149,-0.736,-0.821,-1.0191,-1.0424,-1.0645,-1.1123,-1.1505,-1.1747,-1.1776,-1.1863,-1.1906,-1.1906,-1.2075,-1.2148,-1.2054,-1.1906,-1.1833,-1.1906,-1.1906,-1.1991,-1.222,-1.3981,-1.5139,0.0,-0.4228,0.0,-0.8602,0.0,0.0,0.0,0.0,0.0,0.0,0.0,0.0,0.0,0.0,0.0,0.0,0.0,0.0,0.0,0.0,0.0,0.0,0.0,0.0,0.0,0.0,0.0,0.0,-1.0594,-1.1256,-1.1768,-1.1768,-1.1549,-1.1099,-1.0045,-0.9035,-0.8009,-0.6303,-0.5264,-0.4884,-0.5232,-0.5641,-0.6121,-0.682,-0.753,-0.8319,-0.9609,-1.0416,-1.0964,-1.2662,-1.3475,-1.3822,-1.4803,-1.536,-1.5654,-1.6638,-1.7456,-1.8126,-1.8827,-1.9007,-1.8852,-1.8085,-1.7171,-1.6237,-1.5471,-1.5086,-1.4902,-1.4777,-1.4281,-1.3769,-1.3657,-1.2611,-1.1659,-1.179,-1.1841,-1.1645,-1.0883,-1.0548,-0.9575,-0.6865,-0.6075,-0.5689,-0.5233,-0.4981,-0.5,-0.5444,-0.5689,-0.6587,-0.8705,-0.9409,-0.9969,-1.0619,-1.0791,-1.0982,-1.1285,-1.1482,-1.1637,-1.1719,-1.182,-1.1906,-1.1906,-1.2033,-1.2148,-1.219,-1.1991,-1.1991,-1.219,-1.219,-1.219,-1.221,-1.2078,-1.3346,0.0,0.0,0.0,-0.8069,-0.8773,0.0,0.0,0.0,0.0,0.0,0.0,0.0,0.0,0.0,0.0,0.0,0.0,0.0,0.0,0.0,0.0,0.0,0.0,0.0,0.0,0.0,0.0,0.0,0.0,-1.2003,-1.2459,-1.236,-1.1963,-1.1238,-1.0118,-0.859,-0.6755,-0.5875,-0.5295,-0.496,-0.5295,-0.5703,-0.6121,-0.6717,-0.7493,-0.845,-0.966,-1.0501,-1.1092,-1.2332,-1.319,-1.3816,-1.445,-1.4814,-1.5113,-1.5997,-1.6863,-1.7736,-1.8425,-1.8698,-1.8668,-1.8229,-1.7232,-1.6163,-1.5916,-1.5389,-1.4808,-1.4624,-1.4339,-1.3951,-1.3262,-1.219,-1.1164,-1.0688,-1.0445,-1.0147,-0.9478,-0.9449,-0.9153,-0.7783,-0.7254,-0.695,-0.6797,-0.6538,-0.6546,-0.7153,-0.7453,-0.7943,-0.8973,-0.9579,-1.0021,-1.0399,-1.0718,-1.0982,-1.1169,-1.133,-1.1466,-1.1556,-1.1667,-1.1725,-1.1768,-1.1906,-1.1991,-1.2012,-1.1906,-1.1884,-1.1949,-1.2588,-1.2558,-1.1949,-1.1711,-1.2981,-0.4115,0.0,0.0,0.0,0.0,0.0,0.0,0.0,0.0,0.0,0.0,0.0,0.0,0.0,0.0,0.0,0.0,0.0,0.0,0.0,0.0,0.0,0.0,0.0,0.0,0.0,0.0,0.0,0.0,0.0,-1.3123,-1.2871,-1.2137,-1.0833,-0.9641,-0.8116,-0.6167,-0.5828,-0.5484,-0.5246,-0.5515,-0.5797,-0.6121,-0.6656,-0.7433,-0.8391,-0.9509,-1.0428,-1.1224,-1.2209,-1.3048,-1.3615,-1.3986,-1.4273,-1.4552,-1.5198,-1.6198,-1.7238,-1.7846,-1.8355,-1.8678,-1.8373,-1.7499,-1.6546,-1.6208,-1.5422,-1.4588,-1.4374,-1.4337,-1.411,-1.3323,-1.1912,-1.0545,-0.9918,-0.9473,-0.9042,-0.8432,-0.8572,-0.86,-0.8004,-0.7686,-0.751,-0.7411,-0.7303,-0.7373,-0.7947,-0.8262,-0.8656,-0.9174,-0.9552,-0.9892,-1.0224,-1.0548,-1.0815,-1.0982,-1.1146,-1.1285,-1.1399,-1.146,-1.1549,-1.1593,-1.1703,-1.1747,-1.1776,-1.1733,-1.1689,-1.1615,-1.2668,-1.3046,-1.2789,-1.2668,-1.3456,0.0,0.0,0.0,0.0,0.0,0.0,0.0,0.0,0.0,0.0,0.0,0.0,0.0,0.0,0.0,0.0,0.0,0.0,0.0,0.0,0.0,0.0,0.0,0.0,0.0,0.0,0.0,0.0,-1.4978,-1.3495,-1.3636,-1.3142,-1.1923,-0.9868,-0.8688,-0.7598,-0.6518,-0.6106,-0.5842,-0.5718,-0.5842,-0.5998,-0.6137,-0.6673,-0.731,-0.8073,-0.9139,-1.0287,-1.1388,-1.2433,-1.3,-1.3216,-1.348,-1.3749,-1.4019,-1.4273,-1.5336,-1.6705,-1.6981,-1.7913,-1.8893,-1.8404,-1.7913,-1.732,-1.6388,-1.5219,-1.4268,-1.4046,-1.4111,-1.4203,-1.3841,-1.1814,-0.9814,-0.9526,-0.9015,-0.8404,-0.7802,-0.7918,-0.7976,-0.7314,-0.7196,-0.7107,-0.6842,-0.7035,-0.7314,-0.7627,-0.7996,-0.8516,-0.939,-0.9497,-0.9658,-1.0123,-1.0299,-1.0498,-1.0791,-1.0982,-1.1123,-1.1192,-1.1307,-1.1399,-1.1399,-1.146,-1.1482,-1.1489,-1.1489,-1.1421,-1.1285,-1.2364,-1.3515,-1.4752,-1.4749,-1.462,-0.6868,0.0,0.0,0.0,0.0,0.0,0.0,0.0,0.0,0.0,0.0,0.0,0.0,0.0,0.0,0.0,0.0,0.0,0.0,0.0,0.0,0.0,0.0,0.0,0.0,0.0,0.0,0.0,-1.6016,-1.4356,-1.4392,-1.2992,-1.147,-0.9916,-0.8666,-0.7521,-0.6443,-0.6354,-0.623,-0.5999,-0.623,-0.638,-0.6463,-0.6997,-0.7723,-0.856,-0.964,-1.0623,-1.1584,-1.2259,-1.2685,-1.2931,-1.3232,-1.3446,-1.3682,-1.3941,-1.4965,-1.6316,-1.6564,-1.7523,-1.8644,-1.8598,-1.7936,-1.7301,-1.7665,-1.6166,-1.417,-1.3581,-1.3446,-1.3438,-1.3094,-1.1149,-0.9232,-0.8933,-0.8404,-0.7831,-0.7432,-0.7403,-0.7432,-0.7225,-0.7035,-0.6902,-0.6811,-0.7035,-0.7314,-0.7627,-0.8347,-0.896,-0.9313,-0.9499,-0.9659,-0.9969,-1.0199,-1.0424,-1.0645,-1.0767,-1.0839,-1.091,-1.1005,-1.1099,-1.1192,-1.1233,-1.1285,-1.1285,-1.1239,-1.1123,-1.0958,-1.2206,-1.3039,-1.3431,-1.3862,-1.404,0.0,0.0,0.0,0.0,0.0,0.0,0.0,-0.7413,0.0,0.0,0.0,0.0,0.0,0.0,0.0,0.0,0.0,0.0,0.0,0.0,0.0,0.0,0.0,0.0,0.0,-1.5729,-1.6619,-1.753,-1.594,-1.4722,-1.4209,-1.2556,-1.108,-0.9939,-0.8756,-0.7658,-0.6704,-0.6731,-0.6677,-0.6468,-0.6677,-0.6835,-0.6888,-0.7382,-0.8068,-0.8925,-0.9818,-1.0672,-1.1505,-1.2077,-1.2473,-1.278,-1.2955,-1.3163,-1.3369,-1.3607,-1.4541,-1.5676,-1.597,-1.7163,-1.8517,-1.8567,-1.819,-1.7796,-1.8338,-1.6345,-1.3715,-1.3163,-1.299,-1.292,-1.2544,-1.1295,-1.001,-0.9638,-0.9152,-0.8496,-0.7433,-0.7196,-0.7166,-0.7065,-0.6794,-0.6629,-0.6781,-0.7125,-0.751,-0.7744,-0.8432,-0.8987,-0.9232,-0.9446,-0.9633,-0.9816,-1.025,-1.0586,-1.0742,-1.0844,-1.0947,-1.0945,-1.0854,-1.0839,-1.0934,-1.1005,-1.1029,-1.1029,-1.0982,-1.1003,-1.1131,-1.2019,-1.2816,-1.3477,-1.3526,-1.4053,-0.7881,-0.8507,0.0,0.0,0.0,0.0,-0.8186,-0.8148,-0.8392,0.0,0.0,0.0,0.0,0.0,0.0,0.0,0.0,0.0,0.0,0.0,0.0,0.0,0.0,0.0,-1.4949,-1.5047,-1.5093,-1.5113,-1.5156,-1.4665,-1.3409,-1.2041,-1.0862,-0.9967,-0.884,-0.7895,-0.7115,-0.7127,-0.7082,-0.7024,-0.717,-0.7264,-0.7356,-0.7767,-0.8388,-0.9171,-0.9797,-1.0589,-1.1394,-1.1909,-1.233,-1.2674,-1.278,-1.292,-1.3094,-1.3301,-1.4046,-1.499,-1.5227,-1.6592,-1.8243,-1.8422,-1.8478,-1.8344,-1.7988,-1.5628,-1.3025,-1.2674,-1.2603,-1.2532,-1.215,-1.1734,-1.1325,-1.093,-1.0424,-0.9498,-0.7599,-0.7196,-0.7107,-0.6811,-0.6507,-0.6415,-0.6751,-0.7273,-0.7715,-0.7898,-0.8298,-0.8739,-0.9124,-0.9339,-0.9552,-0.9762,-1.0368,-1.0833,-1.0945,-1.1079,-1.116,-1.116,-1.0766,-1.0597,-1.0645,-1.0718,-1.0767,-1.0715,-1.067,-1.0893,-1.1508,-1.1723,-1.2702,-1.4235,-1.3693,-1.4486,-1.0754,-1.085,-1.0406,-0.7986,0.0,0.0,-0.9095,-0.911,-0.9105,0.0,0.0,0.0,0.0,0.0,0.0,0.0,0.0,0.0,0.0,0.0,0.0,0.0,0.0,0.0,-1.4806,-1.4883,-1.4827,-1.4576,-1.4562,-1.4101,-1.297,-1.2179,-1.1281,-1.0247,-0.8752,-0.7697,-0.7091,-0.7153,-0.7141,-0.7078,-0.7203,-0.7395,-0.7624,-0.821,-0.8746,-0.9337,-1.0301,-1.1047,-1.1579,-1.1982,-1.2294,-1.2473,-1.2709,-1.2826,-1.2885,-1.3129,-1.3848,-1.4628,-1.4251,-1.5184,-1.6756,-1.8093,-1.8282,-1.7502,-1.4684,-1.3107,-1.2222,-1.1844,-1.1991,-1.2113,-1.1734,-1.1325,-1.093,-1.0525,-0.9308,-0.8033,-0.7359,-0.7196,-0.7047,-0.649,-0.6337,-0.6415,-0.6751,-0.7065,-0.7491,-0.8062,-0.8404,-0.8739,-0.9092,-0.9232,-0.942,-0.9605,-1.0202,-1.061,-1.0749,-1.0833,-1.0888,-1.0888,-1.0509,-1.0299,-1.0374,-1.0449,-1.0449,-1.0323,-1.0198,-1.0377,-1.0886,-1.0935,-1.1965,-1.3927,-1.4486,-1.5156,-1.1863,-1.1755,-1.1278,-0.9693,0.0,0.0,0.0,-1.0112,-0.9853,-0.941,0.0,0.0,0.0,0.0,0.0,0.0,0.0,0.0,0.0,0.0,0.0,0.0,0.0,0.0,-1.4672,-1.4627,-1.4228,-1.3334,-1.3524,-1.3319,-1.2417,-1.1905,-1.1215,-1.0293,-0.8693,-0.7688,-0.7318,-0.7302,-0.7301,-0.7301,-0.7529,-0.7769,-0.8079,-0.8655,-0.916,-0.9601,-1.0329,-1.0943,-1.1431,-1.1822,-1.2077,-1.2294,-1.2639,-1.2745,-1.278,-1.2955,-1.3358,-1.3727,-1.3582,-1.4132,-1.506,-1.5684,-1.5724,-1.519,-1.3275,-1.2281,-1.1771,-1.1549,-1.1808,-1.2004,-1.1586,-1.0531,-0.9463,-0.9072,-0.8328,-0.7598,-0.7255,-0.7196,-0.7017,-0.6429,-0.6337,-0.649,-0.6751,-0.7065,-0.7462,-0.7918,-0.8319,-0.8656,-0.901,-0.9151,-0.9313,-0.9499,-1.0012,-1.0383,-1.0497,-1.0553,-1.0581,-1.0581,-1.0193,-0.9969,-1.0046,-1.0046,-1.0046,-0.9995,-1.0097,-1.0198,-1.0298,-1.0427,-1.1242,-1.2663,-1.4124,-1.488,0.0,0.0,0.0,0.0,0.0,-1.2003,0.0,0.0,0.0,-0.9509,0.0,0.0,0.0,0.0,0.0,0.0,0.0,0.0,0.0,0.0,0.0,0.0,0.0,0.0,-1.4039,-1.3671,-1.2981,-1.1909,-1.2126,-1.228,-1.2258,-1.1546,-1.0881,-1.0393,-0.8711,-0.7719,-0.7529,-0.7416,-0.7419,-0.7489,-0.7821,-0.8111,-0.8414,-0.8943,-0.9426,-0.9823,-1.0235,-1.0677,-1.1169,-1.1623,-1.1918,-1.215,-1.2508,-1.265,-1.2685,-1.2839,-1.285,-1.2896,-1.3129,-1.3404,-1.3607,-1.3301,-1.3163,-1.3025,-1.2709,-1.21,-1.1446,-1.1146,-1.126,-1.1434,-1.1036,-0.9585,-0.8111,-0.7793,-0.7705,-0.7598,-0.7255,-0.7166,-0.6975,-0.6399,-0.6429,-0.6612,-0.6781,-0.7095,-0.7432,-0.7773,-0.8205,-0.86,-0.8928,-0.912,-0.9232,-0.9343,-0.9817,-1.0154,-1.024,-1.0293,-1.0293,-1.0293,-0.9815,-0.9605,-0.9607,-0.9579,-0.9579,-0.9658,-0.9944,-0.9962,-0.9741,-0.993,-1.0646,-1.1808,-1.3386,-1.4093,0.0,0.0,0.0,0.0,-1.4441,0.0,0.0,0.0,-1.0875,-0.958,0.0,0.0,0.0,0.0,0.0,0.0,0.0,0.0,0.0,0.0,0.0,0.0,0.0,0.0,0.0,-1.0955,-1.0475,-1.0841,-1.0157,-1.0841,-1.3354,-1.1375,-1.0407,-1.0883,-0.8928,-0.7813,-0.7694,-0.7363,-0.7293,-0.7419,-0.7753,-0.8085,-0.8414,-0.8943,-0.9386,-0.9723,-1.0196,-1.0639,-1.1057,-1.1468,-1.1799,-1.215,-1.239,-1.2531,-1.2531,-1.265,-1.2709,-1.278,-1.3094,-1.3232,-1.3267,-1.3198,-1.299,-1.2674,-1.2294,-1.1881,-1.1198,-0.9792,-0.9408,-0.938,-0.9014,-0.8574,-0.8111,-0.7793,-0.7705,-0.7598,-0.7255,-0.7005,-0.6751,-0.6368,-0.6568,-0.6781,-0.6781,-0.6993,-0.7303,-0.7744,-0.8156,-0.8523,-0.8878,-0.9015,-0.9147,-0.9205,-0.9643,-0.9945,-1.0032,-0.9921,-0.9863,-0.9863,-0.9373,-0.9046,-0.8996,-0.8992,-0.9042,-0.9074,-0.9178,-0.9191,-0.9083,-0.9121,-1.0398,-1.274,-1.2986,-1.3065,0.0,0.0,0.0,0.0,0.0,0.0,-1.3674,0.0,-1.2209,0.0,0.0,0.0,0.0,0.0,0.0,0.0,0.0,0.0,0.0,0.0,0.0,0.0,0.0,0.0,0.0,0.0,0.0,0.0,-0.7016,-0.8285,-1.0342,-0.9804,-0.991,-1.0994,-0.8895,-0.7664,-0.7572,-0.7238,-0.7167,-0.7293,-0.7739,-0.8177,-0.8574,-0.914,-0.9475,-0.9724,-1.0117,-1.0409,-1.0621,-1.1035,-1.1356,-1.1616,-1.1982,-1.2294,-1.2508,-1.2639,-1.2709,-1.2745,-1.3094,-1.3198,-1.3198,-1.3198,-1.299,-1.2399,-1.0828,-1.0114,-0.9708,-0.9238,-0.9228,-0.9282,-0.896,-0.8656,-0.8347,-0.8082,-0.7851,-0.7598,-0.7255,-0.6975,-0.669,-0.6368,-0.6399,-0.6568,-0.6781,-0.6885,-0.7154,-0.7656,-0.8091,-0.8432,-0.8684,-0.8878,-0.896,-0.8933,-0.9057,-0.9135,-0.9135,-0.9027,-0.897,-0.8941,-0.8602,-0.8439,-0.8495,-0.8551,-0.8662,-0.8767,-0.8965,-0.8913,-0.8659,-0.9122,-0.9915,-1.0981,-1.1669,-1.1968,-1.2075,0.0,0.0,0.0,0.0,0.0,0.0,0.0,0.0,0.0,0.0,0.0,0.0,0.0,0.0,0.0,0.0,0.0,0.0,0.0,0.0,0.0,0.0,0.0,0.0,0.0,0.0,0.0,0.0,-0.6035,-0.8411,-0.8709,-0.9554,-1.1189,-0.8989,-0.7685,-0.7516,-0.7182,-0.707,-0.7209,-0.7827,-0.833,-0.8707,-0.93,-0.9613,-0.977,-1.0009,-1.021,-1.0311,-1.0603,-1.0905,-1.1228,-1.1527,-1.1991,-1.2425,-1.2639,-1.2709,-1.2745,-1.3094,-1.3267,-1.3335,-1.3232,-1.2528,-1.1358,-0.9529,-0.8795,-0.8656,-0.8878,-0.9097,-0.9205,-0.9015,-0.8712,-0.8432,-0.8254,-0.8025,-0.7715,-0.7285,-0.6975,-0.669,-0.6368,-0.6307,-0.6368,-0.6629,-0.6764,-0.7035,-0.748,-0.7918,-0.8262,-0.846,-0.8656,-0.8739,-0.8606,-0.8495,-0.8404,-0.8319,-0.8233,-0.8099,-0.7984,-0.7881,-0.7842,-0.7918,-0.8168,-0.8316,-0.8347,-0.8567,-0.8439,-0.8044,-0.8742,-0.9145,-0.9145,-1.0285,-1.0863,0.0,0.0,0.0,-1.4994,0.0,0.0,0.0,0.0,-1.2465,0.0,0.0,0.0,0.0,0.0,0.0,0.0,0.0,0.0,0.0,0.0,0.0,0.0,0.0,0.0,0.0,0.0,0.0,0.0,-0.1714,0.0,-0.9391,-0.8747,-0.9245,-1.1495,-0.9419,-0.8022,-0.7516,-0.7182,-0.707,-0.7223,-0.8034,-0.8488,-0.8707,-0.9366,-0.9757,-0.9877,-0.9917,-1.0083,-1.0303,-1.0331,-1.0621,-1.1078,-1.1115,-1.1527,-1.215,-1.2567,-1.2709,-1.2745,-1.3094,-1.3438,-1.3708,-1.3335,-1.1373,-0.9134,-0.8734,-0.8628,-0.86,-0.8628,-0.8628,-0.8628,-0.8628,-0.8404,-0.8226,-0.8197,-0.8197,-0.8004,-0.7344,-0.6975,-0.669,-0.6368,-0.6307,-0.6307,-0.6307,-0.6598,-0.6902,-0.7166,-0.7549,-0.7918,-0.8197,-0.8347,-0.8382,-0.8319,-0.8156,-0.7964,-0.7831,-0.7627,-0.7421,-0.7148,-0.7247,-0.7282,-0.7244,-0.7714,-0.7933,-0.7754,-0.7717,-0.7503,-0.707,-0.7672,-0.7955,-0.8008,-0.9145,-0.9666,0.0,0.0,-1.5086,-1.4871,0.0,0.0,0.0,0.0,0.0,0.0,0.0,0.0,0.0,0.0,0.0,0.0,0.0,0.0,0.0,0.0,0.0,0.0,0.0,0.0,0.0,0.0,0.0,0.0,0.1064,0.0,-0.6284,-0.7129,-0.8464,-1.0672,-0.9232,-0.8134,-0.7516,-0.7182,-0.7177,-0.7554,-0.8107,-0.8731,-0.9313,-0.9739,-0.9864,-0.9681,-0.9748,-0.9701,-0.9605,-0.9762,-1.006,-1.0467,-1.0833,-1.1099,-1.14,-1.2041,-1.2294,-1.2365,-1.2745,-1.2955,-1.2778,-1.1069,-0.9707,-0.8712,-0.8404,-0.8176,-0.8004,-0.8004,-0.8004,-0.8004,-0.8004,-0.8091,-0.814,-0.7938,-0.788,-0.7744,-0.7285,-0.6975,-0.6629,-0.606,-0.5967,-0.5905,-0.5686,-0.5905,-0.6307,-0.6855,-0.7154,-0.7451,-0.7773,-0.784,-0.7811,-0.7647,-0.7443,-0.7266,-0.7089,-0.6897,-0.6757,-0.669,-0.6705,-0.6726,-0.6742,-0.7083,-0.7128,-0.6848,-0.6827,-0.6936,-0.7051,-0.7291,-0.7354,-0.7354,-0.7771,-0.8355,-1.1676,-1.3059,0.0,-1.462,-1.4365,0.0,-1.3198,0.0,0.0,0.0,0.0,0.0,0.0,0.0,0.0,0.0,0.0,0.0,0.0,0.0,0.0,0.0,0.0,0.0,0.0,0.0,0.5393,0.4871,0.2763,0.0,0.0,-0.6209,-0.8025,-0.9975,-0.9204,-0.8335,-0.7344,-0.7237,-0.7368,-0.7719,-0.8383,-0.8986,-0.9604,-1.0057,-1.0027,-0.969,-0.9655,-0.952,-0.9323,-0.9359,-0.9607,-0.998,-1.0332,-1.0371,-1.0332,-1.1303,-1.1748,-1.1895,-1.2173,-1.2281,-1.1896,-0.9529,-0.8544,-0.8233,-0.7947,-0.7686,-0.751,-0.751,-0.751,-0.751,-0.751,-0.7686,-0.7831,-0.7715,-0.7598,-0.7451,-0.7125,-0.6734,-0.6245,-0.5561,-0.5435,-0.534,-0.4992,-0.5214,-0.5686,-0.6337,-0.6643,-0.6915,-0.7136,-0.7166,-0.7107,-0.6969,-0.673,-0.6518,-0.6275,-0.6183,-0.6111,-0.6152,-0.6244,-0.6293,-0.6233,-0.6414,-0.6361,-0.589,-0.589,-0.6195,-0.6761,-0.6761,-0.6761,-0.6761,-0.6761,-0.7192]},{"header":{"parameterUnit":"m.s-1","parameterCategory":1,"la1":30.6,"la2":29.2853,"lo1":-89.7004,"lo2":-87.6739,"dy":0.0162,"dx":0.0183,"nx":112,"ny":82,"refTime":"2024-06-15T00:00:00:Z","depth":0,"parameterNumber":3,"parameterNumberName":"V-component_of_WINDS"},"data":[0.0,0.0,0.0,0.0,0.0,0.0,0.0,0.0,0.0,0.0,0.0,0.0,0.0,0.0,0.0,0.0,0.0,0.0,0.0,0.0,0.0,0.0,0.0,0.0,0.0,0.0,0.0,0.0,0.0,0.0,0.0,0.0,0.0,0.0,0.0,0.0,0.0,0.0,0.0,0.0,0.0,0.0,0.0,0.0,0.0,0.0,0.0,0.0,0.0,0.0,0.0,0.0,0.0,0.0,0.0,0.0,0.0,0.0,0.0,0.0,0.0,0.0,0.0,0.0,0.0,0.0,0.0,0.0,0.0,0.0,0.0,0.0,0.0,0.0,0.0,0.0,0.0,0.0,0.0,0.0,0.0,0.0,0.0,0.0,0.0,0.0,0.0,0.0,0.0,0.0,0.0,-0.4644,-0.4912,-0.5129,-0.5195,-0.4517,-0.4121,-0.4136,0.0,0.0,0.0,0.0,0.0,0.0,0.0,0.0,0.0,0.0,0.0,0.0,0.0,0.0,0.0,0.0,0.0,0.0,0.0,0.0,0.0,0.0,0.0,0.0,0.0,0.0,0.0,0.0,0.0,0.0,0.0,0.0,0.0,0.0,0.0,0.0,0.0,0.0,0.0,0.0,0.0,0.0,0.0,0.0,0.0,0.0,0.0,0.0,0.0,0.0,0.0,0.0,0.0,0.0,0.0,0.0,0.0,0.0,0.0,0.0,0.0,0.0,0.0,0.0,0.0,0.0,0.0,0.0,0.0,0.0,0.0,0.0,0.0,0.0,0.0,0.0,0.0,0.0,0.0,0.0,0.0,0.0,0.0,0.0,0.0,0.0,0.0,0.0,0.0,0.0,0.0,0.0,0.0,0.0,0.0,0.0,0.0,0.0,0.0,0.0,0.0,0.0,0.0,0.0,-0.4733,-0.4765,-0.4897,-0.5307,-0.5972,-0.5627,-0.5487,-0.5664,0.0,0.0,0.0,0.0,0.0,0.0,0.0,0.0,0.0,0.0,0.0,0.0,0.0,0.0,0.0,0.0,0.0,0.0,0.0,0.0,0.0,0.0,0.0,0.0,0.0,0.0,0.0,0.0,0.0,0.0,0.0,0.0,0.0,0.0,0.0,0.0,0.0,0.0,0.0,0.0,0.0,0.0,0.0,0.0,0.0,0.0,0.0,0.0,0.0,0.0,0.0,0.0,0.0,0.0,0.0,0.0,0.0,0.0,0.0,0.0,0.0,0.0,0.0,0.0,0.0,0.0,0.0,0.0,0.0,0.0,0.0,0.0,0.0,0.0,0.0,0.0,0.0,0.0,0.0,0.0,0.0,0.0,0.0,0.0,0.0,0.0,0.0,0.0,0.0,0.0,0.0,0.0,0.0,0.0,0.0,0.0,0.0,0.0,0.0,0.0,0.0,0.0,0.0,-0.2805,-0.4813,-0.486,-0.549,-0.599,-0.6171,-0.634,-0.6376,-0.6338,-0.4757,0.0,0.0,0.0,0.0,0.0,0.0,0.0,0.0,0.0,0.0,0.0,0.0,0.0,0.0,0.0,0.0,0.0,0.0,0.0,0.0,0.0,0.0,0.0,0.0,0.0,0.0,0.0,0.0,0.0,0.0,0.0,0.0,0.0,0.0,0.0,0.0,0.0,0.0,0.0,0.0,0.0,0.0,0.0,0.0,0.0,0.0,0.0,0.0,0.0,0.0,0.0,0.0,0.0,0.0,0.0,0.0,0.0,0.0,0.0,0.0,0.0,0.0,0.0,0.0,0.0,0.0,0.0,0.0,0.0,0.0,0.0,0.0,0.0,0.0,0.0,0.0,0.0,0.0,0.0,0.0,0.0,0.0,0.0,0.0,0.0,0.0,0.0,0.0,0.0,0.0,0.0,0.0,0.0,0.0,0.0,0.0,0.0,0.0,0.0,0.0,0.0,0.0,-0.3332,-0.5004,-0.5291,-0.6084,-0.6679,-0.6795,-0.7088,-0.7103,-0.6774,-0.5415,0.0,0.0,0.0,0.0,0.0,0.0,0.0,0.0,0.0,0.0,0.0,0.0,0.0,0.0,0.0,0.0,0.0,0.0,0.0,0.0,0.0,0.0,0.0,0.0,0.0,0.0,0.0,0.0,0.0,0.0,0.0,0.0,0.0,0.0,0.0,0.0,0.0,0.0,0.0,0.0,0.0,0.0,0.0,0.0,0.0,0.0,0.0,0.0,0.0,0.0,0.0,0.0,0.0,0.0,0.0,0.0,0.0,0.0,0.0,0.0,0.0,0.0,0.0,0.0,0.0,0.0,0.0,0.0,0.0,0.0,0.0,0.0,0.0,0.0,0.0,0.0,0.0,0.0,0.0,0.0,0.0,0.0,0.0,0.0,0.0,0.0,0.0,0.0,0.0,0.0,0.0,0.0,0.0,0.0,0.0,0.0,0.0,0.0,0.0,0.0,0.0,0.0,-0.4747,-0.5314,-0.6442,-0.6417,-0.6944,-0.8496,-0.8238,-0.7767,-0.7204,-0.5838,0.0,0.0,0.0,0.0,0.0,0.0,0.0,0.0,0.0,0.0,0.0,0.0,0.0,0.0,0.0,0.0,0.0,0.0,0.0,0.0,0.0,0.0,0.0,0.0,0.0,0.0,0.0,0.0,0.0,0.0,0.0,0.0,0.0,0.0,0.0,0.0,0.0,0.0,0.0,0.0,0.0,0.0,0.0,0.0,0.0,0.0,0.0,0.0,0.0,0.0,0.0,0.0,0.0,0.0,0.0,0.0,0.0,0.0,0.0,0.0,0.0,0.0,0.0,0.0,0.0,0.0,0.0,0.0,0.0,0.0,0.0,0.0,0.0,0.0,0.0,0.0,0.0,0.0,0.0,0.0,0.0,0.0,0.0,0.0,0.0,0.0,0.0,0.0,0.0,0.0,0.0,0.0,0.0,0.0,0.0,0.0,0.0,0.0,0.0,0.0,0.0,0.0,-0.5012,-0.5489,0.0,-0.6987,-0.7536,-0.8654,-0.8775,-0.8279,-0.7089,0.0,0.0,0.0,0.0,0.0,0.0,0.0,0.0,0.0,0.0,0.0,0.0,0.0,0.0,0.0,0.0,0.0,0.0,0.0,0.0,0.0,0.0,0.0,0.0,0.0,0.0,0.0,0.0,0.0,0.0,0.0,0.0,0.0,0.0,0.0,0.0,0.0,0.0,0.0,0.0,0.0,0.0,0.0,0.0,0.0,0.0,0.0,0.0,0.0,0.0,0.0,0.0,0.0,0.0,0.0,0.0,0.0,0.0,0.0,0.0,0.0,0.0,0.0,0.0,0.0,0.0,0.0,0.0,0.0,0.0,0.0,0.0,0.0,0.0,0.0,0.0,0.0,0.0,0.0,0.0,0.0,0.0,0.0,0.0,0.0,0.0,0.0,0.0,0.0,0.0,0.0,0.0,0.0,0.0,0.0,0.0,0.0,0.0,0.0,0.0,0.0,0.0,-0.4961,-0.539,-0.5976,0.0,-0.7567,-0.8226,-0.8966,-0.9086,-0.8374,-0.6698,0.0,0.0,0.0,0.0,0.0,0.0,0.0,0.0,0.0,0.0,0.0,0.0,0.0,0.0,0.0,0.0,0.0,0.0,0.0,0.0,0.0,0.0,0.0,0.0,0.0,0.0,0.0,0.0,0.0,0.0,0.0,0.0,0.0,0.0,0.0,0.0,0.0,0.0,0.0,0.0,0.0,0.0,0.0,0.0,0.0,0.0,0.0,0.0,0.0,0.0,0.0,0.0,0.0,0.0,0.0,0.0,0.0,0.0,0.0,0.0,0.0,0.0,0.0,0.0,0.0,0.0,0.0,0.0,0.0,0.0,0.0,0.0,0.0,0.0,0.0,0.0,0.0,0.0,0.0,0.0,0.0,0.0,0.0,0.0,0.0,0.0,0.0,0.0,0.0,0.0,0.0,0.0,0.0,0.0,0.0,0.0,0.0,0.0,0.0,0.0,0.0,0.0,-0.4698,-0.5969,-0.6905,-0.7479,-0.8244,-0.8995,-0.9665,-0.9236,-0.8058,0.0,0.0,0.0,0.0,0.0,0.0,0.0,0.0,0.0,0.0,0.0,0.0,0.0,0.0,0.0,0.0,0.0,0.0,0.0,0.0,0.0,0.0,0.0,0.0,0.0,0.0,0.0,0.0,0.0,0.0,0.0,0.0,0.0,0.0,0.0,0.0,0.0,0.0,0.0,0.0,0.0,0.0,0.0,0.0,0.0,0.0,0.0,0.0,0.0,0.0,0.0,0.0,0.0,0.0,0.0,0.0,0.0,0.0,0.0,0.0,0.0,0.0,0.0,0.0,0.0,0.0,0.0,0.0,0.0,0.0,0.0,0.0,0.0,0.0,0.0,0.0,0.0,0.0,0.0,0.0,0.0,0.0,0.0,0.0,0.0,0.0,0.0,0.0,0.0,0.0,0.0,0.0,0.0,0.0,0.0,0.0,0.0,0.0,0.0,0.0,0.0,0.0,0.0,-0.5633,-0.6044,-0.6947,-0.8854,-0.9188,-0.9728,-1.0949,-1.0079,-0.8697,-0.6934,0.0,0.0,0.0,0.0,0.0,0.0,0.0,0.0,0.0,0.0,0.0,0.0,0.0,0.0,0.0,0.0,0.0,0.0,0.0,0.0,0.0,0.0,0.0,0.0,0.0,0.0,0.0,0.0,0.0,0.0,0.0,0.0,0.0,0.0,0.0,0.0,0.0,0.0,0.0,0.0,0.0,0.0,0.0,0.0,0.0,0.0,0.0,0.0,0.0,0.0,0.0,0.0,0.0,0.0,0.0,0.0,0.0,0.0,0.0,0.0,0.0,0.0,0.0,0.0,0.0,0.0,0.0,0.0,0.0,0.0,0.0,0.0,0.0,0.0,0.0,0.0,0.0,0.0,0.0,0.0,0.0,0.0,0.0,0.0,0.0,0.0,0.0,0.0,0.0,0.0,0.0,0.0,0.0,0.0,0.0,0.0,0.0,0.0,0.0,0.0,0.0,0.0,-0.58,-0.6628,-0.7764,-0.9284,-0.9924,-1.0553,-1.1352,-1.0237,-0.8813,-0.7185,0.0,0.0,0.0,0.0,0.0,0.0,0.0,0.0,0.0,0.0,0.0,0.0,0.0,0.0,0.0,0.0,0.0,0.0,0.0,0.0,0.0,0.0,0.0,0.0,0.0,0.0,0.0,0.0,0.0,0.0,0.0,0.0,0.0,0.0,0.0,0.0,0.0,0.0,0.0,0.0,0.0,0.0,0.0,0.0,0.0,0.0,0.0,0.0,0.0,0.0,0.0,0.0,0.0,0.0,0.0,0.0,0.0,0.0,0.0,0.0,0.0,0.0,0.0,0.0,0.0,0.0,0.0,0.0,0.0,0.0,0.0,0.0,0.0,0.0,0.0,0.0,0.0,0.0,0.0,0.0,0.0,0.0,0.0,0.0,0.0,0.0,0.0,0.0,0.0,0.0,0.0,0.0,0.0,0.0,0.0,0.0,0.0,0.0,0.0,0.0,0.0,0.0,-0.5644,-0.7575,-0.8991,-0.9317,-1.0627,-1.1403,-1.1293,-1.0116,-0.8682,-0.7123,0.0,0.0,0.0,0.0,0.0,0.0,0.0,0.0,0.0,0.0,0.0,0.0,0.0,0.0,0.0,0.0,0.0,0.0,0.0,0.0,0.0,0.0,0.0,0.0,0.0,0.0,0.0,0.0,0.0,0.0,0.0,0.0,0.0,0.0,0.0,0.0,0.0,0.0,0.0,0.0,0.0,0.0,0.0,0.0,0.0,0.0,0.0,0.0,0.0,0.0,0.0,0.0,0.0,0.0,0.0,0.0,0.0,0.0,0.0,0.0,0.2422,0.0,0.0,0.0,0.0,0.0,0.0,0.0,0.0,0.0,0.0,0.0,0.0,0.0,0.0,0.0,0.0,0.0,0.0,0.0,0.0,0.0,0.0,0.0,0.0,0.0,0.0,0.0,0.0,0.0,0.0,0.0,0.0,0.0,0.0,0.0,0.0,0.0,0.0,0.0,0.0,0.0,-0.7135,-0.8056,-0.9225,-1.1198,-1.1683,-1.2071,-1.2555,-1.1385,-0.988,-0.8125,-0.5492,0.0,0.0,0.0,0.0,0.0,0.0,0.0,0.0,0.0,0.0,0.0,0.0,0.0,0.0,0.0,0.0,0.0,0.0,0.0,0.0,0.0,0.0,0.0,0.0,0.0,0.0,0.0,0.0,0.0,0.0,0.0,0.0,0.0,0.0,0.0,0.0,0.0,0.0,0.0,0.0,0.0,0.0,0.0,0.0,0.0,0.0,0.0,0.0,0.0,0.0,0.0,0.0,0.0,0.0,0.0,0.0,0.0,0.0,0.0,0.0,0.156,0.0,0.0,0.0,0.0,0.0,0.0,0.0,0.0,0.0,0.0,0.0,0.0,0.0,0.0,0.0,0.0,0.0,0.0,0.0,0.0,0.0,0.0,0.0,0.0,0.0,0.0,0.0,0.0,0.0,0.0,0.0,0.0,0.0,0.0,0.0,0.0,0.0,0.0,0.0,0.0,-0.7417,-0.8758,-1.0127,-1.1561,-1.2052,-1.2443,-1.2722,-1.1579,-1.0189,-0.874,-0.5879,0.0,0.0,0.0,0.0,0.0,0.0,0.0,0.0,0.0,0.0,0.0,0.0,0.0,0.0,0.0,0.0,0.0,0.0,0.0,0.0,0.0,0.0,0.0,0.0,0.0,0.0,0.0,0.0,0.0,0.0,0.0,0.0,0.0,0.0,0.0,0.0,0.0,0.0,0.0,0.0,0.0,0.0,0.0,0.0,0.0,0.0,0.0,0.0,0.0,0.0,0.0,0.0,0.0,-0.281,-0.1893,-0.0714,-0.0248,0.065,0.1838,0.1442,0.0788,0.0,0.0,0.0,0.0,0.0,0.0,0.0,0.0,0.0,0.0,0.0,0.0,0.0,0.0,0.0,0.0,0.0,0.0,0.0,0.0,0.0,0.0,0.0,0.0,0.0,0.0,-0.1846,-0.188,0.0,0.0,0.0,0.0,0.0,0.0,0.0,0.0,0.0,0.0,0.0,0.0,-0.7502,-0.9515,-1.1058,-1.1474,-1.218,-1.2549,-1.2463,-1.1445,-1.0271,-0.9143,-0.6327,-0.3735,0.0,0.0,0.0,0.0,0.0,0.0,0.0,0.0,0.0,0.0,0.0,0.0,0.0,0.0,0.0,0.0,0.0,0.0,0.0,0.0,0.0,0.0,0.0,0.0,0.0,0.0,0.0,0.0,0.0,0.0,0.0,0.0,-0.7284,-0.6974,0.0,0.0,0.0,0.0,0.0,0.0,0.0,0.0,0.0,0.0,0.0,0.0,0.0,-0.0716,-0.0954,-0.1355,-0.2283,-0.374,-0.296,-0.2394,-0.2022,-0.104,-0.0483,-0.022,0.1015,0.0,0.0,0.0,0.0,0.0,0.0,0.0,0.0,0.0,0.0,0.0,0.0,0.0,0.0,0.0,0.0,0.0,0.0,0.0,0.0,0.0,0.0,0.0,0.0,0.0,-0.2522,-0.2307,-0.3264,-0.5035,0.0,-0.6239,-0.3952,-0.3703,-0.3383,0.0,0.0,0.0,0.0,0.0,0.0,0.0,-0.8654,-1.0006,-1.1142,-1.2004,-1.2412,-1.2534,-1.2343,-1.1849,-1.0893,-0.935,-0.7403,-0.499,-0.2049,0.0164,0.0,0.0,0.0,0.0,0.0,0.0,0.0,0.0,0.0,0.0,0.0,0.0,0.0,0.0,0.0,0.0,0.0,0.0,0.0,0.0,0.0,0.0,0.0,0.0,0.0,0.0,0.0,0.0,0.0,-0.7452,-0.7359,-0.7189,-0.4812,-0.2935,0.0,0.0,0.0,0.0,0.0,0.0,0.0,0.0,0.0,0.0,-0.1047,-0.1768,-0.2116,-0.2576,-0.3263,-0.4121,-0.3965,-0.3522,-0.2856,-0.2522,-0.176,-0.0647,0.0295,-0.0245,-0.1707,-0.0505,0.0,0.0,0.0,0.0,0.0,0.0,-0.3217,-0.3039,-0.2809,-0.3156,0.0,-0.3521,0.0,0.0,0.0,0.0,0.0,0.0,0.0,0.0,0.0,0.0,-0.4913,-0.4928,-0.5751,-0.7003,-0.8626,-0.6554,-0.4403,0.0,-0.4341,-0.4075,-0.3739,0.0,0.0,0.0,0.0,-0.7996,-0.918,-1.0564,-1.1688,-1.2312,-1.2514,-1.2554,-1.2403,-1.2024,-1.1307,-1.0157,-0.8134,-0.5895,-0.3395,-0.0526,0.2098,0.0,0.0,0.0,0.0,0.0,0.0,0.0,0.0,0.0,0.0,0.0,0.0,0.0,0.0,0.0,0.0,0.0,0.0,0.0,0.0,0.0,0.0,0.0,0.0,0.0,0.0,0.0,0.0,-0.7437,-0.7483,-0.7529,-0.5104,-0.3281,0.0,0.0,0.0,0.0,0.0,0.0,0.0,0.0,0.0,0.0,-0.1842,-0.3009,-0.3364,-0.3766,-0.4155,-0.4594,-0.4804,-0.4502,-0.3716,-0.3769,-0.2928,-0.1419,-0.1008,-0.1745,-0.308,-0.1324,-0.035,0.0,0.0,-0.0532,-0.1556,-0.3829,-0.4572,-0.4397,-0.4171,-0.5235,-0.6678,-0.6305,0.0,-0.5738,-0.5943,0.0,0.0,0.0,0.0,-0.6392,-0.582,-0.6308,-0.7041,-0.735,-0.792,-0.8447,-0.8482,-0.6911,-0.538,0.0,-0.484,-0.4724,-0.4529,0.0,0.0,0.0,0.0,-0.8861,-0.9654,-1.0986,-1.2073,-1.253,-1.2671,-1.2671,-1.2562,-1.2231,-1.1627,-1.0717,-0.8848,-0.679,-0.4665,-0.1589,0.1295,0.3898,0.0,0.0,0.0,0.0,0.0,0.0,0.0,0.0,0.0,0.0,0.0,0.0,0.0,0.0,0.0,0.0,0.0,0.0,0.0,0.0,0.0,0.0,0.0,0.0,0.0,0.0,0.0,0.0,0.0,-0.7841,-0.5505,0.0,0.0,0.0,0.0,-0.2871,-0.1085,0.0,0.0,0.0,0.0,0.0,-0.2785,-0.4403,-0.4614,-0.4812,-0.4981,-0.5068,-0.5014,-0.4922,-0.4816,-0.4291,-0.3848,-0.345,-0.3223,-0.3205,-0.323,-0.2489,-0.1325,0.0,0.0,-0.1937,-0.4769,-0.4989,-0.5069,-0.5037,-0.4897,-0.6579,-0.8658,-0.8129,-0.7665,-0.7284,-0.73,-0.7268,0.0,0.0,-0.8114,-0.7359,-0.7457,-0.797,-0.8497,-0.852,-0.9072,-0.9529,-0.9132,-0.847,-0.7242,0.0,-0.4743,-0.4874,-0.4541,0.0,-0.5816,-0.6147,-0.7576,-0.9017,-1.0208,-1.1103,-1.1929,-1.2787,-1.2959,-1.294,-1.2811,-1.2517,-1.1869,-1.0672,-0.96,-0.791,-0.5465,-0.3343,-0.0654,0.2714,0.4971,0.0,0.0,0.0,0.0,0.0,0.0,0.0,0.0,0.0,0.0,0.0,0.0,0.0,0.0,0.0,0.0,0.0,0.0,0.0,0.0,0.0,0.0,0.0,0.0,0.0,0.0,0.0,0.0,-0.8401,-0.6153,0.0,-0.4439,-0.4357,-0.4274,-0.4224,-0.1609,0.0,0.0,0.0,0.0,0.0,-0.3164,-0.4872,-0.4961,-0.5038,-0.5022,-0.4985,-0.4826,-0.4625,-0.443,-0.4032,-0.3717,-0.3545,-0.4992,-0.5265,-0.4556,-0.3472,-0.2663,-0.2136,-0.2322,-0.3289,-0.463,-0.4822,-0.4953,-0.5368,-0.7536,-0.8976,-0.9714,-0.9162,-0.8861,-0.8683,-0.8751,-0.8804,-0.8991,-0.9565,-0.941,-0.903,-0.8745,-0.9034,-0.9376,-0.9408,-0.9781,-0.9815,-0.8807,-0.8075,-0.6904,-0.4437,-0.4318,-0.4731,-0.5036,-0.579,-0.6558,-0.7147,-0.8471,-0.9643,-1.0203,-1.1309,-1.2168,-1.2519,-1.2991,-1.3025,-1.2457,-1.2204,-1.1619,-1.047,-0.9463,-0.8168,-0.6572,-0.4269,-0.1724,0.1101,0.3426,0.5215,0.0,0.0,0.0,0.0,0.0,0.0,0.0,0.0,0.0,0.0,0.0,0.0,0.0,0.0,0.0,0.0,0.0,0.0,0.0,0.0,0.0,0.0,0.0,0.0,0.0,0.0,-0.5271,-0.7462,-0.6028,-0.4863,-0.4889,-0.4915,-0.4904,-0.4979,-0.1892,0.0,0.0,0.0,0.0,0.0,-0.3276,-0.5064,-0.5042,-0.5012,-0.491,-0.4761,-0.5546,-0.5766,-0.5427,-0.5149,-0.4925,-0.4803,-0.5929,-0.6281,-0.6007,-0.5109,-0.4727,-0.4614,-0.3984,-0.3984,-0.4391,-0.4638,-0.5519,-0.6926,-0.9337,-1.0217,-1.0257,-0.9896,-0.9737,-0.9701,-0.9761,-0.9679,-0.9431,-0.8645,-0.9108,-0.9789,-0.9474,-0.96,-0.9806,-0.9822,-1.0001,-0.9778,-0.8364,-0.699,-0.5588,-0.3984,-0.4012,-0.4554,-0.5365,-0.628,-0.7173,-0.7945,-0.9081,-0.9988,-1.0353,-1.1188,-1.1851,-1.2126,-1.2543,-1.256,-1.1977,-1.1776,-1.1276,-1.0296,-0.9274,-0.8184,-0.699,-0.5256,-0.2963,-0.0127,0.2769,0.4492,0.5074,0.0,0.0,0.0,0.0,0.0,0.0,0.0,0.0,0.0,0.0,0.0,0.0,0.0,0.0,0.0,0.0,0.0,0.0,0.0,0.0,0.0,0.0,0.0,-0.4538,-0.4687,-0.4872,-0.4973,-0.5063,-0.5107,-0.5078,-0.5109,-0.5084,-0.5076,-0.203,-0.0101,-0.0,-0.0101,-0.0137,-0.014,-0.3297,-0.4954,-0.4916,-0.4812,-0.4746,-0.468,-0.7263,-0.8285,-0.7914,-0.7694,-0.7515,-0.7308,-0.6085,-0.6253,-0.7393,-0.7393,-0.7421,-0.7182,-0.4752,-0.4066,-0.4469,-0.4674,-0.6857,-0.9765,-0.9997,-1.0202,-1.0305,-1.0312,-1.0312,-1.0308,-1.0273,-0.9804,-0.8673,-0.5993,-0.733,-0.9536,-0.9572,-0.9673,-0.9753,-0.9689,-0.9756,-0.9409,-0.789,-0.5377,-0.3449,-0.363,-0.395,-0.4507,-0.5476,-0.6595,-0.7613,-0.8468,-0.9304,0.0,-1.0674,-1.074,-1.0976,-1.1593,-1.1646,-1.1541,-1.1372,-1.133,-1.0921,-1.0091,-0.9141,-0.7972,-0.6624,-0.6261,-0.4407,-0.0845,0.3018,0.4603,0.3768,0.0,0.0,0.0,0.0,0.0,0.0,0.0,0.0,0.0,0.0,0.0,0.0,0.0,0.0,0.0,0.0,0.0,0.0,0.0,0.0,0.0,0.0,-0.4925,-0.4877,-0.4948,-0.5036,-0.5073,-0.5073,-0.508,-0.5047,-0.4935,-0.485,-0.4809,-0.3839,-0.23,-0.0101,-0.2064,-0.328,-0.3317,-0.4329,-0.4857,-0.4845,-0.4729,-0.5661,-0.7708,-0.8152,-0.8205,-0.7914,-0.7827,-0.7415,-0.6695,-0.6927,-0.7012,-0.6981,-0.7284,-0.7529,-0.7431,-0.4997,-0.5378,-0.7384,-0.7786,-0.8736,-0.9857,-1.0025,-1.0143,-1.0212,-1.0222,-1.0176,-1.0158,-1.0132,-0.8088,-0.6118,-0.7767,-0.8161,-0.8215,-0.8797,-0.9197,-0.9398,-0.9231,-0.8822,-0.8212,-0.7295,-0.5071,-0.365,-0.5013,-0.5602,-0.5636,-0.4844,-0.6608,-0.8268,-0.8496,-0.9369,0.0,-1.0191,-1.069,-1.102,-1.1131,-1.1567,-1.161,-1.0884,-1.0784,-1.0189,-0.872,-0.8347,-0.7571,-0.6238,-0.5554,-0.3632,-0.0221,0.1696,0.2822,0.0,0.0,0.0,0.0,0.0,0.0,0.0,0.0,0.0,0.0,0.0,0.0,0.0,0.0,0.0,0.0,0.0,0.0,0.0,0.0,0.0,0.0,-0.5014,-0.5078,-0.496,-0.5039,-0.5071,-0.5045,-0.5027,-0.4998,-0.4941,-0.4777,-0.4638,-0.4553,-0.4431,-0.3599,-0.1828,-0.3445,-0.4476,-0.4547,-0.4664,-0.4724,-0.4724,-0.5879,-0.726,-0.8818,-0.846,-0.8214,-0.8068,-0.7984,-0.7642,0.0,-0.7576,-0.7618,-0.7371,-0.7662,-0.7911,0.0,0.0,0.0,0.0,0.0,-0.9684,-0.9967,-1.0038,-1.0085,-1.015,-1.0178,-1.0101,-0.9972,-0.9485,-0.7873,-0.6406,-0.7599,-0.7918,-0.7969,-0.8282,-0.8695,-0.9009,-0.8841,-0.8229,-0.7529,-0.7023,-0.5701,-0.5058,-0.6541,-0.7222,0.0,-0.595,-0.7166,-0.8466,-0.9063,-0.9708,-1.0112,-1.0083,-1.0447,-1.063,-1.0531,-1.0877,-1.0891,-1.032,-1.024,0.0,0.0,0.0,-0.69,-0.53,-0.4512,0.0,0.0,0.0,0.0,0.0,0.0,0.0,0.0,-0.2096,-0.3504,0.0,0.0,0.0,0.0,0.0,0.0,0.0,0.0,0.0,0.0,0.0,0.0,0.0,0.0,0.0,0.0,-0.4842,-0.5027,-0.4866,-0.4962,-0.5034,-0.4998,-0.4931,-0.4853,-0.4777,-0.4894,-0.4785,-0.4301,-0.4502,-0.4593,-0.4563,0.0,0.0,0.0,0.0,-0.5076,-0.5087,-0.7752,-0.8953,-0.8677,-0.8454,-0.8306,-0.8293,-0.8119,-0.8023,-0.8054,-0.8132,-0.8205,-0.8271,-0.8451,-0.8556,-0.8607,-0.8616,-0.8749,-0.9078,-0.9677,-0.9918,-1.0006,-1.0012,0.0,0.0,-1.0105,-0.9995,-0.9689,-0.8533,-0.8281,-0.8064,-0.648,-0.7088,-0.8141,-0.7885,-0.823,-0.8583,-0.846,-0.7881,-0.7268,-0.699,-0.6774,-0.6947,-0.7954,-0.8563,-0.8695,-0.8014,-0.8047,-0.8597,-0.9844,-1.0117,-1.019,-1.0217,-1.0132,-1.0101,-1.002,0.0,0.0,-0.9798,-0.9689,-0.9204,-0.8356,-0.7375,-0.6045,-0.4268,-0.3447,-0.2518,-0.1379,-0.0289,0.0403,0.0668,-0.0034,-0.0808,-0.1613,-0.2366,-0.3291,0.0,0.0,0.0,0.0,0.0,0.0,0.0,0.0,0.0,0.0,0.0,0.0,0.0,0.0,0.0,-0.0996,-0.3115,-0.474,-0.4666,-0.4679,-0.4728,-0.4838,-0.4789,-0.4679,-0.458,-0.6563,-0.6833,-0.4319,-0.6021,-0.7225,-0.7326,-0.7442,-0.763,-0.7873,-0.8021,-0.8107,-0.8237,-0.8815,-0.8953,-0.8677,0.0,0.0,-0.839,-0.828,-0.8258,-0.8263,-0.8926,-0.9247,-0.9327,-0.9672,-0.9586,-0.9234,-0.9234,-0.9403,-0.9654,-0.9791,-0.9856,-0.993,-1.0025,-1.0035,-0.9958,-1.0054,-0.973,-0.9044,-0.7935,-0.7291,0.0,-0.6942,-0.6899,-0.6947,-0.7315,-0.7722,-0.8054,-0.8026,-0.7576,-0.7153,-0.7088,-0.7039,-0.73,-0.8222,-0.8796,-0.9119,-0.8993,-0.9109,-0.942,-1.0011,-1.0132,-1.0209,-1.0194,-1.0175,-1.0169,-1.0079,-1.002,-0.9967,-0.9876,-0.9276,-0.8529,-0.7645,-0.6201,-0.4981,-0.4071,-0.3527,-0.2776,-0.1805,-0.1031,-0.0504,-0.0168,-0.0702,-0.1398,-0.2218,-0.256,-0.3298,0.0,0.0,0.0,0.0,0.0,0.0,0.0,0.0,0.0,0.0,0.0,-0.2441,0.0,0.0,0.0,0.0,-0.2506,-0.4426,-0.4386,-0.4471,-0.4553,-0.4633,-0.5923,-0.6747,-0.6613,-0.7764,-0.7815,-0.6143,-0.7099,-0.7827,-0.7984,-0.8258,-0.8492,-0.8677,-0.8897,-0.9028,-0.9081,-1.072,-1.0613,-0.8886,-0.9284,-0.9408,-0.9356,-0.9134,-0.927,-0.9656,-1.0086,-1.0288,-1.0372,-1.0723,-1.0895,-1.0962,-1.0791,-1.0301,-0.9757,-0.9838,-0.9862,-0.9903,-0.9984,-0.9946,-0.9865,-0.975,-0.9233,-0.8556,-0.7823,-0.7229,-0.6843,-0.704,-0.6896,-0.6687,-0.6958,-0.7256,-0.7513,-0.7513,-0.7284,-0.7137,-0.7221,-0.739,-0.7695,-0.8358,-0.8928,-0.9296,-0.9323,-0.9559,-0.9781,-1.0015,-1.0157,-1.0189,-1.0191,-1.0192,-1.0206,-1.0163,-0.9744,-0.9421,-0.9348,-0.8211,-0.7293,-0.6784,-0.5673,-0.476,-0.4123,-0.3729,-0.3062,-0.2171,-0.1568,-0.1077,-0.074,-0.1065,-0.1493,-0.2074,-0.2435,-0.3176,0.0,0.0,0.0,0.0,0.0,0.0,0.0,0.0,-0.3318,-0.0585,0.0,0.0,0.0,0.0,-0.0151,-0.0581,-0.2576,-0.4098,-0.4125,-0.4237,-0.4527,-0.5102,-0.7333,-0.8771,-0.8592,-0.8377,-0.8137,-0.7855,-0.8162,-0.8471,-0.8711,-0.9119,-0.9427,-0.96,-0.9862,-1.0013,-1.007,-1.2639,-1.2521,-0.9747,-1.0402,-1.0681,-1.0492,-1.0219,-1.044,-1.1102,-1.1259,-1.1451,-1.1692,-1.1912,-1.2299,-1.2715,-1.2383,-1.1424,-1.0216,-1.0132,-1.0013,-0.99,-0.9886,-0.9874,-0.9763,-0.9408,-0.8836,-0.8262,-0.7764,-0.7374,-0.7046,-0.6971,-0.6834,-0.6737,-0.6694,-0.6825,-0.699,-0.7006,-0.7039,-0.7137,-0.7359,-0.7694,-0.8068,-0.8492,-0.9023,-0.9429,-0.9419,-0.9661,-0.9903,-0.9977,-1.0105,-1.021,-1.0215,-1.0195,-1.0149,-0.9979,-0.9344,-0.8764,-0.8363,-0.7113,-0.6184,-0.5896,-0.5535,-0.4979,-0.425,-0.4044,-0.3458,-0.2477,-0.1927,-0.1487,-0.1177,-0.1281,-0.1457,-0.1748,-0.2256,-0.3017,-0.4061,-0.4493,-0.4489,-0.1341,-0.0551,-0.0553,0.0,0.0,-0.0468,-0.0078,0.0,0.0,0.0,0.0,-0.0631,-0.26,-0.3346,-0.3717,-0.3833,-0.392,-0.484,-0.723,-0.8135,-0.8441,-0.8205,-0.8026,-0.7855,-0.765,-0.9773,-1.1245,-1.1708,-1.2084,-1.2484,-1.2873,-1.3029,-1.3255,-1.3556,-1.3876,-1.336,-1.1959,-1.1978,-1.1751,-1.1283,-1.1196,-1.1196,-1.1408,-1.216,-1.2955,-1.3673,-1.385,-1.363,-1.3204,-1.3232,-1.2723,-1.191,-1.122,-1.0501,-0.9888,-0.99,-0.9775,-0.958,-0.9304,-0.8878,-0.8273,-0.7308,-0.7118,-0.7194,-0.6833,-0.6638,-0.654,-0.6598,-0.6587,-0.6594,-0.6638,-0.6791,-0.7023,-0.7315,-0.7753,-0.8227,-0.8738,-0.9214,-0.9483,-0.9489,-0.9669,-0.9856,-1.0001,-1.0094,-1.02,-1.0201,-1.0264,-1.0,-0.9216,-0.9052,-0.8344,-0.6784,-0.6503,-0.6013,-0.5086,-0.5702,-0.5527,-0.4328,-0.4584,-0.4111,-0.2685,-0.2133,-0.1744,-0.1449,-0.1459,-0.157,-0.1784,-0.2218,-0.2984,-0.4431,-0.3237,-0.1795,0.0,0.0,-0.0318,-0.1474,-0.1562,-0.1342,-0.1151,-0.1108,-0.1133,-0.1211,-0.1313,-0.1764,0.0,-0.3264,-0.3932,-0.539,-0.5792,-0.6352,-0.746,-0.7753,-0.784,-0.7827,-0.7768,-0.8309,-0.9754,-1.0984,-1.1841,-1.219,-1.2581,-1.2995,-1.3396,-1.3639,-1.3912,-1.4203,-1.4177,-1.3587,-1.2464,-1.2568,-1.2459,-1.2209,-1.217,-1.245,-1.2948,-1.3306,-1.3734,-1.419,-1.4331,-1.4279,-1.4134,-1.4186,-1.4054,-1.361,-1.1805,-1.092,-1.0511,-0.9967,-0.9633,-0.9355,-0.8925,-0.841,-0.7804,-0.7195,-0.683,-0.661,-0.653,-0.6456,-0.635,-0.6276,-0.6215,-0.6188,-0.6378,-0.6672,-0.7023,-0.7437,-0.7883,-0.8319,-0.8712,-0.9071,-0.9356,-0.9368,-0.9547,-0.9571,-0.9173,-0.9714,-1.0164,-1.0176,-1.0208,-0.9719,-0.8398,-0.7773,-0.6992,-0.5742,-0.5624,-0.5457,-0.4992,-0.5826,-0.5786,-0.4595,-0.4985,-0.4508,-0.2968,-0.2406,-0.1897,-0.1443,-0.1438,-0.1533,-0.1748,-0.2218,-0.2959,-0.4451,0.0,0.0,-0.0647,-0.0532,-0.083,-0.2274,-0.2355,-0.2123,-0.2152,-0.2204,-0.2325,-0.2551,-0.2808,-0.3113,-0.3559,-0.3869,-0.4684,-0.6558,-0.7088,-0.7253,-0.7253,-0.7359,-0.7755,-0.8689,-0.8764,-0.9574,-1.1541,-1.1884,-1.2117,-1.2343,-1.2697,-1.3067,-1.3446,-1.3763,-1.409,-1.4293,-1.4255,-1.382,-1.3052,-1.3206,-1.3239,-1.3178,-1.32,-1.3521,-1.4068,-1.4074,-1.418,-1.4381,-1.4511,-1.4616,-1.4747,-1.4804,-1.4859,-1.4587,-1.2301,-1.1438,-1.1206,-0.9971,-0.9357,-0.899,-0.8434,-0.7876,-0.7343,-0.6944,-0.6552,-0.6245,-0.6312,-0.6332,-0.6244,-0.6055,-0.5879,-0.5804,-0.6093,-0.65,-0.6941,-0.739,-0.7782,-0.7929,-0.7459,-0.8023,-0.8554,-0.84,-0.879,-0.8942,-0.8434,-0.8802,-0.9283,-0.9748,-0.9833,-0.9394,-0.8199,-0.7262,-0.6402,-0.554,-0.5468,-0.5308,-0.5005,-0.5899,-0.5938,-0.4798,-0.5269,-0.4782,-0.3192,-0.2639,-0.2015,-0.1359,-0.1378,-0.1476,-0.1671,-0.2213,-0.2887,0.0,0.0,-0.2556,-0.2299,-0.1878,-0.1568,-0.1624,-0.1528,-0.1682,-0.2586,-0.2991,-0.3307,-0.3769,-0.4159,-0.4654,-0.5305,-0.5712,-0.6071,-0.6552,-0.6791,-0.6924,-0.6924,-0.7189,-0.8525,0.0,-1.167,-1.1815,-1.2138,-1.2374,-1.2562,-1.2773,-1.2977,-1.3243,-1.3589,-1.3927,-1.415,-1.4293,-1.4293,-1.4232,-1.4144,-1.418,-1.4167,-1.4167,-1.4167,-1.4229,-1.4291,-1.4306,-1.438,-1.4482,-1.4637,-1.4757,-1.4895,-1.4904,-1.4859,-1.4588,-1.2752,-1.2077,-1.1783,-0.987,-0.8909,-0.8422,-0.784,-0.743,-0.708,-0.6355,-0.6337,-0.6538,-0.6275,-0.6247,-0.6251,-0.6038,-0.5674,-0.5406,-0.5726,-0.6218,-0.6689,-0.7055,-0.7268,-0.6757,-0.4477,-0.5675,-0.6843,-0.6199,-0.7137,-0.7957,-0.799,-0.7197,-0.7154,-0.8635,-0.8905,-0.8947,-0.8964,-0.8187,-0.7293,-0.6441,-0.6367,-0.5964,-0.5045,-0.5987,-0.6095,-0.4947,-0.5352,-0.4864,-0.3323,-0.2773,-0.211,-0.1294,-0.1363,-0.1468,-0.1613,-0.2081,-0.2753,-0.4012,0.0,-0.2156,-0.238,-0.2322,-0.2196,-0.2196,-0.216,-0.2258,-0.2704,-0.3015,-0.3357,-0.3807,-0.4224,-0.4666,-0.5156,-0.5667,-0.6088,-0.636,-0.6569,-0.6791,-0.7023,-0.7452,0.0,0.0,0.0,0.0,-1.2394,-1.2697,-1.2977,-1.3191,-1.3362,-1.3526,-1.3778,-1.4082,-1.4281,-1.4381,-1.4319,-1.4293,-1.4342,-1.4281,-1.4268,-1.4278,-1.4278,-1.4291,-1.4293,-1.4356,-1.4488,-1.4643,-1.4736,-1.4832,-1.4913,-1.4895,-1.4804,-1.4505,-1.307,-1.2311,-1.1668,-0.9486,-0.8569,-0.8244,-0.754,-0.7101,-0.6747,-0.646,-0.6198,-0.6065,-0.6257,-0.6352,-0.6261,-0.5891,-0.5789,-0.5688,-0.5451,-0.5741,-0.6147,-0.6448,-0.6706,-0.6545,-0.5453,-0.6413,-0.7135,-0.6287,-0.6295,-0.661,-0.713,-0.7483,-0.774,-0.7902,-0.7994,-0.8071,-0.8135,-0.7864,-0.7328,-0.6484,-0.6404,-0.5989,-0.507,-0.6041,-0.6213,-0.5147,-0.5437,-0.4886,-0.3331,-0.2377,-0.1586,-0.0894,-0.1007,-0.1243,-0.155,-0.2234,-0.3035,-0.3775,-0.2831,-0.1973,-0.225,-0.232,-0.232,-0.2342,-0.2364,-0.2429,-0.2647,-0.2972,-0.3357,-0.3807,-0.4224,-0.4626,-0.5039,-0.5611,-0.6088,-0.6378,-0.6621,-0.6908,-0.7221,-0.7724,-0.8949,0.0,0.0,0.0,-1.2889,-1.3208,-1.3429,-1.3578,-1.3717,-1.3868,-1.4062,-1.4255,-1.4393,-1.4441,-1.4381,-1.4331,-1.4367,-1.4355,-1.4342,-1.433,-1.4342,-1.4331,-1.4381,-1.4453,-1.4567,-1.4705,-1.4765,-1.4841,-1.4904,-1.4823,-1.4648,-1.4281,-1.3048,-1.2177,-1.1368,-0.9506,-0.8602,-0.8141,-0.7359,-0.6857,-0.6515,-0.6259,-0.6002,-0.5857,-0.6151,-0.6229,-0.6131,-0.5639,-0.5667,-0.5694,-0.5129,-0.5233,-0.5501,-0.567,-0.5943,-0.5975,-0.5447,-0.5996,-0.6314,-0.5515,-0.517,-0.5176,-0.5669,-0.6346,-0.6966,-0.7384,-0.7522,-0.7606,-0.7646,-0.7699,-0.7364,-0.6482,-0.6403,-0.5984,-0.5072,-0.606,-0.6242,-0.5215,-0.5398,-0.4902,-0.355,-0.2088,-0.1043,-0.0404,-0.0607,-0.0969,-0.1443,-0.2266,-0.3102,-0.3064,-0.247,-0.211,-0.2012,-0.1968,-0.199,-0.2034,-0.2078,-0.2166,-0.2407,-0.2821,-0.3269,0.0,0.0,-0.4538,-0.502,-0.5611,-0.6141,-0.6569,-0.6941,-0.7268,0.0,0.0,0.0,0.0,0.0,0.0,-1.3693,0.0,-1.3933,-1.3933,-1.4026,-1.4177,-1.4319,-1.4441,-1.4499,-1.4488,-1.4441,-1.4368,-1.4293,-1.4367,-1.438,-1.438,-1.4393,-1.4441,-1.4499,-1.4567,-1.4616,-1.4718,-1.4785,-1.4823,-1.485,-1.4648,-1.4366,-1.3951,-1.271,-1.1761,-1.0965,-0.9873,-0.8938,-0.8032,-0.7189,-0.6699,-0.6382,-0.5796,-0.5799,-0.5967,-0.592,-0.5936,-0.5876,-0.5343,-0.532,-0.5323,-0.473,-0.4662,-0.4744,-0.4764,-0.502,-0.5048,-0.4405,-0.4463,-0.4483,-0.3944,-0.3818,-0.3766,-0.377,-0.3963,-0.4823,-0.6897,-0.7315,-0.7429,-0.7529,-0.7611,-0.7321,-0.647,-0.6406,-0.5994,-0.5045,-0.6063,-0.6218,-0.5149,-0.5297,-0.4903,-0.3855,-0.188,-0.0554,0.0101,-0.0226,-0.07,-0.1306,-0.2194,-0.3014,-0.2658,-0.249,-0.2351,-0.1819,-0.1635,-0.1541,-0.1519,-0.1696,-0.1894,-0.196,-0.218,-0.2316,0.0,0.0,0.0,-0.464,-0.563,0.0,-0.6908,-0.7485,0.0,-0.8245,0.0,-1.0055,-1.2832,-1.4029,0.0,0.0,-1.4471,-1.4344,-1.4344,-1.4381,-1.4453,-1.4578,-1.4648,-1.4567,-1.4441,-1.4429,-1.438,-1.4293,-1.4306,-1.4355,-1.438,-1.4392,-1.4453,-1.4499,-1.4567,-1.4616,-1.4681,-1.4719,-1.4747,-1.4746,-1.446,-1.4134,-1.3707,-1.2924,-1.2066,-1.1181,-1.0149,-0.897,-0.7771,-0.701,-0.6592,-0.6356,-0.6012,-0.5861,-0.5842,-0.5811,-0.5842,-0.5739,-0.5296,-0.5097,-0.4874,-0.4487,-0.4246,-0.4147,-0.4268,-0.4392,-0.4354,-0.3869,-0.3752,-0.3625,-0.3287,-0.3419,-0.3559,-0.3439,-0.3628,-0.4153,-0.5078,-0.5905,-0.6399,-0.6483,-0.7127,-0.7203,-0.6405,-0.6358,-0.6015,-0.5054,-0.6112,-0.6302,-0.5224,-0.518,-0.4493,-0.3037,-0.1375,-0.0294,0.0185,-0.0073,-0.0537,-0.1243,-0.217,-0.311,-0.2482,-0.2393,-0.226,-0.1775,-0.1501,-0.1286,-0.106,-0.1114,-0.1213,-0.1194,-0.13,0.0,-0.1013,0.0,0.0,0.0,0.0,0.0,-0.7299,-0.8061,-0.8559,0.0,-0.9249,0.0,-1.2368,-1.4046,-1.5075,0.0,-1.4909,-1.4705,-1.4643,-1.4643,-1.4654,-1.4701,-1.4659,-1.4511,-1.4295,-1.4355,-1.433,-1.4268,-1.4293,-1.4355,-1.4416,-1.4794,-1.5014,-1.5097,0.0,-1.5518,-1.5237,-1.5152,-1.4865,-1.446,-1.4208,-1.3821,-1.3342,-1.274,-1.2075,-1.1352,-1.0379,-0.9308,-0.823,-0.7187,-0.6605,-0.6307,-0.5998,-0.5874,-0.578,-0.5763,-0.5686,-0.5507,-0.5108,-0.4815,-0.4529,-0.4196,-0.3875,-0.3616,-0.358,-0.3629,-0.3569,-0.3262,-0.321,-0.3146,-0.2913,-0.3012,-0.3147,-0.3166,-0.3312,-0.3538,-0.3968,-0.4771,-0.5343,-0.5416,-0.5972,-0.6149,-0.5718,-0.5735,-0.5576,-0.5038,-0.5861,-0.5966,-0.5093,-0.4704,-0.3776,-0.2247,-0.094,-0.0112,0.0202,-0.0186,-0.0795,-0.1618,-0.2553,-0.3476,-0.2444,-0.2182,-0.1971,-0.1703,-0.1406,-0.1082,-0.0605,-0.0402,-0.0285,-0.021,0.0,-0.0312,-0.029,-0.0789,-0.1432,-0.2132,0.0,-0.464,-0.7276,-0.8448,-0.9149,-0.9465,-0.9747,-0.999,-1.0093,-1.3264,-1.5327,-1.532,-1.5151,-1.4979,-1.485,-1.4813,-1.4736,-1.46,-1.4476,-1.4331,-1.419,-1.4216,-1.4216,-1.4154,-1.4242,-1.4293,-1.4404,-1.5282,-1.5735,-1.5845,-1.6596,0.0,-1.5866,-1.5588,-1.4977,-1.4134,-1.3827,-1.3427,-1.2965,-1.2337,-1.1888,-1.1401,-1.0479,-0.9744,-0.9014,-0.7611,-0.6808,-0.6356,-0.6071,-0.5914,-0.5853,-0.579,-0.5589,-0.5273,-0.4795,-0.4499,-0.4251,-0.3899,-0.3499,-0.3108,-0.2847,-0.2836,-0.2821,-0.2658,-0.2784,-0.2875,-0.2647,-0.2663,-0.2734,-0.2855,-0.2918,-0.3026,-0.3273,-0.3882,-0.4369,-0.451,-0.4634,-0.4764,-0.484,-0.4902,-0.494,-0.4987,-0.5483,-0.5523,-0.4871,-0.4057,-0.3017,-0.173,-0.0635,-0.0067,-0.0022,-0.0618,-0.1384,-0.2347,-0.3243,-0.4049,-0.2086,-0.1927,-0.1695,-0.1364,-0.0956,-0.0532,-0.0124,0.0378,0.0,0.0,0.0772,0.059,0.0379,-0.0498,-0.1601,-0.2806,0.0,0.0,0.0,0.0,-0.9781,0.0,0.0,0.0,0.0,0.0,0.0,0.0,0.0,-1.5171,-1.4963,-1.4794,-1.4556,-1.4216,-1.3963,-1.3906,-1.4026,-1.4068,-1.4033,-1.4033,-1.4087,-1.419,-1.4278,-1.5179,-1.5647,-1.5735,-1.587,0.0,-1.5662,-1.4817,-1.4226,-1.3835,-1.3447,-1.3039,-1.2556,-1.1993,-1.1523,-1.1082,-1.0306,-0.9735,-0.9214,-0.8305,-0.7551,-0.7044,-0.6904,-0.6582,-0.6208,-0.6142,-0.5725,-0.5201,-0.4739,-0.4252,-0.3817,-0.3423,-0.294,-0.25,-0.23,-0.2198,-0.219,-0.2195,-0.2408,-0.2507,-0.225,-0.243,-0.2545,-0.2285,-0.2449,-0.2631,-0.2719,-0.3423,-0.3947,-0.4096,-0.4234,-0.4368,-0.4464,-0.4592,-0.4725,-0.4846,-0.5449,-0.543,-0.4599,-0.3675,-0.291,-0.2271,-0.0788,-0.0418,-0.1202,-0.1702,-0.2442,-0.3447,-0.4159,-0.4866,-0.213,-0.1863,-0.1514,-0.1024,-0.0566,-0.0069,0.0629,0.0,0.0,0.0,0.1833,0.1697,0.2095,0.0,0.0,0.0,0.0,0.0,0.0,0.0,0.0,0.0,0.0,0.0,0.0,0.0,0.0,0.0,0.0,-1.2531,-1.2407,-1.1995,-1.1678,-1.1409,-1.2811,-1.3624,-1.3733,-1.3853,-1.3912,-1.3912,-1.4012,-1.4096,-1.4186,-1.556,-1.6187,-1.6255,-1.6698,0.0,-1.6036,-1.4974,-1.4129,-1.3391,-1.3064,-1.2632,-1.219,-1.1673,-1.1457,-1.1356,-1.0624,-1.0256,-0.9939,-0.9152,-0.8202,-0.7324,-0.716,-0.6737,-0.6297,-0.6229,-0.5655,-0.4992,-0.4608,-0.4029,-0.3447,-0.3038,-0.2385,-0.183,-0.1652,-0.1647,-0.1642,-0.1643,-0.1845,-0.2026,-0.199,-0.2063,-0.2107,-0.2055,-0.2039,-0.2085,-0.2217,-0.2568,-0.3015,-0.3518,-0.3679,-0.3781,-0.3931,-0.4074,-0.4277,-0.4459,-0.476,-0.4716,-0.4318,-0.3232,-0.2561,-0.2398,-0.1125,-0.0931,-0.1877,-0.2646,-0.3459,-0.4288,-0.5325,-0.6088,-0.2337,-0.1944,-0.145,-0.0777,-0.0171,0.0476,0.136,0.1948,0.0,0.0,0.2806,0.2773,0.3634,0.0,-0.0168,0.0,0.0,0.0,0.0,0.0,0.0,0.0,0.0,0.0,0.0,0.0,0.0,0.0,0.0,0.0,-0.9774,-0.9249,-0.893,-0.8829,-1.1731,-1.3244,-1.3156,-1.3536,-1.3733,-1.3748,-1.3883,-1.3984,-1.4104,-1.5656,-1.6392,-1.6457,-1.7118,0.0,0.0,-1.4972,-1.3939,-1.2986,-1.2689,-1.2291,-1.1863,-1.1363,-1.145,-1.1615,-1.0915,-1.0694,-1.0562,-0.9845,-0.875,-0.7674,-0.7451,-0.6949,-0.6468,-0.6433,-0.578,-0.4991,-0.4604,-0.3923,-0.3238,-0.27,-0.1962,-0.1324,-0.1175,-0.1162,-0.1174,-0.1129,-0.1294,-0.1509,-0.1659,-0.1607,-0.1568,-0.1707,-0.1542,-0.1463,-0.1601,-0.1631,-0.1936,-0.2695,-0.2965,-0.313,-0.3257,-0.3449,-0.3684,-0.3914,-0.4006,-0.4013,-0.3877,-0.2856,-0.2327,-0.2417,-0.1569,-0.1661,-0.2772,-0.3573,-0.4317,-0.4988,-0.6132,-0.6864,-0.2805,-0.2182,-0.1437,-0.0769,0.0199,0.1188,0.1954,0.0,0.0,0.3502,0.3505,0.3576,0.3984,0.2667,0.0,0.0,0.0,-0.3386,0.0,0.0,0.0,0.0,0.0,0.0,0.0,0.0,0.0,0.0,0.0,0.0,-0.8994,-0.8736,-0.8542,-0.853,-1.1384,-1.2621,-1.1945,-1.2985,-1.3578,-1.361,-1.3748,-1.3868,-1.3955,-1.4952,-1.5418,-1.5433,-1.5446,0.0,0.0,-1.382,-1.3121,-1.2708,-1.23,-1.1918,-1.1505,-1.1094,-1.119,-1.143,-1.0736,-1.0603,-1.0562,-0.9845,-0.9058,-0.8383,-0.8318,-0.7723,-0.7141,-0.7194,-0.6443,-0.5505,-0.4925,-0.4215,-0.3422,-0.241,-0.1674,-0.1177,-0.0968,-0.0901,-0.0853,-0.0835,-0.0958,-0.1032,-0.0993,-0.0983,-0.0943,-0.0826,-0.0804,-0.0768,-0.0726,-0.0771,-0.0958,-0.134,-0.1993,-0.2413,-0.2504,-0.2682,-0.2886,-0.3099,-0.3615,-0.3702,-0.3229,-0.278,-0.2534,-0.2496,-0.2105,-0.2779,-0.4558,-0.4546,-0.4871,-0.5529,-0.5971,-0.6324,-0.3137,-0.2506,-0.175,-0.0694,0.0417,0.1472,0.2466,0.0,0.3728,0.3908,0.3818,0.3644,0.3629,0.2608,0.1252,-0.0354,-0.1076,-0.1683,-0.2405,0.0,0.0,0.0,0.0,0.0,0.0,0.0,0.0,0.0,0.0,0.0,-0.7341,-0.7853,-0.8137,-0.8137,-0.9474,-1.0634,-1.1545,-1.2336,-1.2971,-1.3479,-1.3655,-1.3778,-1.3868,-1.4813,-1.5228,-1.5198,-1.5121,0.0,0.0,-1.3425,-1.2727,-1.234,-1.1909,-1.1549,-1.1244,-1.1073,-1.1122,-1.1118,-1.0729,-1.0559,-1.0408,-0.9667,-0.899,-0.848,-0.8414,-0.7855,-0.719,-0.719,-0.6449,-0.5478,-0.484,-0.3851,-0.2857,-0.2098,-0.1505,-0.1053,-0.0744,-0.0606,-0.0534,-0.0522,-0.0571,-0.0609,-0.0538,-0.0461,-0.0396,-0.0297,-0.0181,-0.0152,-0.034,-0.0347,-0.0403,-0.0579,-0.1113,-0.1468,-0.1487,-0.164,-0.1844,-0.2074,-0.2562,-0.2869,-0.2983,-0.2809,-0.2997,-0.3567,-0.3145,-0.3505,-0.4751,-0.5053,-0.5392,-0.5739,-0.639,-0.6764,-0.3746,-0.3055,-0.2199,-0.0937,0.0382,0.1641,0.0,0.351,0.4022,0.4143,0.3874,0.3515,0.32,0.2533,0.1716,0.0823,0.0222,-0.0398,-0.114,-0.1695,0.0,0.0,0.0,0.0,0.0,0.0,0.0,0.0,0.0,0.0,-0.5476,-0.6198,-0.6921,-0.762,-0.802,-0.908,-1.0815,-1.1909,-1.274,-1.3379,-1.3528,-1.3671,-1.3778,-1.446,-1.4722,-1.466,-1.4599,0.0,0.0,-1.3151,-1.2522,-1.2045,-1.1542,-1.1249,-1.1091,-1.0951,-1.0915,-1.0944,-1.065,-1.0401,-1.0099,-0.943,-0.8846,-0.8357,-0.8291,-0.7795,-0.7241,-0.7161,-0.6284,-0.5197,-0.4487,-0.3414,-0.2415,-0.188,-0.1376,-0.0939,-0.0591,-0.0442,-0.0369,-0.0302,-0.0341,-0.0343,-0.0168,0.0101,0.0298,0.0357,0.0486,0.0482,0.0276,0.0289,0.0245,0.0088,-0.0066,-0.0195,-0.0272,-0.0549,-0.0785,-0.0929,-0.162,-0.2196,-0.2611,-0.292,-0.3439,-0.4204,-0.3902,-0.4061,-0.4733,-0.5179,-0.5456,-0.5596,-0.6199,-0.6474,-0.4754,-0.3911,-0.2734,-0.1654,0.0074,0.1756,0.0,0.3607,0.4191,0.4115,0.3718,0.3287,0.289,0.2529,0.2029,0.1218,0.0756,0.0279,-0.0324,-0.0823,0.0,0.0,0.0,0.0,0.0,0.0,0.0,0.0,0.0,0.0,-0.3548,-0.3548,-0.4613,-0.6931,-0.7593,-0.8432,-0.9512,-1.1817,-1.3104,-1.3305,-1.3362,-1.3528,-1.3702,-1.3698,-1.3733,0.0,0.0,0.0,0.0,-1.289,-1.2458,-1.1833,-1.1244,-1.1039,-1.1028,-1.0588,-1.0657,-1.091,-1.0397,-1.0032,-0.9707,-0.9168,-0.8561,-0.7987,-0.7919,-0.767,-0.7363,-0.7224,-0.6058,-0.4648,-0.3818,-0.3019,-0.2301,-0.1804,-0.1253,-0.0766,-0.062,-0.0454,-0.0302,-0.0302,-0.0352,-0.0241,0.0226,0.0792,0.12,0.119,0.1181,0.1203,0.1282,0.1287,0.1136,0.0739,0.1226,0.1472,0.1203,0.0564,0.0243,0.037,-0.0989,-0.1859,-0.2008,-0.3103,-0.3785,-0.4007,-0.4203,-0.447,-0.4808,-0.4857,-0.4943,-0.5022,-0.5037,-0.4906,-0.4809,-0.4145,-0.3125,-0.1693,-0.0082,0.1449,0.2545,0.3507,0.4167,0.4002,0.3585,0.3153,0.2738,0.2471,0.2112,0.1528,0.1184,0.0,0.0,0.0,0.0,0.0,0.0,0.0,0.0,0.0,0.0,0.0,0.0,0.0,-0.2062,-0.2237,-0.3699,-0.6641,-0.7219,-0.8214,-0.977,-1.0959,-1.1977,-1.2815,-1.3123,-1.3379,-1.3562,-1.3624,-1.3589,0.0,0.0,0.0,0.0,-1.2495,-1.2012,-1.1511,-1.1096,-1.0766,-1.055,-1.0547,-1.0429,-1.0226,-1.0246,-0.9769,-0.903,-0.8561,-0.807,-0.7599,-0.7363,-0.7196,-0.6943,-0.6124,-0.5351,-0.4543,-0.3796,-0.292,-0.2138,-0.1991,-0.1326,-0.0686,-0.0551,-0.0349,-0.0201,-0.0403,-0.0096,0.0367,0.0897,0.1492,0.188,0.1827,0.1981,0.1909,0.1418,0.1363,0.1696,0.2519,0.3194,0.3599,0.3654,0.2709,0.1971,0.1649,0.0375,-0.0817,-0.1813,-0.2953,-0.3865,-0.4531,-0.4694,-0.4837,-0.4951,-0.4955,-0.4961,-0.4929,-0.4785,-0.4607,0.0,-0.452,-0.3911,-0.2871,-0.1104,0.0683,0.1791,0.2905,0.371,0.3734,0.3437,0.3047,0.274,0.2491,0.2203,0.1813,0.1517,0.0,0.0,0.0,0.0,0.0,0.0,0.0,0.0,0.0,0.0,0.0,0.0,0.0,0.0066,-0.06,-0.2258,-0.5062,-0.6693,-0.8181,-0.9502,-1.0399,-1.1354,-1.2337,-1.2787,-1.3123,-1.3362,-1.3479,-1.3461,0.0,0.0,0.0,0.0,-1.1954,-1.1578,-1.136,-1.0767,-1.0471,-1.0401,-1.0336,-1.0071,-0.9752,-0.9728,-0.9185,-0.8464,-0.8126,-0.7685,-0.7181,-0.6465,-0.6295,-0.6124,-0.5038,-0.4395,-0.3832,-0.3126,-0.237,-0.1781,-0.1603,-0.107,-0.0584,-0.0491,-0.0319,-0.0201,-0.0269,0.0261,0.0882,0.1443,0.2221,0.2704,0.2466,0.2634,0.2557,0.1997,0.2293,0.2874,0.3682,0.4281,0.4805,0.5288,0.4511,0.3566,0.256,0.1118,-0.0337,-0.1789,-0.2994,-0.3998,-0.4801,-0.495,-0.5037,-0.4987,-0.4883,-0.4783,-0.47,-0.4442,-0.4195,0.0,-0.4935,0.0,-0.4814,-0.2816,-0.0586,0.0564,0.1874,0.0,0.3296,0.3264,0.3083,0.2871,0.2616,0.2353,0.2092,0.0,0.0,0.0,0.0,0.0,0.0,0.0,0.0,0.0,0.0,0.0,0.0,0.0,0.0,0.2604,0.1301,-0.0436,-0.2605,-0.5856,-0.7962,-0.8802,-1.0094,-1.1107,-1.1891,-1.2427,-1.2801,-1.307,-1.3278,-1.3295,0.0,0.0,0.0,0.0,-1.1406,-1.1136,-1.1243,-1.0265,-1.0145,-1.0446,-0.9939,-0.9583,-0.935,-0.8869,-0.8341,-0.7904,-0.7756,-0.7349,-0.6624,-0.5275,-0.5005,-0.4952,-0.3993,-0.3246,-0.2627,-0.1917,-0.1475,-0.1075,-0.0716,-0.0545,-0.0471,-0.0393,-0.0327,-0.0201,0.0101,0.067,0.1281,0.183,0.2888,0.3511,0.311,0.3194,0.3227,0.2972,0.3875,0.4466,0.426,0.4604,0.5214,0.6057,0.5771,0.4806,0.3112,0.1294,-0.0379,-0.1881,-0.3156,-0.4132,-0.4772,-0.4955,-0.5021,-0.4957,-0.4671,-0.4488,-0.4316,-0.3986,-0.3649,-0.4777,0.0,-0.4495,-0.4674,-0.4176,-0.3163,0.0,0.074,0.2146,0.2192,0.0,0.3479,0.3238,0.2953,0.2713,0.0,0.0,0.0,0.0,0.0,0.0,0.0,0.0,0.0,0.0,0.0,0.0,0.0,0.0,0.5275,0.366,0.2526,0.091,-0.1361,-0.3293,-0.5465,-0.7873,-0.9285,-1.0514,-1.1621,-1.2045,-1.242,-1.2741,-1.2962,-1.3031,0.0,0.0,0.0,-1.1993,-1.1299,-1.0933,-1.0727,-1.0125,-0.9814,-0.9665,-0.9314,-0.8904,-0.8423,-0.7946,-0.7447,-0.6888,-0.6124,-0.5858,-0.5522,-0.4132,-0.3811,-0.3767,-0.302,-0.2224,-0.1514,-0.1252,-0.0537,0.0045,-0.0134,-0.0168,-0.0196,-0.0236,-0.0109,0.0101,0.047,0.0841,0.1335,0.2066,0.2812,0.3383,0.3522,0.4033,0.4406,0.4348,0.4686,0.4882,0.4684,0.5059,0.5387,0.5501,0.523,0.4499,0.3165,0.1276,-0.0551,-0.2276,-0.3491,-0.43,-0.4706,-0.4713,-0.4676,-0.4522,-0.4205,-0.393,-0.3707,-0.3322,-0.2917,-0.4614,-0.4612,-0.4763,-0.5635,-0.5676,-0.5033,-0.332,-0.147,0.0,0.0,0.0,0.0,0.0,0.0,0.0,0.0,0.0,0.0,0.0,0.0,0.0,0.0,0.0,0.0,0.0,0.0,0.0,0.0,0.0,0.6703,0.4838,0.3718,0.2263,0.0335,-0.1292,-0.3672,-0.6887,-0.8398,-0.9617,-1.0547,-1.1101,-1.1431,-1.1558,-1.209,-1.2251,0.0,0.0,0.0,-1.1446,-1.0796,-1.043,-1.0177,-0.9552,-0.9175,-0.8991,-0.8665,-0.8218,-0.7682,-0.728,-0.6605,-0.5825,-0.5082,-0.4248,-0.3466,-0.2804,-0.1995,-0.1328,-0.1156,-0.0847,-0.0491,-0.0224,0.0224,0.0582,0.0448,0.0252,0.0118,0.0079,0.0182,0.0336,0.0572,0.1043,0.1676,0.2441,0.3134,0.3667,0.3928,0.4576,0.5248,0.5834,0.554,0.5195,0.4961,0.5349,0.5334,0.4536,0.4128,0.3499,0.2556,0.0913,-0.0891,-0.283,-0.3806,-0.4372,-0.4523,-0.4321,-0.4124,-0.3899,-0.3598,-0.33,-0.2983,-0.2582,-0.2169,-0.4265,-0.448,-0.501,-0.6521,-0.6779,-0.6365,-0.5201,0.0,0.0,0.0,0.0,0.0,0.0,0.0,0.0,0.0,0.0,0.0,0.0,0.0,0.0,0.0,0.0,0.0,0.0,0.0,0.0,0.0,0.0,0.7329,0.5903,0.4809,0.3533,0.2044,0.0265,-0.2191,-0.5389,-0.7202,-0.8447,-0.908,-0.9861,-1.0171,-1.0144,-1.0968,-1.1243,-1.1124,0.0,0.0,-1.0702,-1.007,-0.9676,-0.9496,-0.8723,-0.8416,-0.8366,-0.7972,-0.7474,-0.693,-0.6507,-0.5642,-0.47,-0.416,-0.2788,-0.1422,-0.1558,-0.0178,0.1383,0.0982,0.0716,0.0626,0.1029,0.1029,0.0937,0.0976,0.0751,0.051,0.0467,0.0506,0.0571,0.0638,0.1208,0.1942,0.2739,0.3593,0.4285,0.4511,0.5055,0.5859,0.7047,0.6168,0.5349,0.5137,0.552,0.5142,0.3499,0.2751,0.2139,0.1587,0.0294,-0.1365,-0.3412,-0.401,-0.4242,-0.4124,-0.3775,-0.3457,-0.3124,-0.2826,-0.2519,-0.2208,-0.1782,-0.1335,-0.3504,-0.352,-0.3812,-0.5234,-0.6531,-0.7035,-0.5503,0.0,0.0,0.0,0.0,0.0,0.0,0.0,0.0,0.0,0.0,0.0,0.0,0.0,0.0,0.0,0.0,0.0,0.0,0.0,0.0,0.0,0.0,0.7657,0.6535,0.5711,0.4541,0.2962,0.1253,-0.0508,-0.2366,-0.4996,-0.6756,-0.7636,-0.8537,-0.9057,-0.9228,-1.0142,-1.0442,-1.0222,0.0,-1.0387,-0.9665,-0.9012,-0.868,-0.8549,-0.7861,-0.7554,-0.746,-0.7056,-0.6507,-0.591,-0.5038,-0.4343,-0.3693,-0.2887,-0.1999,-0.1203,-0.0936,0.0758,0.2637,0.2677,0.2366,0.201,0.2055,0.2055,0.1951,0.1496,0.1221,0.1046,0.0856,0.0739,0.0805,0.1341,0.1308,0.1546,0.2547,0.4048,0.5214,0.5529,0.5905,0.6399,0.7107,0.6003,0.5156,0.5117,0.552,0.4962,0.2912,0.1568,0.0727,0.0461,-0.0557,-0.2007,-0.391,-0.3812,-0.358,-0.3295,-0.2909,-0.2557,-0.2292,-0.1964,-0.1647,-0.1367,-0.0856,-0.037,-0.1976,-0.1864,-0.2278,-0.3621,-0.5073,-0.6161,-0.6035,-0.4854,0.0,0.0,0.0,0.0,0.0,0.0,0.0,0.0,0.0,0.0,0.0,0.0,0.0,0.0,0.0,0.0,0.0,0.0,0.0,0.0,0.0,0.0,0.7387,0.654,0.5455,0.4164,0.2542,0.1054,-0.0215,-0.1917,-0.3754,-0.5744,-0.6683,-0.7123,-0.72,-0.839,-0.8856,-0.8739,0.0,-0.9177,-0.8497,-0.796,-0.7601,-0.7332,-0.6929,-0.6666,-0.641,-0.5867,-0.5351,-0.4787,-0.4081,-0.3372,-0.2622,-0.1821,-0.0934,-0.0133,0.0133,0.1641,0.3341,0.3737,0.3429,0.3031,0.3031,0.3031,0.2887,0.2529,0.2305,0.2052,0.1644,0.1632,0.1581,0.1116,0.1341,0.2175,0.3811,0.4915,0.5749,0.6245,0.6612,0.66,0.6132,0.5625,0.531,0.531,0.5501,0.4766,0.2576,0.1233,0.0245,-0.0356,-0.1335,-0.2294,-0.3147,-0.2881,-0.257,-0.2246,-0.1868,-0.1545,-0.1233,-0.1151,-0.0845,-0.0329,0.0105,0.06,0.0099,0.0312,-0.0466,-0.1765,0.0,-0.4836,-0.5837,-0.5227,0.0,0.0,0.0,0.0,0.0,0.0,0.0,0.0,0.0,0.0,0.0,0.0,0.0,0.0,0.0,0.0,0.0,0.0,0.0,0.0,0.0,0.0,0.8192,0.7164,0.6174,0.5256,0.3717,0.2452,0.145,0.0843,-0.0869,-0.364,-0.4491,-0.4929,-0.5018,-0.6336,-0.6916,-0.6952,-0.7623,-0.7576,-0.7016,-0.6673,-0.6351,-0.6046,-0.5896,-0.5644,-0.5265,-0.4666,-0.4089,-0.3598,-0.307,-0.2313,-0.1467,-0.0667,0.0267,0.1156,0.1552,0.27,0.4029,0.4787,0.4613,0.4212,0.4089,0.4001,0.3854,0.348,0.3288,0.3014,0.2371,0.2446,0.2289,0.1084,0.1937,0.3421,0.5232,0.5811,0.6245,0.6902,0.7184,0.6801,0.5372,0.5406,0.5539,0.5501,0.5387,0.4419,0.2139,0.1131,0.0293,-0.0478,-0.1484,-0.2034,-0.1985,-0.1642,-0.1304,-0.0947,-0.0593,-0.0268,0.0035,-0.006,0.0203,0.0809,0.113,0.1649,0.2804,0.3138,0.1737,0.0336,-0.169,0.0,-0.4045,-0.3501,0.0,-0.1493,0.0,0.0,0.0,0.0,0.0,0.0,0.0,0.0,0.0,0.0,0.0,0.0,0.0,0.0,0.0,0.0,0.0,0.0,0.0,0.0,0.869,0.7589,0.6627,0.5855,0.4578,0.3542,0.2764,0.2535,0.1134,-0.1354,-0.1975,-0.2562,-0.3124,-0.4158,-0.4733,-0.4927,-0.537,-0.5348,-0.4997,-0.4906,-0.4862,-0.4829,-0.4724,-0.4438,-0.3993,-0.348,-0.2943,-0.2313,-0.1603,-0.0889,-0.0178,0.0758,0.1558,0.2357,0.3328,0.4117,0.4961,0.6139,0.6288,0.5942,0.5351,0.5091,0.4824,0.4126,0.3829,0.3542,0.2815,0.268,0.2566,0.2086,0.3649,0.5309,0.6091,0.6507,0.6932,0.7558,0.7656,0.7136,0.5673,0.5652,0.5689,0.5501,0.5098,0.3852,0.1387,0.1047,0.0853,0.0605,-0.0419,-0.0921,-0.0737,-0.0173,0.0323,0.072,0.1118,0.1433,0.1628,0.1629,0.1748,0.1989,0.2248,0.2875,0.3834,0.4163,0.3114,0.1377,-0.0148,0.0,0.0,-0.2068,-0.1715,-0.0815,0.0566,0.0,0.0,0.0,0.0,0.0,0.0,0.0,0.0,0.0,0.0,0.0,0.0,0.0,0.0,0.0,0.0,0.0,0.0,0.0,0.9292,0.8358,0.7449,0.6551,0.565,0.4851,0.4152,0.4059,0.3434,0.2245,0.077,-0.0254,-0.0821,-0.1728,-0.2328,-0.2687,-0.3173,-0.338,-0.3368,-0.3518,-0.3614,-0.3698,-0.3628,-0.3377,-0.2937,-0.2317,-0.1692,-0.1023,-0.0267,0.0489,0.1289,0.2176,0.2976,0.3723,0.4457,0.5158,0.5953,0.6868,0.7068,0.6859,0.6209,0.5953,0.5694,0.5164,0.5011,0.4733,0.3884,0.3967,0.4307,0.4631,0.5533,0.6429,0.7065,0.7451,0.786,0.8488,0.8404,0.7671,0.6024,0.5893,0.5874,0.5689,0.4745,0.3558,0.2208,0.2064,0.2038,0.2014,0.1239,0.0831,0.0954,0.1614,0.2047,0.2208,0.2477,0.2688,0.2794,0.2885,0.3142,0.3605,0.4302,0.4844,0.4401,0.4422,0.3489,0.1737,0.0,0.0,-0.0089,-0.054,-0.0684,0.01,0.1656,0.0,0.0,0.0,0.0,0.0,0.0,0.0,0.0,0.0,0.0,0.0,0.0,0.0,0.0,0.0,0.0,0.0,0.0,0.0,0.0,0.902,0.8249,0.7477,0.6684,0.6065,0.56,0.5559,0.5343,0.4949,0.3629,0.2477,0.1447,0.0763,0.0263,-0.009,-0.0566,-0.0968,-0.1311,-0.1709,-0.2071,-0.2423,-0.2375,-0.2138,-0.1703,-0.1063,-0.0311,0.0445,0.12,0.1954,0.2794,0.3548,0.4248,0.4908,0.5503,0.6101,0.6719,0.7405,0.7657,0.7599,0.7073,0.6822,0.6533,0.6021,0.5935,0.5722,0.4729,0.487,0.5434,0.6386,0.6945,0.7392,0.7889,0.8262,0.8622,0.9038,0.8338,0.7347,0.6162,0.6052,0.5961,0.5614,0.4547,0.3693,0.3237,0.3075,0.3005,0.3082,0.2882,0.2733,0.2619,0.3201,0.3573,0.3664,0.3844,0.3959,0.3991,0.4209,0.4511,0.4951,0.5754,0.6284,0.4603,0.4065,0.2693,0.0,0.0,0.0,0.1748,0.1127,0.062,0.1376,0.0,0.5189,0.6135,0.0,0.0,0.0,0.0,0.0,0.0,0.0,0.0,0.0,0.0,0.0,0.0,0.0,0.0,0.0,0.0,0.0,0.0,0.9415,0.8899,0.8633,0.7624,0.7105,0.7096,0.6955,0.6755,0.641,0.6619,0.5622,0.3601,0.3346,0.3078,0.2817,0.2482,0.198,0.135,0.0699,-0.0148,-0.0975,-0.0983,-0.0708,-0.021,0.0307,0.1156,0.2131,0.2799,0.3504,0.4248,0.4899,0.5341,0.5771,0.6507,0.693,0.7308,0.778,0.8167,0.8334,0.7983,0.7689,0.7318,0.6579,0.6513,0.6293,0.5235,0.5182,0.5672,0.6957,0.7744,0.829,0.8572,0.8878,0.9097,0.9097,0.7324,0.5998,0.5998,0.6159,0.5998,0.5175,0.4564,0.424,0.4285,0.3879,0.3646,0.3701,0.446,0.4707,0.4231,0.4534,0.4854,0.5115,0.525,0.5308,0.5308,0.5652,0.585,0.5936,0.6404,0.6968,0.4584,0.345,0.0,0.1463,0.0,0.0,0.0,0.2011,0.0,0.0,0.0,0.587,0.0,0.0,0.0,0.0,0.0,0.0,0.0,0.0,0.0,0.0,0.0,0.0,0.0,0.0,0.0,0.0,0.0,0.0,0.0,1.0117,0.9613,0.9088,0.8444,0.7998,0.7797,0.7533,0.7354,0.725,0.7314,0.6636,0.529,0.4996,0.4592,0.4056,0.3848,0.3313,0.2452,0.1444,0.0724,0.026,0.0364,0.0708,0.1213,0.1964,0.2794,0.3628,0.437,0.5019,0.562,0.6228,0.6735,0.7168,0.7641,0.7972,0.83,0.8464,0.8525,0.8502,0.8421,0.8248,0.7848,0.7073,0.6943,0.6783,0.6183,0.6168,0.6609,0.7695,0.8233,0.8572,0.8878,0.9339,0.9144,0.7587,0.6809,0.643,0.643,0.636,0.6129,0.5652,0.5137,0.4783,0.4664,0.4311,0.4324,0.4871,0.5417,0.5523,0.498,0.5563,0.5919,0.6005,0.6106,0.6292,0.6563,0.6624,0.7033,0.7735,0.7821,0.8412,0.3781,0.2486,0.0,0.129,0.1651,0.2237,0.3151,0.0,0.0,0.0,0.0,0.0,0.0,0.0,0.0,0.0,0.0,0.0,0.0,0.0,0.0,0.0,0.0,0.0,0.0,0.0,0.0,0.0,0.0,0.0,0.0,1.0594,1.0239,0.992,0.9438,0.908,0.8777,0.8816,0.871,0.8429,0.8752,0.8522,0.7798,0.6835,0.6171,0.5778,0.5354,0.4618,0.3687,0.2914,0.235,0.1966,0.2137,0.2417,0.28,0.3623,0.4499,0.5355,0.5879,0.6502,0.7148,0.7489,0.7833,0.8218,0.8545,0.8829,0.907,0.9231,0.9181,0.9023,0.8839,0.863,0.829,0.7626,0.7475,0.737,0.7002,0.7047,0.7413,0.8205,0.86,0.8933,0.9339,0.9788,0.9307,0.7038,0.6706,0.6706,0.6706,0.6535,0.6307,0.602,0.5741,0.5499,0.529,0.504,0.504,0.5385,0.5888,0.6088,0.5909,0.6319,0.6561,0.6596,0.6865,0.6962,0.6994,0.7441,0.7912,0.837,0.9013,0.9651,0.2568,0.0,0.0,0.1075,0.1821,0.0,0.3722,0.0,0.4652,0.0,0.0,0.0,0.0,0.0,0.0,0.0,0.0,0.0,0.0,0.0,0.0,0.0,0.0,0.0,0.0,0.0,0.0,0.0,0.0,0.0,0.0,1.091,1.0767,1.0839,1.049,1.021,0.997,1.0479,1.0458,0.9892,1.06,1.0862,1.0634,0.8628,0.7669,0.7523,0.673,0.5855,0.5026,0.4833,0.4402,0.3916,0.4103,0.4309,0.4538,0.5376,0.6264,0.7122,0.7375,0.8059,0.8759,0.8708,0.8822,0.9013,0.931,0.9549,0.9767,0.9962,0.9922,0.9687,0.9213,0.8872,0.8581,0.8156,0.8061,0.7997,0.7586,0.7724,0.807,0.8544,0.8905,0.9313,0.9841,0.9968,0.9328,0.7257,0.6957,0.6941,0.6924,0.6757,0.6569,0.6395,0.6378,0.6266,0.6088,0.5948,0.5745,0.5499,0.6016,0.6507,0.6894,0.6885,0.691,0.6924,0.7467,0.7483,0.698,0.8131,0.8525,0.8307,0.9905,1.0597,0.252,0.2038,0.0,0.0,0.265,0.3757,0.4187,0.4866,0.0,0.0,0.0,0.0,0.0,0.0,0.0,0.0,0.0,0.0,0.0,0.0,0.0,0.0,0.0,0.0,0.0,0.0,0.0,0.0,0.0,0.0,1.1296,1.1094,1.1029,1.1052,1.0756,1.078,1.1127,1.1113,1.1117,0.0,1.1361,1.1394,1.1265,0.9557,0.8257,0.7326,0.7012,0.6571,0.6141,0.5949,0.5681,0.5437,0.5575,0.5889,0.635,0.7335,0.8048,0.8648,0.9382,0.9753,0.9944,1.0123,1.0127,1.006,1.0137,1.037,1.054,1.0197,0.9984,0.973,0.9182,0.8833,0.8581,0.8437,0.8205,0.796,0.7714,0.7907,0.829,0.8878,0.9228,0.9603,1.0123,0.8851,0.7654,0.7336,0.7284,0.7221,0.7088,0.7023,0.699,0.6931,0.6841,0.6757,0.6697,0.6371,0.6183,0.6106,0.643,0.6926,0.7624,0.7661,0.7477,0.7072,0.7807,0.8205,0.8287,0.8532,0.8924,0.9542,0.9916,1.0538,0.25,0.0,0.0,0.218,0.0,0.3896,0.4389,0.5136,0.0,0.0,0.0,0.0,0.0,0.0,0.0,0.0,0.0,0.0,0.0,0.0,0.0,0.0,0.0,0.0,0.0,0.0,0.0,0.0,0.0,1.1747,1.146,1.1239,1.1146,1.1192,1.1248,1.135,1.1542,1.2096,1.2335,1.2215,1.2633,1.2558,1.1925,1.048,0.935,0.8489,0.8346,0.7992,0.7441,0.7318,0.716,0.7,0.7137,0.7415,0.7903,0.8898,0.9598,1.0092,1.0835,1.1084,1.113,1.1163,1.1004,1.0829,1.0905,1.1094,1.1276,1.1017,1.0628,1.0198,0.9836,0.927,0.8795,0.8706,0.846,0.8241,0.8143,0.8269,0.8572,0.9151,0.9499,0.9492,0.8882,0.7969,0.739,0.7498,0.7452,0.7374,0.7237,0.7237,0.7237,0.7237,0.7173,0.712,0.7006,0.6798,0.6681,0.6681,0.7216,0.7694,0.8119,0.8384,0.8239,0.7646,0.819,0.8324,0.7949,0.893,0.9655,1.0097,0.9969,1.0797,0.27,0.0,0.2875,0.2669,0.3058,0.0,0.4529,0.5289,0.0,0.0,0.0,0.0,0.0,0.0,0.0,0.0,0.0,0.0,0.0,0.0,0.0,0.0,0.0,0.0,0.0,0.0,0.0,0.0,0.0,1.1593,1.1421,1.1215,1.1146,1.1262,1.1695,1.1889,1.184,1.3101,1.356,1.3147,1.3869,1.3716,1.269,1.1588,1.0622,0.9851,0.9807,0.9357,0.8658,0.8706,0.8643,0.8565,0.8718,0.8962,0.9263,1.0277,1.0932,1.1412,1.2115,1.2271,1.2172,1.2127,1.1832,1.1505,1.1616,1.1822,1.1982,1.1903,1.1375,1.072,1.0533,0.9817,0.912,0.895,0.8789,0.8684,0.8756,0.8762,0.8933,0.9446,0.9517,0.8985,0.7496,0.747,0.7694,0.7694,0.7576,0.75,0.7498,0.7467,0.7437,0.7421,0.7772,0.794,0.7733,0.7663,0.7628,0.7575,0.8242,0.8625,0.8669,0.8959,0.8939,0.8524,0.8877,0.8598,0.7672,0.9383,1.0224,1.0224,1.0401,1.1445,0.0,0.0,0.3357,0.0,0.3315,0.3807,0.0,0.0,0.0,0.0,0.0,0.0,0.0,0.0,0.0,0.0,0.0,0.0,0.0,0.0,0.0,0.0,0.0,0.0,0.0,0.0,0.0,0.0,1.1963,1.1089,1.067,1.0887,1.1052,1.1123,1.176,1.2305,1.2818,1.3532,1.3961,1.4125,1.4235,1.4072,1.368,1.3235,1.1975,1.0158,1.0131,0.9802,0.9324,0.9824,0.9972,0.9907,1.0238,1.0479,1.0736,1.1778,1.215,1.2401,1.3667,1.3542,1.2909,1.3256,1.2858,1.2258,1.2365,1.2508,1.2554,1.2106,1.1552,1.0997,1.0456,0.9877,0.9363,0.8987,0.8983,0.9111,0.9327,0.94,0.9473,0.9788,0.8699,0.7739,0.7783,0.7927,0.804,0.804,0.8026,0.797,0.7841,0.7679,0.7544,0.7421,0.932,1.0504,1.0253,0.9996,0.9758,0.954,0.9517,0.9591,0.9692,0.9138,0.9182,0.9839,1.023,1.0251,0.9854,0.9919,0.9944,0.9995,1.1876,1.2922,0.3416,0.3572,0.378,0.0,0.3464,0.3994,0.4962,0.0,0.0,0.0,0.0,0.0,0.0,0.0,0.0,0.0,0.0,0.0,0.0,0.0,0.0,0.0,0.0,0.0,0.0,0.0,0.0,0.0,1.2056,1.1136,1.0198,1.0496,1.0787,1.1052,1.1709,1.2356,1.2988,1.3689,1.417,1.4522,1.4464,1.427,1.3955,1.3667,1.2807,1.1516,1.1323,1.111,1.0969,1.0978,1.1228,1.1599,1.1439,1.1548,1.1934,1.2843,1.314,1.3273,1.4563,1.4355,1.3552,1.3836,1.3364,1.272,1.2861,1.3,1.3088,1.2906,1.2228,1.144,1.1131,1.0325,0.9528,0.9286,0.9407,0.9614,0.9911,0.9967,0.9665,0.8688,0.8069,0.7783,0.8082,0.8245,0.8298,0.8214,0.8164,0.8054,0.7899,0.7812,0.8266,0.9581,1.0671,1.1169,1.0743,1.0324,1.0046,0.9893,0.9814,0.9788,0.9866,0.9441,0.9416,0.9867,1.0122,1.0173,1.0097,0.9944,0.984,0.9733,1.2107,1.3198,0.0,0.0,0.3752,0.3509,0.3765,0.4244,0.0,0.0,0.0,0.0,0.0,0.0,0.0,0.0,0.0,0.0,0.0,0.0,0.0,0.0,0.0,0.0,0.0,0.0,0.0,0.0,0.0,0.0,1.1918,1.1043,0.9944,1.0148,1.0472,1.091,1.1614,1.2305,1.3005,1.3771,1.4356,1.4654,1.4545,1.432,1.4011,1.3724,1.3278,1.2703,1.2417,1.2306,1.2302,1.2152,1.2421,1.2917,1.2504,1.2503,1.2817,1.3554,1.3799,1.3953,1.5081,1.4934,1.4308,1.4349,1.3876,1.3338,1.3335,1.348,1.3615,1.3715,1.2927,1.2032,1.1976,1.0883,0.979,0.9632,0.9753,1.0013,1.0401,1.0572,0.9986,0.7954,0.7841,0.8137,0.8409,0.8579,0.8604,0.8409,0.8298,0.8412,0.8988,0.8968,0.9529,1.1219,1.1376,1.1169,1.0694,1.0223,0.9944,0.9969,0.9866,0.9814,0.9814,0.9605,0.9577,0.9632,0.9814,0.9841,0.9814,0.9814,0.971,0.9548,1.1474,1.2647,0.0,0.3086,0.0,0.392,0.0,0.0,0.0,0.0,0.0,0.0,0.0,0.0,0.0,0.0,0.0,0.0,0.0,0.0,0.0,0.0,0.0,0.0,0.0,0.0,0.0,0.0,0.0,0.0,1.1164,1.0496,0.9919,0.9919,1.0173,1.0718,1.1505,1.2266,1.3005,1.3912,1.4462,1.4595,1.4474,1.432,1.4078,1.3754,1.3378,1.2995,1.3105,1.2978,1.2725,1.3402,1.3593,1.3465,1.3565,1.3529,1.3489,1.3715,1.4072,1.4548,1.511,1.5323,1.5266,1.4908,1.46,1.4365,1.3991,1.4007,1.4203,1.4332,1.3552,1.2784,1.2904,1.1505,1.0046,0.9893,0.9892,1.0123,1.0883,1.1262,1.0775,0.8515,0.8285,0.8554,0.884,0.8985,0.8974,0.8712,0.8554,0.9407,1.1927,1.1882,1.1468,1.1141,1.1029,1.0839,1.0523,1.0248,1.0072,1.0097,0.9918,0.9814,0.9814,0.9658,0.9577,0.9523,0.971,0.971,0.9523,0.9523,0.9523,0.9497,0.9912,1.1199,0.0,0.0,0.0,0.4849,0.5271,0.0,0.0,0.0,0.0,0.0,0.0,0.0,0.0,0.0,0.0,0.0,0.0,0.0,0.0,0.0,0.0,0.0,0.0,0.0,0.0,0.0,0.0,0.0,0.0,0.9633,0.8969,0.9104,0.9558,1.0343,1.1337,1.244,1.3698,1.4183,1.4451,1.4611,1.4451,1.4295,1.4078,1.3848,1.38,1.3926,1.4121,1.3999,1.3637,1.4124,1.4458,1.4623,1.4387,1.4181,1.4093,1.4341,1.4659,1.5081,1.5598,1.5759,1.5734,1.5707,1.5245,1.4682,1.4777,1.454,1.43,1.4433,1.4277,1.3891,1.3033,1.1669,1.0594,1.102,1.125,1.152,1.2077,1.2149,1.1982,1.143,1.1497,1.1683,1.1773,1.1918,1.1869,1.1559,1.1368,1.1557,1.2408,1.2096,1.1681,1.1399,1.1099,1.0839,1.0645,1.0474,1.0324,1.0224,1.0097,0.997,0.9919,0.9814,0.971,0.9684,0.9814,0.984,0.9762,1.0704,1.0678,0.9762,1.0046,1.1384,0.428,0.0,0.0,0.0,0.0,0.0,0.0,0.0,0.0,0.0,0.0,0.0,0.0,0.0,0.0,0.0,0.0,0.0,0.0,0.0,0.0,0.0,0.0,0.0,0.0,0.0,0.0,0.0,0.0,0.0,0.8042,0.8439,0.9271,1.06,1.1644,1.28,1.4016,1.4245,1.438,1.4511,1.4368,1.4257,1.4078,1.3877,1.4054,1.4461,1.4784,1.4824,1.4627,1.4943,1.5209,1.5389,1.4998,1.478,1.4616,1.474,1.5105,1.559,1.5789,1.6097,1.6381,1.6255,1.5825,1.5362,1.538,1.4958,1.4525,1.4627,1.4718,1.4612,1.3797,1.2336,1.121,1.182,1.2179,1.2503,1.2922,1.2829,1.2811,1.3191,1.3379,1.3479,1.3578,1.3592,1.3509,1.3226,1.3031,1.2773,1.2455,1.2117,1.1841,1.1556,1.1262,1.1005,1.0839,1.067,1.0523,1.0399,1.0273,1.0173,1.0122,0.9995,0.9944,0.9969,1.0021,1.0072,1.0097,1.1558,1.1955,1.1365,1.1558,1.2548,0.0,0.0,0.0,0.0,0.0,0.0,0.0,0.0,0.0,0.0,0.0,0.0,0.0,0.0,0.0,0.0,0.0,0.0,0.0,0.0,0.0,0.0,0.0,0.0,0.0,0.0,0.0,0.0,0.8822,0.748,0.7136,0.7935,0.9357,1.1452,1.2466,1.3294,1.3899,1.4127,1.4281,1.4331,1.4281,1.4216,1.4114,1.3912,1.4118,1.464,1.5061,1.5395,1.5675,1.5914,1.5911,1.5681,1.5507,1.5269,1.4968,1.478,1.5269,1.5991,1.5697,1.6415,1.7312,1.6571,1.6415,1.6364,1.5757,1.5219,1.4839,1.4996,1.4935,1.4902,1.5238,1.3591,1.1906,1.2138,1.2522,1.294,1.3312,1.3243,1.3208,1.3542,1.3605,1.3652,1.3873,1.3733,1.3542,1.3413,1.3242,1.2867,1.2293,1.221,1.2033,1.1645,1.1489,1.1307,1.1029,1.0839,1.0694,1.0621,1.0498,1.0399,1.0399,1.0273,1.0248,1.0299,1.0299,1.0374,1.0523,1.1939,1.3165,1.4246,1.4305,1.4493,0.7269,0.0,0.0,0.0,0.0,0.0,0.0,0.0,0.0,0.0,0.0,0.0,0.0,0.0,0.0,0.0,0.0,0.0,0.0,0.0,0.0,0.0,0.0,0.0,0.0,0.0,0.0,0.0,0.6552,0.5547,0.5453,0.7653,0.9667,1.1307,1.2434,1.3293,1.3977,1.4701,1.5135,1.5228,1.5135,1.503,1.4952,1.4753,1.4916,1.5442,1.5808,1.6203,1.6543,1.6343,1.6163,1.5968,1.577,1.5536,1.5329,1.5147,1.5632,1.6387,1.6136,1.6775,1.7693,1.7343,1.7021,1.678,1.7134,1.6096,1.4932,1.5418,1.5536,1.5595,1.5885,1.4142,1.2363,1.2581,1.294,1.3295,1.3477,1.3493,1.3477,1.3589,1.3733,1.3843,1.3888,1.3733,1.3542,1.3413,1.2977,1.2562,1.2302,1.2159,1.1982,1.1776,1.1578,1.1376,1.1169,1.1052,1.0982,1.091,1.0815,1.0718,1.0621,1.0521,1.0523,1.0523,1.0572,1.0694,1.0863,1.21,1.2813,1.3084,1.4417,1.5056,0.0,0.0,0.0,0.0,0.0,0.0,0.0,0.8566,0.0,0.0,0.0,0.0,0.0,0.0,0.0,0.0,0.0,0.0,0.0,0.0,0.0,0.0,0.0,0.0,0.0,0.3922,0.4067,0.4289,0.3352,0.3433,0.4927,0.7619,0.976,1.1234,1.2799,1.3888,1.4459,1.5389,1.5922,1.6008,1.5922,1.5813,1.5747,1.5565,1.5749,1.6267,1.634,1.6591,1.6977,1.6623,1.6328,1.6139,1.5998,1.5827,1.5654,1.5448,1.5869,1.6519,1.618,1.6866,1.7882,1.7774,1.749,1.7336,1.7786,1.6633,1.5299,1.5827,1.597,1.6026,1.6274,1.5404,1.4497,1.47,1.5008,1.4941,1.3833,1.3605,1.362,1.3717,1.3853,1.3976,1.3903,1.3686,1.3479,1.3346,1.2922,1.2542,1.2363,1.22,1.2003,1.1854,1.1948,1.1913,1.1774,1.168,1.1637,1.1585,1.124,1.0982,1.0887,1.0815,1.0791,1.0791,1.0839,1.1148,1.1678,1.2231,1.2872,1.3536,1.4891,1.6095,0.7414,0.8397,0.0,0.0,0.0,0.0,1.0109,1.029,1.0645,0.0,0.0,0.0,0.0,0.0,0.0,0.0,0.0,0.0,0.0,0.0,0.0,0.0,0.0,0.0,0.3314,0.2383,0.1387,0.0363,0.0,0.1348,0.4847,0.7488,0.9652,1.1366,1.3355,1.4693,1.5259,1.6197,1.6684,1.6751,1.6689,1.6606,1.6522,1.6376,1.6551,1.6978,1.6715,1.6782,1.7052,1.6696,1.6436,1.6222,1.6139,1.6026,1.5885,1.5712,1.5946,1.6358,1.5976,1.6664,1.7772,1.7868,1.7922,1.7948,1.7754,1.6832,1.5942,1.6222,1.6277,1.6332,1.657,1.6914,1.7191,1.7491,1.7434,1.6618,1.4142,1.3605,1.3652,1.3888,1.4034,1.4076,1.3918,1.3608,1.3362,1.321,1.2962,1.2716,1.2443,1.2282,1.2117,1.1949,1.2411,1.2683,1.2535,1.2468,1.2449,1.2449,1.1698,1.1215,1.1169,1.1099,1.1052,1.1048,1.1146,1.158,1.2449,1.2193,1.3039,1.4871,1.5891,1.7573,0.9598,0.9899,0.9747,0.8198,0.0,0.0,1.1433,1.1818,1.192,0.0,0.0,0.0,0.0,0.0,0.0,0.0,0.0,0.0,0.0,0.0,0.0,0.0,0.0,0.0,0.3418,0.2158,0.0712,-0.0987,-0.1178,0.0123,0.3204,0.6039,0.8973,1.2104,1.3738,1.5105,1.6212,1.7163,1.7674,1.7742,1.7607,1.7527,1.7429,1.7117,1.6982,1.6932,1.7143,1.7092,1.6926,1.6644,1.6463,1.6328,1.6194,1.6052,1.6055,1.5856,1.586,1.5894,1.5552,1.6071,1.7051,1.7702,1.8123,1.8124,1.6892,1.6478,1.6517,1.6837,1.6733,1.6596,1.6914,1.7191,1.7491,1.7692,1.5961,1.4126,1.3695,1.3605,1.3682,1.3998,1.4068,1.4076,1.3918,1.3717,1.3445,1.3156,1.294,1.2716,1.2514,1.2363,1.2221,1.2075,1.2598,1.287,1.2754,1.2683,1.2636,1.2636,1.193,1.1489,1.1421,1.1353,1.1353,1.1415,1.1527,1.1525,1.1372,1.1324,1.2663,1.5266,1.8375,1.9931,0.9866,0.9995,0.989,0.9079,0.0,0.0,0.0,1.277,1.2725,1.2375,0.0,0.0,0.0,0.0,0.0,0.0,0.0,0.0,0.0,0.0,0.0,0.0,0.0,0.0,0.2719,0.0799,-0.1401,-0.395,-0.356,-0.1783,0.1442,0.463,0.8223,1.2321,1.4326,1.5938,1.7136,1.8073,1.8536,1.8536,1.8402,1.8302,1.8253,1.7944,1.7691,1.75,1.7535,1.7344,1.7027,1.6805,1.6623,1.6463,1.625,1.6166,1.6139,1.5998,1.5919,1.5861,1.5625,1.5765,1.608,1.6673,1.701,1.7019,1.6393,1.6521,1.6889,1.7041,1.6863,1.6675,1.7016,1.6216,1.5367,1.5556,1.4497,1.3429,1.3573,1.3605,1.3698,1.4026,1.4068,1.3998,1.3918,1.3717,1.3461,1.3243,1.2995,1.2773,1.2574,1.2423,1.2302,1.2159,1.27,1.3054,1.2963,1.2917,1.2894,1.2894,1.2201,1.1776,1.1711,1.1711,1.1711,1.1703,1.1615,1.1527,1.1437,1.3466,1.5055,1.628,1.9529,2.0958,0.0,0.0,0.0,0.0,0.0,1.3214,0.0,0.0,0.0,1.2448,0.0,0.0,0.0,0.0,0.0,0.0,0.0,0.0,0.0,0.0,0.0,0.0,0.0,0.0,0.1693,-0.1467,-0.4533,-0.7405,-0.6482,-0.4169,-0.0428,0.3094,0.7339,1.2441,1.4862,1.6744,1.8064,1.8826,1.9202,1.9134,1.9,1.8878,1.8788,1.8542,1.8301,1.8091,1.7816,1.7509,1.7199,1.6991,1.6785,1.657,1.6301,1.6191,1.6163,1.6141,1.6083,1.5996,1.5856,1.5624,1.5448,1.5712,1.5827,1.5942,1.6194,1.6654,1.6969,1.637,1.6006,1.5883,1.6209,1.4689,1.3172,1.3362,1.3413,1.3429,1.3573,1.362,1.3763,1.404,1.4026,1.3941,1.3903,1.3702,1.3477,1.3329,1.3067,1.2811,1.2632,1.2495,1.2363,1.2231,1.2851,1.3233,1.3166,1.3175,1.3175,1.3175,1.2507,1.2075,1.2024,1.2096,1.2096,1.2033,1.1798,1.2139,1.3104,1.6364,1.7983,1.8182,2.0417,2.1495,0.0,0.0,0.0,0.0,1.4006,0.0,0.0,0.0,1.3611,1.2541,0.0,0.0,0.0,0.0,0.0,0.0,0.0,0.0,0.0,0.0,0.0,0.0,0.0,0.0,0.0,-0.4878,-0.8907,-1.0423,-0.9555,-0.6973,-0.2325,0.1271,0.6191,1.2743,1.5006,1.7045,1.8925,1.9182,1.9251,1.9202,1.907,1.8932,1.8788,1.8542,1.8322,1.819,1.7839,1.7532,1.7272,1.7002,1.6773,1.657,1.6293,1.6184,1.6184,1.6191,1.6194,1.6139,1.5885,1.577,1.5741,1.5799,1.597,1.6222,1.6463,1.6811,1.6524,1.3791,1.3009,1.303,1.3238,1.3202,1.3172,1.3362,1.3413,1.3429,1.3573,1.3748,1.3918,1.4054,1.4005,1.3903,1.3903,1.3798,1.3592,1.3346,1.3052,1.2815,1.262,1.2522,1.2475,1.2383,1.3031,1.3439,1.3374,1.3408,1.3451,1.3451,1.2842,1.2451,1.2439,1.2491,1.2503,1.2431,1.2403,1.4153,1.7731,1.8193,1.9556,2.1737,2.2046,2.218,0.0,0.0,0.0,0.0,0.0,0.0,1.5388,0.0,1.4943,0.0,0.0,0.0,0.0,0.0,0.0,0.0,0.0,0.0,0.0,0.0,0.0,0.0,0.0,0.0,0.0,0.0,0.0,0.0,-1.1734,-0.8885,-0.3561,0.0064,0.5325,1.2647,1.5025,1.7112,1.9101,1.923,1.9298,1.9251,1.9034,1.9147,1.9486,1.927,1.9108,1.8982,1.8731,1.8212,1.7589,1.7239,1.7076,1.6901,1.6644,1.6463,1.6301,1.625,1.6194,1.6166,1.5885,1.5799,1.5799,1.5799,1.597,1.5941,1.4633,1.4377,1.4325,1.2891,1.2415,1.2374,1.2562,1.2773,1.2977,1.3189,1.3328,1.3429,1.3573,1.3763,1.3947,1.4054,1.404,1.4005,1.3903,1.3809,1.3671,1.3396,1.3138,1.2922,1.2754,1.262,1.2562,1.2581,1.2875,1.3107,1.3107,1.3134,1.3174,1.3193,1.2997,1.2871,1.2834,1.2797,1.2722,1.2697,1.4847,1.6851,1.8676,2.061,2.2139,2.3153,2.2902,2.2747,0.9605,0.0,0.0,0.0,0.0,0.0,0.0,0.0,0.0,0.0,0.0,0.0,0.0,0.0,0.0,0.0,0.0,0.0,0.0,0.0,0.0,0.0,0.0,0.0,0.0,0.0,0.0,0.0,0.0,-1.0453,-0.4807,-0.1185,0.4279,1.2052,1.4741,1.706,1.9081,1.9209,1.9292,1.9282,1.9251,1.9507,2.0025,2.0058,2.004,1.9921,1.9539,1.8903,1.8133,1.7646,1.7368,1.7208,1.7009,1.6733,1.6414,1.625,1.6194,1.6166,1.5885,1.5741,1.5683,1.577,1.554,1.4869,1.3115,1.2678,1.2773,1.262,1.2463,1.2383,1.2522,1.2735,1.2922,1.3082,1.3224,1.3362,1.3557,1.3763,1.3947,1.4054,1.4082,1.4054,1.3976,1.3868,1.3733,1.3495,1.3243,1.3031,1.2904,1.2773,1.2716,1.2759,1.2834,1.294,1.2995,1.3049,1.3087,1.3158,1.3446,1.3515,1.3243,1.3594,1.3504,1.2977,1.6722,1.8734,1.8949,2.2335,2.3979,2.3979,2.3513,2.3295,0.0,0.0,0.0,1.4105,0.0,0.0,0.0,0.0,1.5188,0.0,0.0,0.0,0.0,0.0,0.0,0.0,0.0,0.0,0.0,0.0,0.0,0.0,0.0,0.0,0.0,0.0,0.0,0.0,-1.3958,0.0,-0.6335,-0.2653,0.2893,1.0813,1.4096,1.6818,1.9081,1.9209,1.9292,1.9319,1.9884,2.0119,2.0025,2.0672,2.0923,2.0823,1.9891,1.9369,1.9075,1.8167,1.7589,1.7305,1.7281,1.7009,1.657,1.6305,1.6194,1.6166,1.5885,1.5595,1.5358,1.5683,1.4362,1.2629,1.2767,1.2792,1.2811,1.2792,1.2792,1.2792,1.2792,1.294,1.31,1.3118,1.3118,1.3191,1.3526,1.3763,1.3947,1.4054,1.4082,1.4082,1.4082,1.3991,1.3843,1.362,1.3412,1.3243,1.3118,1.2977,1.2908,1.2995,1.3052,1.3124,1.3295,1.3413,1.3528,1.3586,1.4457,1.4527,1.3624,1.514,1.5159,1.343,1.7131,1.917,1.9292,2.2765,2.4482,2.4465,2.3979,2.3774,0.0,0.0,1.4007,1.4235,0.0,0.0,0.0,0.0,0.0,0.0,0.0,0.0,0.0,0.0,0.0,0.0,0.0,0.0,0.0,0.0,0.0,0.0,0.0,0.0,0.0,0.0,0.0,0.0,-1.2807,0.0,-0.6798,-0.2683,0.2894,1.0261,1.3751,1.6677,1.9081,1.9209,1.9586,2.0071,2.0191,2.0694,2.1678,2.1747,2.1519,2.1001,2.0668,1.978,1.8648,1.8168,1.7871,1.7681,1.7505,1.7338,1.7141,1.6649,1.6463,1.6409,1.6166,1.5998,1.5639,1.4105,1.3178,1.2735,1.294,1.3085,1.3191,1.3191,1.3191,1.3191,1.3191,1.3138,1.3154,1.3277,1.3311,1.3346,1.3557,1.3763,1.3976,1.419,1.4229,1.4255,1.4344,1.4255,1.4082,1.3824,1.3671,1.3511,1.3329,1.3244,1.3261,1.3312,1.3427,1.3523,1.3617,1.3759,1.4088,1.468,1.5059,1.5562,1.6276,1.6386,1.6792,1.7497,1.8757,2.0581,2.2884,2.4036,2.4629,2.4629,2.4459,2.4266,1.0559,1.2285,0.0,1.4493,1.4746,0.0,1.5799,0.0,0.0,0.0,0.0,0.0,0.0,0.0,0.0,0.0,0.0,0.0,0.0,0.0,0.0,0.0,0.0,0.0,0.0,0.0,-0.6841,-1.0098,-1.1509,0.0,0.0,-0.313,0.2339,0.8709,1.2963,1.6271,1.8645,1.9355,1.9973,2.0509,2.088,2.1562,2.2488,2.2589,2.226,2.1512,2.1185,2.03,1.9009,1.8467,1.8163,1.8005,1.7805,1.7783,1.7805,1.7158,1.6857,1.6753,1.6601,1.6521,1.6077,1.3546,1.2848,1.3049,1.3226,1.3379,1.3479,1.3479,1.3479,1.3479,1.3479,1.3379,1.3295,1.3362,1.3429,1.3511,1.3686,1.3883,1.4109,1.4393,1.4441,1.4476,1.46,1.4522,1.4344,1.4068,1.3927,1.3793,1.3636,1.362,1.3652,1.3678,1.3798,1.3899,1.4011,1.4392,1.4846,1.542,1.6055,1.6831,1.7725,1.7743,1.8342,1.9725,1.9725,2.1427,2.4798,2.4798,2.4798,2.4798,2.4798,2.4676]}]]